     2.11           OBSERVATION DATA    G (GPS)             RINEX VERSION / TYPE
teqc 2010Oct21 OPUS Account 20111028 16:32:54UTC            PGM / RUN BY / DATE
Z 1526                                                      MARKER NAME
3060                                                        MARKER NUMBER
CSMIDDLETON NGS                                             OBSERVER / AGENCY
0220390627 TRIMBLE R7 2.32                                  REC # / TYPE / VERS
60124849 TRM41249.00 NONE                                   ANT # / TYPE
  -741621.3640 -5580167.1272  2988676.0027                  APPROX POSITION XYZ
        2.0010        0.0000        0.0000                  ANTENNA: DELTA H/E/N
     1     1                                                WAVELENGTH FACT L1/2
     5    L1    L2    C1    P1    P2                        # / TYPES OF OBSERV
    15                                                      LEAP SECONDS
  2011     8    24     0     0   30.0000000     GPS         TIME OF FIRST OBS
                                                            END OF HEADER
 11  8 24  0  0 30.0000000  0  9G12G10G09G17G05G04G25G02G30
 -24673555.06258 -19197677.37956  21433480.4304                   21433478.8364
 -33478321.60258 -26052230.28556  20762148.6564                   20762147.6724
 -20413290.54357 -15866385.84054  23421635.2734                   23421638.0634
 -42948919.47357 -33438603.06655  22989266.9924                   22989267.0044
 -19675148.12157 -15301796.17655  21961616.7344                   21961616.8714
 -40876108.54758 -31471883.65655  21484866.6174                   21484865.7274
  -2639724.25856  -2028433.12553  24186142.2424                   24186144.9344
 -38166346.14158 -29709898.34856  20514947.8674                   20514944.5984
  -1078093.19157   -810663.44953  24108125.8204                   24108126.7424
 11  8 24  0  1  0.0000000  0  9G12G10G09G17G05G04G25G02G30
 -24777711.86747 -19278838.48046  21413659.8444                   21413658.2304
 -33521868.03148 -26086162.55146  20753862.0004                   20753861.2194
 -20377376.13747 -15838400.69144  23428469.5784                   23428472.0084
 -42938402.07047 -33430407.75444  22991268.0314                   22991268.7114
 -19807022.26647 -15404555.14145  21936521.9844                   21936522.2154
 -40840709.75048 -31444300.19945  21491602.6254                   21491601.8834
  -2780866.57846  -2138414.04743  24159282.7274                   24159286.4574
 -38208800.89548 -29742979.95346  20506868.8984                   20506865.4574
  -1221347.57447   -922290.18744  24080865.7734                   24080866.3284
 11  8 24  0  1 30.0000000  0  9G12G10G09G17G05G04G25G02G30
 -24881400.13347 -19359634.49646  21393928.3444                   21393926.9774
 -33564725.46948 -26119557.93446  20745706.5004                   20745705.5664
 -20341209.61347 -15810219.08244  23435351.8524                   23435354.6764
 -42927671.96547 -33422046.69544  22993309.5704                   22993310.7194
 -19938549.43447 -15507043.72346  21911493.3134                   21911493.0744
 -40805103.44148 -31416555.04745  21498378.2584                   21498377.4414
  -2921796.65246  -2248229.60243  24132465.0084                   24132467.8284
 -38250901.44548 -29775785.56246  20498857.6414                   20498854.0594
  -1364332.78947  -1033707.16444  24053656.2274                   24053657.6134
 11  8 24  0  2  0.0000000  0  9G12G10G09G17G05G04G25G02G30
 -24984648.00448 -19440087.34046  21374281.2194                   21374279.6994
 -33606924.02748 -26152439.89846  20737676.3134                   20737675.7384
 -20304824.95747 -15781867.50844  23442276.1174                   23442278.7194
 -42916758.93047 -33413543.10944  22995386.5634                   22995387.1024
 -20069756.96547 -15609283.24645  21886525.2114                   21886525.3984
 -40769321.70748 -31388673.19945  21505187.7814                   21505186.6054
  -3062542.40246  -2357901.49243  24105681.6414                   24105684.9344
 -38292679.23048 -29808339.66446  20490907.2584                   20490904.2504
  -1507076.75046  -1144936.17244  24026492.6804                   24026494.0164
 11  8 24  0  2 30.0000000  0  9G12G10G09G17G05G04G25G02G30
 -23512030.17647 -18292592.88346  21654511.1334                   21654509.6094
 -32073043.10948 -24957207.99646  21029563.7894                   21029563.3444
 -18692807.91847 -14525750.44544  23749032.7974                   23749035.3244
 -41330244.04347 -32177297.79744  23297290.4924                   23297290.5594
 -18625218.41847 -14483668.67646  22161411.6254                   22161411.7464
 -39157949.06248 -30133058.16845  21811821.4454                   21811820.8524
  -1627677.45346  -1239824.80944  24378727.7344                   24378730.9534
 -36758715.23048 -28613043.02046  20782811.1884                   20782807.4734
    -74152.72347    -28371.93743  24299169.0864                   24299169.8954
 11  8 24  0  3  0.0000000  0  9G12G10G09G17G05G04G25G02G30
 -23614383.43047 -18372348.62146  21635033.5634                   21635031.6564
 -32113917.02348 -24989057.77346  21021786.3524                   21021785.1724
 -18655991.05547 -14497062.07044  23756038.7894                   23756041.3094
 -41318957.35247 -32168503.03944  23299438.2194                   23299438.8014
 -18755771.53147 -14585398.25446  22136568.0234                   22136567.8794
 -39121816.88748 -30104903.23445  21818696.8754                   21818696.1214
  -1768040.35547  -1349198.42244  24352017.7734                   24352020.5784
 -36799844.84848 -28645092.04746  20774984.5704                   20774980.8404
   -216399.19147   -139213.30943  24272100.6094                   24272101.4104
 11  8 24  0  3 30.0000000  0  9G12G10G09G17G05G04G25G02G30
 -23716260.53148 -18451733.34446  21615647.3204                   21615645.7344
 -32154102.73048 -25020371.27746  21014138.6644                   21014138.1214
 -18618937.71547 -14468189.44144  23763089.9064                   23763092.4804
 -41307457.60547 -32159542.25045  23301626.4064                   23301627.3094
 -18885967.34047 -14686849.41846  22111792.6334                   22111792.5394
 -39085486.83648 -30076594.13745  21825610.2114                   21825609.9384
  -1908182.52746  -1458400.01644  24325349.3834                   24325352.8794
 -36840626.55148 -28676869.98046  20767223.5004                   20767220.2544
   -358367.15247   -249837.64543  24245085.2584                   24245085.5904
 11  8 24  0  4  0.0000000  0  9G12G10G09G17G05G04G25G02G30
 -23817671.74248 -18530755.02346  21596349.2664                   21596347.9534
 -32193613.00848 -25051158.47746  21006620.1954                   21006619.5274
 -18581664.57847 -14439145.52344  23770183.0474                   23770185.3874
 -41295757.00847 -32150424.96945  23303853.8914                   23303854.0314
 -19015816.72747 -14788030.62546  22087082.5704                   22087083.5004
 -39048974.37548 -30048142.89845  21832558.3054                   21832557.8674
  -2048114.63747  -1567437.90644  24298721.3204                   24298724.0274
 -36881074.85548 -28708388.11746  20759526.6724                   20759523.0664
   -500067.14146   -360253.16043  24218120.7114                   24218121.0984
 11  8 24  0  4 30.0000000  0  9G12G10G09G17G05G04G25G02G30
 -23918602.89848 -18609402.63746  21577142.8834                   21577141.1684
 -32232435.30548 -25081409.57846  20999232.6644                   20999231.7034
 -18544162.68447 -14409923.35244  23777319.7034                   23777321.8954
 -41283842.72747 -32141141.19944  23306120.7034                   23306120.8364
 -19145304.23047 -14888929.84846  22062441.9224                   22062442.3984
 -39012269.10248 -30019541.42245  21839543.3914                   21839543.1804
  -2187821.79747  -1676300.51244  24272135.3054                   24272138.7854
 -36921178.49248 -28739637.67246  20751895.5314                   20751891.6804
   -641484.06647   -470448.07043  24191209.8984                   24191210.1994
 11  8 24  0  5  0.0000000  0  9G12G10G09G17G05G04G25G02G30
 -24019070.22348 -18687688.82846  21558024.3364                   21558022.3324
 -32270588.03148 -25111138.94146  20991972.4224                   20991971.6804
 -18506453.87147 -14380539.94944  23784495.5554                   23784497.5554
 -41271732.69147 -32131704.89545  23308424.9614                   23308425.9574
 -19274445.74647 -14989559.47746  22037867.2424                   22037867.3484
 -38975391.60248 -29990805.74645  21846561.2664                   21846560.8714
  -2327319.78547  -1785000.13744  24245590.0474                   24245592.8984
 -36960957.16448 -28770634.00846  20744325.7194                   20744322.2704
   -782633.42646   -580434.52043  24164349.2194                   24164349.9264
 11  8 24  0  5 30.0000000  0  9G12G10G09G17G05G04G25G02G30
 -24119068.70748 -18765609.69546  21538995.2504                   21538993.2154
 -32308068.58248 -25140344.53546  20984839.9694                   20984839.1524
 -18468538.89847 -14350995.89544  23791710.3204                   23791712.4064
 -41259424.09447 -32122113.84445  23310767.4924                   23310768.2034
 -19403235.37547 -15089914.90646  22013359.0004                   22013359.1764
 -38938341.13748 -29961935.29345  21853611.7194                   21853611.3244
  -2466603.42647  -1893532.74244  24219084.8594                   24219087.6414
 -37000409.18748 -28801375.81246  20736818.1254                   20736814.4454
   -923509.85246   -690208.28143  24137541.5704                   24137542.2114
 11  8 24  0  6  0.0000000  0  9G12G10G09G17G05G04G25G02G30
 -24218583.19548 -18843153.41446  21520058.2034                   21520056.7234
 -32344863.77348 -25169016.10246  20977838.3834                   20977837.4024
 -18430408.72347 -14321284.16444  23798966.4064                   23798968.4694
 -41246903.60947 -32112357.69544  23313150.3914                   23313151.0354
 -19531657.96947 -15189984.34446  21988921.1724                   21988921.0594
 -38901107.05548 -29932921.75445  21860697.1254                   21860696.9184
  -2605657.57847  -2001886.52744  24192624.3984                   24192626.4494
 -37039523.21948 -28831854.25046  20729375.2734                   20729371.1804
  -1064097.99246   -799757.38743  24110788.6334                   24110789.3754
 11  8 24  0  6 30.0000000  0  9G12G10G09G17G05G04G25G02G30
 -24317594.34448 -18920304.91846  21501217.2424                   21501215.0164
 -32380956.26648 -25197140.10246  20970970.2504                   20970969.1884
 -18392049.27747 -14291393.77344  23806265.9064                   23806268.3134
 -41234153.38747 -32102422.52344  23315575.7344                   23315576.9804
 -19659693.26647 -15289751.99246  21964556.6954                   21964556.4734
 -38863674.10248 -29903753.25045  21867820.1254                   21867819.7854
  -2744462.32847  -2110045.97744  24166210.7114                   24166213.0274
 -37078283.15248 -28862056.76646  20721999.3134                   20721995.6684
  -1204377.77746   -909066.18443  24084093.5864                   24084095.0044
 11  8 24  0  7  0.0000000  0  9G12G10G09G17G05G04G25G02G30
 -24416112.99648 -18997072.68046  21482469.7274                   21482467.6414
 -32416359.11748 -25224726.72746  20964233.0554                   20964232.3324
 -18353476.93747 -14261337.51643  23813605.9064                   23813608.3554
 -41221185.59447 -32092317.80545  23318044.5554                   23318044.8674
 -19787351.32047 -15389225.69546  21940264.1564                   21940264.0704
 -38826057.26248 -29874441.46145  21874978.1724                   21874978.1254
  -2883028.09847  -2218019.20744  24139841.7344                   24139844.1454
 -37116703.15248 -28891994.41446  20714688.0944                   20714684.6524
  -1344359.36346  -1018142.59043  24057456.0704                   24057456.8484
 11  8 24  0  7 30.0000000  0  9G12G10G09G17G05G04G25G02G30
 -24514139.69148 -19073457.08246  21463815.6254                   21463813.7504
 -32451075.89548 -25251778.73446  20957626.8754                   20957625.5904
 -18314698.57447 -14231120.71544  23820985.2504                   23820987.8094
 -41208002.87947 -32082045.61745  23320553.3364                   23320553.7424
 -19914632.63747 -15488405.82846  21916043.2584                   21916042.9224
 -38788261.72748 -29844990.43745  21882170.5864                   21882170.4774
  -3021355.53547  -2325806.74644  24113519.1094                   24113521.1094
 -37154787.82048 -28921670.74646  20707440.7734                   20707437.0864
  -1484043.23846  -1126987.02743  24030875.0164                   24030876.2504
 11  8 24  0  8  0.0000000  0  9G12G10G09G17G05G04G25G02G30
 -24611679.50448 -19149462.10246  21445254.4224                   21445253.2194
 -32485113.33648 -25278301.38746  20951149.6414                   20951148.6374
 -18275724.61747 -14200751.49243  23828401.6334                   23828404.5234
 -41194612.33647 -32071611.47345  23323100.9144                   23323101.8244
 -20041541.86347 -15587296.03146  21891893.5554                   21891893.1294
 -38750296.68748 -29815407.32445  21889395.1804                   21889394.8444
  -3159449.21547  -2433412.13344  24087240.0704                   24087243.3164
 -37192545.49648 -28951092.27746  20700255.6644                   20700251.6954
  -1623433.75046  -1235602.88743  24004349.7424                   24004350.7274
 11  8 24  0  8 30.0000000  0  9G12G10G09G17G05G04G25G02G30
 -24708723.79748 -19225081.01246  21426787.5944                   21426785.9414
 -32518464.88347 -25304289.59446  20944803.0234                   20944801.7734
 -18236551.76647 -14170227.29743  23835856.1724                   23835859.2734
 -41181006.65247 -32061009.67644  23325690.1094                   23325690.5784
 -20168069.13747 -15685888.60246  21867815.4454                   21867815.3984
 -38712157.56648 -29785688.54745  21896653.3054                   21896652.3444
  -3297299.99247  -2540828.24244  24061008.2664                   24061011.0234
 -37229970.60548 -28980254.68046  20693134.0084                   20693130.2274
  -1762521.45746  -1343982.82043  23977882.6564                   23977882.3954
 11  8 24  0  9  0.0000000  0  9G12G10G09G17G05G04G25G02G30
 -24805272.60548 -19300313.84046  21408414.8834                   21408412.9734
 -32551133.24648 -25329745.43446  20938586.5164                   20938585.2814
 -18197186.04346 -14139552.82043  23843347.3674                   23843350.2934
 -41167187.69147 -32050241.71545  23328319.4614                   23328320.3484
 -20294214.55148 -15784183.62946  21843811.0394                   21843810.7344
 -38673848.52048 -29755837.35245  21903943.0234                   21903942.6484
  -3434907.75447  -2648054.99244  24034822.7814                   24034824.7274
 -37267067.13748 -29009161.04746  20686074.6884                   20686071.0204
  -1901306.22746  -1452126.68443  23951472.2504                   23951473.0394
 11  8 24  0  9 30.0000000  0  9G12G10G09G17G05G04G25G02G30
 -24901327.89148 -19375162.10546  21390136.1644                   21390134.3954
 -32583122.72348 -25354672.28146  20932499.1884                   20932498.1454
 -18157635.20747 -14108734.09444  23850874.1334                   23850876.6454
 -41153159.16047 -32039310.43044  23330989.3674                   23330990.0474
 -20419979.71947 -15882182.35546  21819878.9064                   21819878.5594
 -38635375.98448 -29725858.77045  21911263.6804                   21911263.6644
  -3572273.94947  -2755093.52044  24008682.4924                   24008684.6914
 -37303840.00048 -29037815.20346  20679077.3054                   20679073.6054
  -2039789.29346  -1560035.49244  23925119.7114                   23925120.6214
 11  8 24  0 10  0.0000000  0  9G12G10G09G17G05G04G25G02G30
 -24996906.28148 -19449638.75846  21371948.1954                   21371946.2704
 -32614452.18048 -25379084.83246  20926537.2584                   20926536.2344
 -18117921.06247 -14077788.10544  23858431.0004                   23858434.4414
 -41138939.02047 -32028229.84444  23333695.6024                   23333695.7234
 -20545379.96947 -15979896.72746  21796015.5704                   21796015.3554
 -38596760.37148 -29695768.68745  21918612.4774                   21918611.6724
  -3709414.68447  -2861956.36744  23982585.3364                   23982587.8094
 -37340309.14848 -29066232.69546  20672137.3364                   20672133.7274
  -2177986.43447  -1667721.50044  23898821.9304                   23898822.6644
 11  8 24  0 10 30.0000000  0  9G12G10G09G17G05G04G25G02G30
 -25091972.20748 -19523716.09046  21353857.7274                   21353855.8794
 -32645088.74248 -25402957.44546  20920707.3594                   20920706.4304
 -18078014.26247 -14046691.98844  23866025.1414                   23866028.7934
 -41124493.87947 -32016973.91444  23336444.1174                   23336445.1254
 -20670379.53148 -16077298.88746  21772228.7274                   21772228.5274
 -38557970.69948 -29665542.98045  21925993.9304                   21925993.0904
  -3846294.39147  -2968615.81644  23956538.2734                   23956540.5314
 -37376442.73048 -29094388.71546  20665261.3674                   20665257.4414
  -2315862.02047  -1775156.95344  23872585.1094                   23872585.4964
 11  8 24  0 11  0.0000000  0  9G12G10G09G17G05G04G25G02G30
 -25186537.89148 -19597403.62546  21335862.5944                   21335860.5944
 -32675046.34048 -25426300.99246  20915006.1564                   20915005.4384
 -18037931.90646 -14015459.09043  23873653.3364                   23873655.3014
 -41109837.43747 -32005553.32844  23339233.4304                   23339233.9494
 -20794989.94948 -16174397.81646  21748516.2584                   21748515.9614
 -38519022.81648 -29635193.98845  21933405.5234                   21933404.7274
  -3982924.30147  -3075080.61744  23930537.8674                   23930540.6174
 -37412256.27748 -29122295.35546  20658445.8204                   20658442.3204
  -2453427.02347  -1882350.41844  23846407.7194                   23846407.7774
 11  8 24  0 11 30.0000000  0  9G12G10G09G17G05G04G25G02G30
 -25280594.51248 -19670694.48846  21317963.9064                   21317962.3554
 -32704318.81648 -25449110.68446  20909436.0554                   20909434.9804
 -17997670.84046 -13984086.91844  23881314.3444                   23881317.6374
 -41094962.52047 -31993962.52744  23342063.6094                   23342064.8014
 -20919201.87148 -16271186.23046  21724879.5394                   21724879.2664
 -38479912.05948 -29604718.07845  21940847.9924                   21940847.3134
  -4119295.40247  -3181343.77344  23904587.4224                   23904589.4964
 -37447744.33248 -29149948.36346  20651693.1724                   20651689.2194
  -2590672.21147  -1989294.66844  23820290.6884                   23820290.5204
 11  8 24  0 12  0.0000000  0  9G12G10G09G17G05G04G25G02G30
 -25374132.03148 -19743580.85546  21300164.1174                   21300162.6094
 -32732898.69548 -25471380.68446  20903997.4454                   20903996.3134
 -17957227.00047 -13952572.31244  23889010.3134                   23889013.5474
 -41079861.09447 -31982195.23044  23344937.5554                   23344938.1484
 -21043004.92648 -16367656.05146  21701320.3754                   21701320.1024
 -38440632.83248 -29574110.89845  21948322.3754                   21948322.0474
  -4255397.58247  -3287397.38744  23878688.3364                   23878690.0664
 -37482900.65648 -29177342.87146  20645002.9064                   20644999.3014
  -2727587.36347  -2095981.71944  23794236.0634                   23794236.9614
 11  8 24  0 12 30.0000000  0  9G12G10G09G17G05G04G25G02G30
 -25467159.89548 -19816070.09046  21282461.6644                   21282459.8554
 -32760797.27348 -25493119.79746  20898688.7584                   20898687.4304
 -17916614.86347 -13920926.57044  23896739.0084                   23896742.4104
 -41064543.25847 -31970259.33644  23347852.6174                   23347852.7774
 -21166407.54348 -16463813.84446  21677837.7344                   21677837.3324
 -38401198.05148 -29543382.51645  21955826.8444                   21955826.5274
  -4391239.03547  -3393247.83244  23852838.5864                   23852840.6644
 -37517737.43448 -29204488.39846  20638373.5164                   20638370.1764
  -2864180.52347  -2202417.89544  23768243.0944                   23768244.1294
 11  8 24  0 13  0.0000000  0  9G12G10G09G17G05G04G25G02G30
 -25559658.06248 -19888146.56646  21264860.0864                   21264858.5164
 -32787997.19948 -25514314.50846  20893512.7114                   20893511.1884
 -17875820.14146 -13889138.55144  23904502.0944                   23904505.4654
 -41048991.53547 -31958141.15644  23350812.1094                   23350812.5634
 -21289389.39848 -16559643.76246  21654435.0234                   21654434.6604
 -38361591.89848 -29512520.58245  21963363.7734                   21963363.1294
  -4526799.61747  -3498879.40244  23827042.0554                   23827044.5744
 -37552237.97348 -29231371.91846  20631808.3754                   20631804.0904
  -3000431.21947  -2308587.18444  23742315.4924                   23742316.3914
 11  8 24  0 13 30.0000000  0  9G12G10G09G17G05G04G25G02G30
 -25651641.83648 -19959822.22746  21247355.9614                   21247354.0044
 -32814516.36348 -25534978.75846  20888466.1174                   20888465.0554
 -17834863.69947 -13857224.51644  23912295.4304                   23912298.7664
 -41033222.59047 -31945853.71944  23353812.7034                   23353812.9454
 -21411965.02348 -16655157.12946  21631109.3754                   21631109.3984
 -38321833.77348 -29481540.23445  21970929.5314                   21970928.9534
  -4662094.15247  -3604303.66044  23801296.3054                   23801298.4494
 -37586421.26648 -29258008.23846  20625303.5004                   20625299.7544
  -3136354.21947  -2414501.13744  23716450.3834                   23716450.5984
 11  8 24  0 14  0.0000000  0  9G12G10G09G17G05G04G25G02G30
 -25743108.59848 -20031094.99646  21229950.0474                   21229948.5084
 -32840354.50448 -25555112.34846  20883549.0474                   20883548.2584
 -17793748.30547 -13825186.60944  23920119.3674                   23920122.9144
 -41017235.26247 -31933396.12144  23356854.7894                   23356855.8134
 -21534131.41848 -16750351.62946  21607862.0084                   21607861.5434
 -38281924.92648 -29450442.44945  21978523.6254                   21978523.0474
  -4797119.58647  -3709518.19544  23775601.4694                   23775604.1094
 -37620288.04348 -29284397.91846  20618858.6484                   20618855.3674
  -3271946.21547  -2520157.15644  23690648.3444                   23690648.3954
 11  8 24  0 14 30.0000000  0  9G12G10G09G17G05G04G25G02G30
 -25834073.46548 -20101976.68446  21212640.4304                   21212638.8134
 -32865529.77048 -25574729.40646  20878758.5004                   20878757.4804
 -17752494.80146 -13793041.09844  23927970.0004                   23927972.9344
 -41001046.56247 -31920781.60544  23359935.3444                   23359936.6844
 -21655902.82448 -16845238.34046  21584689.6954                   21584689.4774
 -38241884.78148 -29419242.36345  21986142.6804                   21986142.4224
  -4931890.50047  -3814534.43044  23749956.3054                   23749957.7304
 -37653856.69948 -29310555.29746  20612470.9844                   20612467.1564
  -3407221.71547  -2625566.57444  23664905.9534                   23664905.9454
 11  8 24  0 15  0.0000000  0  9G12G10G09G17G05G04G25G02G30
 -25924513.51248 -20172449.41046  21195430.3284                   21195428.5164
 -32890021.03148 -25593813.47746  20874097.8984                   20874096.7274
 -17711085.30147 -13760774.02344  23935850.0394                   23935853.2934
 -40984634.77346 -31907993.28544  23363058.7344                   23363059.4224
 -21777255.71147 -16939798.94546  21561596.6484                   21561596.4104
 -38201693.77048 -29387924.72745  21993791.5474                   21993790.9884
  -5066383.27747  -3919333.91844  23724362.5314                   23724364.5984
 -37687107.50048 -29336464.99246  20606143.2974                   20606139.5864
  -3542156.87147  -2730710.75043  23639228.9064                   23639229.0314
 11  8 24  0 15 30.0000000  0  9G12G10G09G17G05G04G25G02G30
 -26014435.41848 -20242518.39546  21178318.7194                   21178316.6374
 -32913838.06248 -25612372.18446  20869565.6174                   20869564.9884
 -17669532.03547 -13728394.94144  23943757.0394                   23943760.7194
 -40968008.75847 -31895038.03544  23366222.3204                   23366223.5634
 -21898196.50048 -17034038.42246  21538582.5164                   21538581.7624
 -38161362.84048 -29356498.05545  22001465.9774                   22001465.5704
  -5200604.20347  -4023921.55545  23698820.8594                   23698823.2624
 -37720050.55148 -29362134.89546  20599874.5474                   20599870.9844
  -3676757.84046  -2835594.55943  23613614.5474                   23613615.0204
 11  8 24  0 16  0.0000000  0  9G12G10G09G17G05G04G25G02G30
 -26103841.05148 -20312185.09446  21161305.1094                   21161303.4694
 -32936985.02748 -25630408.76246  20865160.9304                   20865159.8874
 -17627842.17647 -13695909.43044  23951690.5084                   23951694.2034
 -40951171.68747 -31881918.33644  23369426.3754                   23369427.2974
 -22018726.19548 -17127957.57046  21515646.2814                   21515645.8284
 -38120897.89148 -29324966.94945  22009166.4224                   22009165.9884
  -5334554.50847  -4128298.32044  23673331.2814                   23673333.4734
 -37752691.05548 -29387569.03546  20593663.2664                   20593659.8524
  -3811025.66046  -2940218.73043  23588064.0004                   23588064.1254
 11  8 24  0 16 30.0000000  0  9G12G10G09G17G05G04G25G02G30
 -26192728.98848 -20381448.37946  21144390.6094                   21144388.7304
 -32959463.19148 -25647924.19946  20860883.2974                   20860882.0704
 -17586020.00046 -13663320.81644  23959649.5784                   23959652.7504
 -40934123.65247 -31868634.25044  23372670.7584                   23372671.7544
 -22138842.85248 -17221554.87146  21492788.7664                   21492788.2234
 -38080301.05147 -29293333.07445  22016891.5864                   22016890.9884
  -5468232.17647  -4232462.62545  23647893.3594                   23647895.2114
 -37785030.69948 -29412768.75046  20587509.1564                   20587505.4614
  -3944958.18047  -3044581.68043  23562577.7504                   23562578.1094
 11  8 24  0 17  0.0000000  0  9G12G10G09G17G05G04G25G02G30
 -26281088.57048 -20450299.96146  21127576.3204                   21127574.6094
 -32981264.45348 -25664912.18446  20856735.0864                   20856733.5744
 -17544060.25047 -13630625.01644  23967634.4064                   23967637.2344
 -40916855.81647 -31855178.86344  23375956.8134                   23375957.6804
 -22258535.39148 -17314821.69946  21470012.0314                   21470011.3914
 -38039565.59847 -29261591.19945  22024642.8914                   22024642.8324
  -5601625.96547  -4336405.72745  23622509.0634                   23622510.9224
 -37817062.39848 -29437728.50046  20581413.5164                   20581410.2974
  -4078543.99247  -3148674.44943  23537157.0474                   23537157.3404
 11  8 24  0 17 30.0000000  0  9G12G10G09G17G05G04G25G02G30
 -26368919.81248 -20518739.85946  21110862.4614                   21110859.9694
 -33002391.09448 -25681374.48846  20852714.6024                   20852713.2304
 -17501967.99246 -13597825.98044  23975644.6174                   23975647.3674
 -40899369.22347 -31841553.00844  23379284.8134                   23379285.7114
 -22377802.66447 -17407757.14146  21447315.7974                   21447315.5744
 -37998695.28547 -29229744.25445  22032420.7974                   22032420.0824
  -5734735.12547  -4440127.05545  23597178.8834                   23597181.2854
 -37848788.85248 -29462450.40246  20575376.4534                   20575373.0864
  -4211782.15647  -3252496.31643  23511803.1484                   23511802.8954
 11  8 24  0 18  0.0000000  0  9G12G10G09G17G05G04G25G02G30
 -26456214.68748 -20586761.80946  21094250.8834                   21094249.1884
 -33022837.53548 -25697306.77346  20848823.5314                   20848822.7464
 -17459740.43046 -13564921.52343  23983679.6804                   23983682.9574
 -40881657.52747 -31827751.75044  23382655.1414                   23382655.6994
 -22496636.23048 -17500354.62546  21424702.7274                   21424702.7814
 -37957685.85247 -29197788.87545  22040224.5084                   22040223.9064
  -5867551.08247  -4543619.90644  23571904.7664                   23571907.3014
 -37880205.54348 -29486930.92246  20569397.9694                   20569394.5314
  -4344663.94547  -3356040.50843  23486516.4144                   23486515.7304
 11  8 24  0 18 30.0000000  0  9G12G10G09G17G05G04G25G02G30
 -26542979.33648 -20654370.58646  21077739.9224                   21077738.2664
 -33042612.95748 -25712716.18746  20845060.1024                   20845059.2854
 -17417389.09846 -13531920.60243  23991739.1724                   23991742.1804
 -40863728.64847 -31813781.25044  23386066.9224                   23386067.4184
 -22615041.81648 -17592618.62546  21402171.1484                   21402170.5234
 -37916547.12547 -29165732.75845  22048052.6334                   22048052.8244
  -6000079.28147  -4646888.52744  23546685.3444                   23546687.7344
 -37911321.97348 -29511177.46946  20563476.7664                   20563472.9494
  -4477194.66047  -3459311.14143  23461296.1024                   23461295.9024
 11  8 24  0 19  0.0000000  0  9G12G10G09G17G05G04G25G02G30
 -26629217.35248 -20721569.00846  21061329.3444                   21061326.9494
 -33061723.50048 -25727607.51646  20841423.9924                   20841422.8554
 -17374923.03546 -13498830.30143  23999820.3054                   23999823.1414
 -40845587.50847 -31799645.36744  23389518.9384                   23389520.1644
 -22733022.44148 -17684551.48446  21379719.6884                   21379719.0474
 -37875286.63347 -29133581.76645  22055904.3054                   22055904.6374
  -6132322.59447  -4749935.16844  23521519.9694                   23521522.2774
 -37942144.99248 -29535195.38746  20557611.3594                   20557607.8874
  -4609377.05147  -3562310.32844  23436143.0314                   23436142.9264
 11  8 24  0 19 30.0000000  0  9G12G10G09G17G05G04G25G02G30
 -26714922.96148 -20788352.57046  21045020.3524                   21045018.2624
 -33080166.12148 -25741978.39146  20837914.5084                   20837913.5784
 -17332341.74646 -13465650.21543  24007923.7114                   24007926.7074
 -40827230.12147 -31785340.99244  23393012.5864                   23393013.4494
 -22850571.44948 -17776148.02746  21357350.4064                   21357350.2624
 -37833902.29347 -29101334.26645  22063779.7584                   22063779.4844
  -6264274.82847  -4852755.00044  23496410.5864                   23496412.7304
 -37972671.94948 -29558982.60246  20551802.2504                   20551798.8524
  -4741204.73047  -3665033.11344  23411056.8914                   23411056.8674
 11  8 24  0 20  0.0000000  0  9G12G10G09G17G05G04G25G02G30
 -26800079.97748 -20854708.66046  21028815.4774                   21028813.3094
 -33097926.97748 -25755818.01646  20834535.0234                   20834533.4414
 -17289634.22747 -13432371.77043  24016050.8834                   24016053.5234
 -40808641.55147 -31770856.46144  23396549.8444                   23396551.1094
 -22967671.90248 -17867395.02746  21335067.3204                   21335066.4144
 -37792381.34047 -29068980.33245  22071680.3594                   22071680.9344
  -6395918.80147  -4955334.60544  23471359.5704                   23471361.5744
 -38002889.62948 -29582528.82446  20546052.0554                   20546048.1764
  -4872660.39847  -3767466.02744  23386041.1094                   23386041.4844
 11  8 24  0 20 30.0000000  0  9G12G10G09G17G05G04G25G02G30
 -26884692.27048 -20920640.29346  21012714.1024                   21012711.9184
 -33115012.55548 -25769131.44546  20831283.5004                   20831282.3714
 -17246809.48846 -13399001.98043  24024199.4454                   24024202.5164
 -40789827.34447 -31756196.10544  23400129.9224                   23400131.3794
 -23084326.91048 -17958294.95346  21312868.3834                   21312867.8284
 -37750731.51247 -29036525.96545  22079606.7194                   22079606.5864
  -6527257.75847  -5057676.55544  23446366.4534                   23446368.3634
 -38032805.23448 -29605839.66046  20540359.0234                   20540355.3834
  -5003747.26647  -3869611.56644  23361096.4304                   23361095.7154
 11  8 24  0 21  0.0000000  0  9G12G10G09G17G05G04G25G02G30
 -26968766.75048 -20986152.85246  20996715.2974                   20996713.1684
 -33131432.26248 -25781926.02346  20828158.7584                   20828157.6054
 -17203879.56646 -13365550.23543  24032369.8204                   24032372.6644
 -40770795.48847 -31741366.14844  23403751.6254                   23403752.5474
 -23200542.93448 -18048852.80546  21290753.2974                   21290752.4494
 -37708962.78147 -29003978.92645  22087555.5864                   22087554.7544
  -6658297.49247  -5159785.33244  23421430.3524                   23421431.9884
 -38062428.46548 -29628922.67246  20534722.0944                   20534718.5984
  -5134470.87547  -3971474.03544  23336220.7034                   23336220.6524
 11  8 24  0 21 30.0000000  0  9G12G10G09G17G05G04G25G02G30
 -27052300.23448 -21051243.85946  20980819.2974                   20980817.2734
 -33147186.31248 -25794201.90646  20825161.1254                   20825160.0204
 -17160846.80946 -13332018.35543  24040558.8834                   24040561.4384
 -40751545.00047 -31726365.83644  23407415.2584                   23407416.2234
 -23316316.50848 -18139065.89146  21268722.1564                   21268721.4774
 -37667076.55947 -28971340.34445  22095526.0394                   22095525.3204
  -6789034.72347  -5261658.39144  23396551.9454                   23396553.5704
 -38091759.74248 -29651778.19546  20529140.4304                   20529136.8324
  -5264827.82047  -4073050.78944  23311414.4454                   23311414.4064
 11  8 24  0 22  0.0000000  0  9G12G10G09G17G05G04G25G02G30
 -27135296.26648 -21115916.07446  20965025.8204                   20965023.9654
 -33162280.70748 -25805963.76646  20822288.6644                   20822287.4024
 -17117719.85246 -13298413.06643  24048765.2734                   24048768.5314
 -40732080.05946 -31711198.39844  23411119.4924                   23411120.3674
 -23431650.23448 -18228936.24246  21246774.9694                   21246774.2504
 -37625079.48047 -28938615.38745  22103517.9064                   22103517.3204
  -6919471.88347  -5363297.62544  23371730.6644                   23371732.3794
 -38120805.68448 -29674411.37146  20523613.3444                   20523609.8054
  -5394820.44547  -4174343.65644  23286677.5234                   23286677.5164
 11  8 24  0 22 30.0000000  0  9G12G10G09G17G05G04G25G02G30
 -25642306.79748 -19952547.63746  21249131.8674                   21249130.4384
 -31601272.22748 -24589593.52746  21119338.5084                   21119337.6334
 -15499059.80546 -12037119.66443  24356785.5474                   24356789.5904
 -39136957.92647 -30468246.14544  23714661.0164                   23714662.2074
 -21971094.24248 -17090840.57846  21524709.4384                   21524708.8054
 -36007531.04347 -27678188.08645  22411327.1804                   22411326.7074
  -5474158.67647  -4237079.42644  23646764.1564                   23646765.7034
 -36574123.33248 -28469204.32046  20817937.2274                   20817933.2894
  -3948998.37547  -3047728.96544  23561808.6254                   23561808.0824
 11  8 24  0 23  0.0000000  0  9G12G10G09G17G05G04G25G02G30
 -25724199.80948 -20016360.34846  21233548.4144                   21233546.3594
 -31615026.85248 -24600311.41046  21116721.1804                   21116720.1484
 -15455731.16446 -12003357.21543  24365031.0084                   24365034.4924
 -39117041.28547 -30452726.72344  23718450.9694                   23718452.1764
 -22085517.94148 -17180001.81246  21502935.2814                   21502934.2814
 -35965294.55547 -27645276.57845  22419364.3284                   22419364.4384
  -5603965.30947  -4338227.35244  23622063.0234                   23622064.4304
 -36602579.83248 -28491378.19946  20812522.0554                   20812518.5314
  -4078231.64546  -3148430.10944  23537215.7974                   23537215.7734
 11  8 24  0 23 30.0000000  0  9G12G10G09G17G05G04G25G02G30
 -25805539.04748 -20079741.55546  21218070.1484                   21218068.1724
 -31628113.80948 -24610509.03146  21114230.9774                   21114229.5704
 -15412307.46946 -11969520.67243  24373294.9844                   24373298.1374
 -39096898.96147 -30437031.45344  23722283.8914                   23722285.1174
 -22199483.42248 -17268805.99246  21481248.4384                   21481247.4924
 -35922941.83647 -27612274.49245  22427423.6334                   22427423.2464
  -5733453.40247  -4439127.06644  23597422.0554                   23597423.9494
 -36630744.07448 -28513324.34846  20807162.6804                   20807158.8284
  -4207081.78547  -3248832.68744  23512696.2114                   23512696.5554
 11  8 24  0 24  0.0000000  0  9G12G10G09G17G05G04G25G02G30
 -25886326.28548 -20142692.64146  21202696.9064                   21202694.9104
 -31640537.28148 -24620189.64846  21111866.6174                   21111865.9024
 -15368795.37147 -11935615.25843  24381574.7504                   24381578.6454
 -39076533.71146 -30421162.49644  23726158.6954                   23726160.5124
 -22312991.81248 -17357254.00446  21459648.1484                   21459647.3444
 -35880477.64547 -27579185.53145  22435504.2504                   22435504.3914
  -5862623.64147  -4539779.08244  23572841.7034                   23572843.5044
 -36658620.51648 -28535046.23446  20801857.9304                   20801854.1254
  -4335549.18747  -3348937.03944  23488250.0164                   23488249.9104
 11  8 24  0 24 30.0000000  0  9G12G10G09G17G05G04G25G02G30
 -25966556.41048 -20205209.60246  21187429.1564                   21187427.0004
 -31652294.84448 -24629351.37546  21109629.2274                   21109628.1844
 -15325194.42646 -11901640.58243  24389871.3834                   24389875.7584
 -39055941.73046 -30405116.84444  23730078.1884                   23730079.4264
 -22426036.94948 -17445341.04346  21438136.3984                   21438135.8404
 -35837900.05947 -27546008.21545  22443606.7114                   22443605.9414
  -5991469.93047  -4640178.68444  23548323.2114                   23548324.2584
 -36686207.29348 -28556542.40646  20796608.4844                   20796604.5704
  -4463627.83247  -3448738.44544  23463877.1724                   23463876.6764
 11  8 24  0 25  0.0000000  0  9G12G10G09G17G05G04G25G02G30
 -26046224.05948 -20267288.27046  21172269.2034                   21172267.1024
 -31663383.89848 -24637992.17246  21107519.0394                   21107518.5864
 -15281504.61746 -11867596.69544  24398185.3364                   24398189.5044
 -39035119.12946 -30388891.49244  23734040.4614                   23734041.8014
 -22538613.23048 -17533062.73446  21416713.5864                   21416713.0124
 -35795207.66447 -27512741.44145  22451730.4694                   22451730.1994
  -6119986.28147  -4740321.19545  23523867.2504                   23523868.9104
 -36713502.11348 -28577811.08646  20791414.1254                   20791410.0394
  -4591311.57446  -3548232.13344  23439579.4774                   23439579.3364
 11  8 24  0 25 30.0000000  0  9G12G10G09G17G05G04G25G02G30
 -26125326.30548 -20328926.36746  21157216.5704                   21157214.6294
 -31673804.40248 -24646112.02746  21105536.3914                   21105534.9264
 -15237728.16846 -11833485.25443  24406516.6414                   24406519.6294
 -39014064.60546 -30372485.41044  23738046.8834                   23738048.0594
 -22650716.73848 -17620416.03546  21395381.2194                   21395380.6724
 -35752400.77347 -27479385.44945  22459876.6024                   22459876.5864
  -6248168.99247  -4840203.73845  23499474.6804                   23499476.5314
 -36740505.26648 -28598852.48846  20786275.6564                   20786271.6684
  -4718596.59846  -3647415.12944  23415357.7504                   23415357.5664
 11  8 24  0 26  0.0000000  0  9G12G10G09G17G05G04G25G02G30
 -26203853.74248 -20390116.54746  21142273.2734                   21142271.2934
 -31683550.07848 -24653706.03146  21103681.6564                   21103680.3484
 -15193860.51646 -11799302.79743  24414864.0164                   24414867.5314
 -38992770.02346 -30355892.28544  23742098.7194                   23742100.5984
 -22762337.76248 -17707393.38346  21374140.3444                   21374139.4964
 -35709473.43447 -27445935.60245  22468045.2814                   22468045.0784
  -6376007.64547  -4939818.18745  23475147.7584                   23475149.1764
 -36767209.87948 -28619661.27046  20781194.1174                   20781190.1914
  -4845472.41446  -3746279.26244  23391213.9694                   23391213.8364
 11  8 24  0 26 30.0000000  0  9G12G10G09G17G05G04G25G02G30
 -26281821.27048 -20450870.45346  21127436.7424                   21127434.3404
 -31692637.77748 -24660787.32846  21101952.5084                   21101950.9844
 -15149921.61746 -11765064.80943  24423225.7664                   24423228.5784
 -38971251.40246 -30339124.58244  23746193.7424                   23746194.9574
 -22873490.21148 -17794005.59846  21352988.5864                   21352987.8014
 -35666443.57047 -27412405.85545  22476233.7344                   22476233.8014
  -6503516.01647  -5039175.30545  23450883.3674                   23450885.3094
 -36793633.80148 -28640251.32446  20776165.4694                   20776162.0784
  -4971952.66046  -3844835.18044  23367145.8054                   23367145.3954
 11  8 24  0 27  0.0000000  0  9G12G10G09G17G05G04G25G02G30
 -26359224.37548 -20511184.52746  21112707.1804                   21112705.2154
 -31701066.23848 -24667354.94146  21100348.4774                   21100346.6764
 -15105911.36346 -11730771.22343  24431600.6174                   24431603.9304
 -38949505.78147 -30322179.98044  23750331.9454                   23750333.1054
 -22984168.80148 -17880248.57846  21331927.1174                   21331926.0944
 -35623310.03147 -27378795.32045  22484441.9304                   22484442.1604
  -6630688.77347  -5138270.89545  23426683.2894                   23426685.4454
 -36819775.82048 -28660621.71946  20771191.0474                   20771186.9144
  -5098031.89546  -3943078.63344  23343153.5554                   23343153.1374
 11  8 24  0 27 30.0000000  0  9G12G10G09G17G05G04G25G02G30
 -26436054.25448 -20571051.94146  21098086.8204                   21098085.1374
 -31708830.16448 -24673404.72746  21098870.9694                   21098869.6484
 -15061826.54146 -11696419.52044  24439990.5314                   24439993.2504
 -38927525.80947 -30305052.79344  23754514.4384                   23754515.4304
 -23094364.80148 -17966115.52046  21310957.5634                   21310956.6054
 -35580068.02347 -27345100.26245  22492670.5314                   22492670.4384
  -6757516.66447  -5237097.78945  23402548.3674                   23402550.6294
 -36845630.29348 -28680768.04746  20766271.2894                   20766267.2774
  -5223700.82046  -4041002.37144  23319240.1254                   23319239.3244
 11  8 24  0 28  0.0000000  0  9G12G10G09G17G05G04G25G02G30
 -26512313.64548 -20630474.81246  21083575.0004                   21083573.0004
 -31715934.23448 -24678940.33646  21097519.0944                   21097518.0314
 -15017674.55546 -11662015.50843  24448391.5314                   24448394.9844
 -38905315.63346 -30287746.22744  23758741.2194                   23758742.0044
 -23204079.26248 -18051607.22346  21290079.6564                   21290079.1884
 -35536722.58247 -27311324.61345  22500918.9304                   22500918.8554
  -6884000.91447  -5335656.93044  23378479.0944                   23378480.9304
 -36871202.38748 -28700694.35246  20761404.7034                   20761401.3554
  -5348960.55547  -4138607.28144  23295403.1724                   23295402.7624
 11  8 24  0 28 30.0000000  0  9G12G10G09G17G05G04G25G02G30
 -26588017.41448 -20689464.73846  21069169.1724                   21069167.0554
 -31722396.35548 -24683975.73046  21096289.0394                   21096287.9734
 -14973475.08246 -11627574.46943  24456802.1804                   24456805.5784
 -38882891.20746 -30270272.71944  23763009.1644                   23763010.2234
 -23313326.54748 -18136734.89846  21269290.3284                   21269289.1484
 -35493292.14147 -27277482.70345  22509183.0474                   22509183.7464
  -7010155.50847  -5433959.20345  23354472.5784                   23354474.7274
 -36896510.01248 -28720414.57846  20756588.6804                   20756585.4224
  -5473824.99647  -4235904.17644  23271642.3914                   23271642.0864
 11  8 24  0 29  0.0000000  0  9G12G10G09G17G05G04G25G02G30
 -26663155.57448 -20748013.93046  21054870.9694                   21054868.6684
 -31728209.36748 -24688505.32446  21095182.9694                   21095181.9734
 -14929222.97346 -11593092.45343  24465223.1724                   24465227.0984
 -38860244.25047 -30252625.80544  23767318.8524                   23767319.3484
 -23422095.48848 -18221489.85246  21248592.3594                   21248591.5864
 -35449769.88747 -27243569.28545  22517465.3364                   22517465.5554
  -7135969.46147  -5531996.06245  23330531.2194                   23330533.0704
 -36921546.07448 -28739923.18746  20751824.5314                   20751820.8444
  -5598283.17247  -4332884.52044  23247958.9774                   23247958.0824
 11  8 24  0 29 30.0000000  0  9G12G10G09G17G05G04G25G02G30
 -26737716.54748 -20806113.35946  21040682.3284                   21040680.4144
 -31733364.76247 -24692522.49246  21094202.0004                   21094201.2934
 -14884911.25446 -11558563.99243  24473655.7894                   24473659.4694
 -38837363.75047 -30234796.92644  23771672.6024                   23771673.2304
 -23530374.73448 -18305863.21546  21227987.4304                   21227986.4494
 -35406147.34847 -27209577.71545  22525766.1804                   22525766.6644
  -7261430.10247  -5629757.62545  23306657.1334                   23306659.0354
 -36946301.86748 -28759213.42246  20747113.9064                   20747110.0004
  -5722322.34847  -4429538.39844  23224355.1724                   23224354.2424
 11  8 24  0 30  0.0000000  0  9G12G10G09G17G05G04G25G02G30
 -26811702.78948 -20863764.94146  21026603.0864                   21026601.2774
 -31737867.49248 -24696031.09046  21093345.3444                   21093344.2704
 -14840547.15646 -11523994.69943  24482097.8674                   24482101.7504
 -38814253.82046 -30216789.26244  23776070.8754                   23776071.1684
 -23638165.41048 -18389855.87546  21207475.3204                   21207474.6024
 -35362430.17247 -27175512.39545  22534085.8834                   22534085.6914
  -7386538.89547  -5727245.00445  23282849.2894                   23282851.6454
 -36970782.57048 -28778289.28546  20742455.1024                   20742451.5044
  -5845943.81247  -4525866.79744  23200830.2424                   23200829.6414
 11  8 24  0 30 30.0000000  0  9G12G10G09G17G05G04G25G02G30
 -26885105.19548 -20920961.59846  21012635.0234                   21012632.6484
 -31741711.25448 -24699026.21946  21092613.8834                   21092612.9184
 -14796126.31646 -11489381.21143  24490550.7114                   24490555.0594
 -38790906.76246 -30198596.82844  23780513.0784                   23780514.7464
 -23745458.12548 -18473460.50846  21187058.1724                   21187057.4384
 -35318612.24647 -27141368.56245  22542423.6564                   22542424.0554
  -7511285.71947  -5824450.31645  23259111.1884                   23259113.3754
 -36994982.06648 -28797146.02746  20737850.0704                   20737846.2344
  -5969137.43747  -4621861.83244  23177386.9844                   23177386.6724
 11  8 24  0 31  0.0000000  0  9G12G10G09G17G05G04G25G02G30
 -26957946.04748 -20977720.68746  20998774.1954                   20998772.1764
 -31744921.10548 -24701527.39146  21092002.9924                   21092001.6024
 -14751675.56646 -11454744.41043  24499010.1804                   24499013.7464
 -38767345.75047 -30180237.66044  23784996.5944                   23784998.4104
 -23852273.89848 -18556693.52046  21166731.4614                   21166730.8554
 -35274718.99647 -27107166.04745  22550776.4144                   22550776.2854
  -7635691.61347  -5921389.97345  23235437.4454                   23235439.4774
 -37018925.18748 -28815803.00446  20733294.1094                   20733290.0784
  -6091924.23847  -4717539.87544  23154021.8524                   23154021.5514
 11  8 24  0 31 30.0000000  0  9G12G10G09G17G05G04G25G02G30
 -27030208.86348 -21034029.34446  20985022.6804                   20985020.9534
 -31747483.80948 -24703524.29746  21091515.4534                   21091513.9064
 -14707183.67246 -11420075.57443  24507476.9304                   24507480.6764
 -38743555.56246 -30161699.91444  23789523.9064                   23789524.8984
 -23958595.86748 -18639541.73446  21146499.5314                   21146498.4024
 -35230737.06247 -27072894.42245  22559145.7034                   22559145.7544
  -7759739.16447  -6018050.37545  23211831.6644                   23211833.6524
 -37042598.42248 -28834249.68446  20728789.1094                   20728785.3674
  -6214286.81347  -4812887.33544  23130736.7114                   23130736.9694
 11  8 24  0 32  0.0000000  0  9G12G10G09G17G05G04G25G02G30
 -27101880.37548 -21089877.25846  20971384.3524                   20971382.1454
 -31749389.32448 -24705009.09446  21091152.6954                   21091151.5744
 -14662641.87146 -11385367.80543  24515952.8674                   24515956.3444
 -38719524.26646 -30142974.28944  23794096.6094                   23794097.8674
 -24064410.16448 -18721994.36346  21126363.7664                   21126362.9144
 -35186656.54347 -27038545.97745  22567534.5004                   22567534.2464
  -7883414.28147  -6114420.55945  23188297.3594                   23188299.1254
 -37065991.57048 -28852478.10946  20724337.6334                   20724333.8364
  -6336210.75847  -4907893.00444  23107535.4844                   23107534.9884
 11  8 24  0 32 30.0000000  0  9G12G10G09G17G05G04G25G02G30
 -27172960.48448 -21145264.33646  20957857.9384                   20957855.7504
 -31750639.78948 -24705983.45346  21090914.7194                   21090913.3244
 -14618054.42246 -11350624.49643  24524437.8054                   24524441.2854
 -38695253.26646 -30124061.91044  23798715.5164                   23798716.8634
 -24169715.42248 -18804050.33646  21106324.3054                   21106323.7814
 -35142479.59847 -27004122.41045  22575941.1564                   22575940.8874
  -8006715.24247  -6210499.17245  23164834.1884                   23164835.5704
 -37089106.87148 -28870490.03946  20719939.0314                   20719934.9144
  -6457694.53147  -5002555.68444  23084417.9144                   23084417.6914
 11  8 24  0 33  0.0000000  0  9G12G10G09G17G05G04G25G02G30
 -27243461.56248 -21200200.22346  20944442.1094                   20944440.0124
 -31751250.45348 -24706459.27746  21090798.4694                   21090797.1334
 -14573438.36746 -11315858.85943  24532927.8834                   24532931.8954
 -38670755.76646 -30104973.00844  23803377.6024                   23803378.7974
 -24274523.27048 -18885718.73046  21086380.2584                   21086378.8244
 -35098221.70747 -26969635.77045  22584363.4144                   22584362.9184
  -8129653.35947  -6306295.04745  23141439.7974                   23141441.1254
 -37111959.28948 -28888297.11346  20715590.3444                   20715586.7304
  -6578749.23847  -5096884.00444  23061381.7734                   23061381.4924
 11  8 24  0 33 30.0000000  0  9G12G10G09G17G05G04G25G02G30
 -27313383.00048 -21254684.43746  20931136.6884                   20931134.5164
 -31751223.72748 -24706438.43746  21090803.5864                   21090802.1844
 -14528797.70746 -11281074.07043  24541422.8984                   24541427.0204
 -38646032.25446 -30085707.98844  23808082.0004                   23808083.5474
 -24378832.09848 -18966998.27346  21066530.8834                   21066529.6484
 -35053885.31247 -26935087.94944  22592799.8594                   22592799.6684
  -8252226.96547  -6401806.86745  23118114.8054                   23118115.8874
 -37134551.09848 -28905901.12946  20711291.0944                   20711287.5704
  -6699373.26647  -5190876.71944  23038428.2664                   23038428.1724
 11  8 24  0 34  0.0000000  0  9G12G10G09G17G05G04G25G02G30
 -27382715.69948 -21308709.90646  20917943.2114                   20917940.9924
 -31750554.02348 -24705916.57846  21090931.1254                   21090929.9884
 -14484128.26246 -11246266.82443  24549923.4924                   24549927.1484
 -38621075.46546 -30066261.19944  23812830.9384                   23812832.9694
 -24482633.30548 -19047882.25446  21046777.9694                   21046776.8444
 -35009464.79347 -26900474.58244  22601252.8984                   22601252.9184
  -8374426.42247  -6497027.14145  23094860.8364                   23094862.5124
 -37156876.52048 -28923297.56646  20707042.8364                   20707039.1914
  -6819556.84047  -5284526.20744  23015557.7424                   23015557.8134
 11  8 24  0 34 30.0000000  0  9G12G10G09G17G05G04G25G02G30
 -27451461.61748 -21362278.14146  20904861.0234                   20904858.6374
 -31749245.35548 -24704896.82446  21091180.0864                   21091178.6454
 -14439436.12946 -11211441.93743  24558427.6724                   24558431.8754
 -38595887.74246 -30046634.44944  23817623.7974                   23817625.4964
 -24585927.14848 -19128370.89846  21027121.8524                   21027120.7624
 -34964964.21947 -26865798.85944  22609721.2974                   22609721.1724
  -8496251.67647  -6591955.83245  23071678.2974                   23071679.4964
 -37178939.30148 -28940489.34046  20702844.2504                   20702840.4224
  -6939299.87147  -5377832.40644  22992771.0314                   22992771.1884
 11  8 24  0 35  0.0000000  0  9G12G10G09G17G05G04G25G02G30
 -27519615.94548 -21415385.40646  20891891.6174                   20891889.3794
 -31747295.59048 -24703377.51646  21091550.8134                   21091549.5164
 -14394720.52046 -11176598.72343  24566936.7734                   24566941.5164
 -38570465.40246 -30026824.87544  23822462.4454                   23822463.4924
 -24688707.82448 -19208459.67246  21007563.3524                   21007562.1374
 -34920381.24247 -26831058.91044  22618204.9694                   22618204.9924
  -8617696.50047  -6686588.07445  23048567.8674                   23048569.2344
 -37200736.96548 -28957474.55146  20698696.4694                   20698693.1054
  -7058596.14847  -5470790.48844  22970070.4614                   22970070.0514
 11  8 24  0 35 30.0000000  0  9G12G10G09G17G05G04G25G02G30
 -27587179.05548 -21468031.97746  20879034.9064                   20879032.9494
 -31744708.84448 -24701361.85246  21092043.1564                   21092042.0474
 -14349987.25046 -11141741.69543  24575449.7664                   24575453.4654
 -38544810.75446 -30006834.30544  23827344.0234                   23827345.2664
 -24790975.41848 -19288148.63746  20988102.2664                   20988101.0704
 -34875719.87147 -26796257.88344  22626703.6174                   22626703.7424
  -8738760.89547  -6780923.88744  23025530.2114                   23025531.1604
 -37222273.44548 -28974256.23046  20694598.0634                   20694594.6644
  -7177445.60947  -5563400.38744  22947453.8134                   22947453.8244
 11  8 24  0 36  0.0000000  0  9G12G10G09G17G05G04G25G02G30
 -27654165.12948 -21520228.90646  20866287.9774                   20866285.9304
 -31741501.94548 -24698862.96146  21092653.3134                   21092652.1374
 -14305254.07446 -11106884.81243  24583962.7814                   24583966.1334
 -38518938.33246 -29986674.03944  23832267.4224                   23832268.7934
 -24892742.77048 -19367447.80146  20968736.6174                   20968735.4614
 -34830996.66447 -26761408.67244  22635214.4304                   22635214.5704
  -8859457.16047  -6874972.85245  23002562.1954                   23002563.3794
 -37243564.73848 -28990846.85546  20690546.6334                   20690542.9614
  -7295860.54747  -5655671.71144  22924920.2274                   22924919.7544
 11  8 24  0 36 30.0000000  0  9G12G10G09G17G05G04G25G02G30
 -27720542.17248 -21571951.27046  20853656.6414                   20853654.3094
 -31737646.12148 -24695858.41046  21093387.1024                   21093385.8244
 -14260494.03946 -11072006.94543  24592479.6484                   24592483.8834
 -38492817.68046 -29966320.32444  23837238.2194                   23837239.1134
 -24993977.82448 -19446332.19146  20949472.0864                   20949471.1134
 -34786182.77347 -26726488.80544  22643742.2664                   22643742.2704
  -8979752.66047  -6968709.52745  22979670.7424                   22979672.0594
 -37264582.21948 -29007224.10946  20686547.0234                   20686543.1254
  -7413808.39846  -5747579.05144  22902475.3204                   22902475.3484
 11  8 24  0 37  0.0000000  0  9G12G10G09G17G05G04G25G02G30
 -27786327.93448 -21623212.89846  20841137.9774                   20841135.5664
 -31733161.21948 -24692363.67246  21094240.2584                   21094239.2734
 -14215728.89146 -11037125.11343  24600997.9694                   24601002.5084
 -38466467.13346 -29945787.52344  23842252.4224                   23842253.5274
 -25094696.91448 -19524814.52346  20930306.0394                   20930305.0944
 -34741297.94947 -26691513.65644  22652283.6174                   22652283.5314
  -9099663.31247  -7062146.32045  22956852.3134                   22956853.7974
 -37285345.46948 -29023403.27746  20682595.6174                   20682592.3954
  -7531304.84047  -5839134.65244  22880116.2814                   22880116.3244
 11  8 24  0 37 30.0000000  0  9G12G10G09G17G05G04G25G02G30
 -27851522.05548 -21674013.49646  20828732.1094                   20828730.0044
 -31728050.19548 -24688381.03946  21095213.1564                   21095211.8554
 -14170962.90247 -11002242.62143  24609517.6724                   24609521.6454
 -38439887.68446 -29925076.32844  23847310.6094                   23847311.9774
 -25194899.25848 -19602894.20746  20911238.0784                   20911237.2114
 -34696344.76647 -26656485.24644  22660838.1644                   22660837.5084
  -9219187.77047  -7155282.19145  22934108.1094                   22934109.2274
 -37305856.80548 -29039386.12946  20678692.5554                   20678688.9264
  -7648348.65647  -5930337.56644  22857843.8054                   22857843.3404
 11  8 24  0 38  0.0000000  0  9G12G10G09G17G05G04G25G02G30
 -27916119.47748 -21724349.14846  20816439.4454                   20816436.9104
 -31722310.91848 -24683908.86346  21096305.1644                   21096303.9534
 -14126195.05947 -10967358.64843  24618036.3594                   24618040.6954
 -38413075.48447 -29904183.77344  23852412.7424                   23852414.0704
 -25294578.93748 -19680566.61746  20892269.6094                   20892268.3834
 -34651320.96147 -26621401.81644  22669405.7664                   22669405.1454
  -9338319.63347  -7248112.15245  22911437.6334                   22911438.6914
 -37326113.72748 -29055170.74246  20674838.1564                   20674834.5234
  -7764933.43047  -6021182.79744  22835658.6334                   22835658.3244
 11  8 24  0 38 30.0000000  0  9G12G10G09G17G05G04G25G02G30
 -27980113.87148 -21774214.91046  20804261.7894                   20804259.7344
 -31715940.16448 -24678944.63346  21097517.5634                   21097516.4964
 -14081423.63347 -10932471.91443  24626556.3444                   24626560.3164
 -38386025.36846 -29883105.82744  23857560.3524                   23857561.6484
 -25393728.94548 -19757826.30146  20873401.7664                   20873400.5554
 -34606223.12147 -26586260.68744  22677987.4694                   22677987.8204
  -9457051.35247  -7340630.32045  22888843.6484                   22888844.9304
 -37346112.61348 -29070754.28546  20671032.4614                   20671028.7424
  -7881051.59447  -6111664.41444  22813561.9304                   22813561.8164
 11  8 24  0 39  0.0000000  0  9G12G10G09G17G05G04G25G02G30
 -28043515.72348 -21823618.92646  20792196.5704                   20792194.8404
 -31708951.41048 -24673498.83246  21098847.2664                   21098846.2624
 -14036663.18047 -10897593.69143  24635073.5784                   24635077.3634
 -38358748.71546 -29861851.37544  23862750.2114                   23862752.0124
 -25492358.73448 -19834680.61746  20854633.1804                   20854632.1374
 -34561063.75047 -26551071.62944  22686581.0314                   22686580.9654
  -9575392.02047  -7432843.77345  22866324.4924                   22866325.5744
 -37365866.07848 -29086146.59046  20667273.1884                   20667269.8484
  -7996712.19547  -6201789.50044  22791552.2664                   22791551.5434
 11  8 24  0 39 30.0000000  0  9G12G10G09G17G05G04G25G02G30
 -28106316.77748 -21872554.78946  20780246.2114                   20780243.9534
 -31701339.02048 -24667567.08246  21100296.0394                   21100294.7424
 -13991909.56647 -10862720.83643  24643590.8524                   24643594.1764
 -38331237.96547 -29840414.48844  23867985.7664                   23867987.1604
 -25590459.22348 -19911122.48846  20835965.3674                   20835964.1134
 -34515837.44947 -26515830.40244  22695187.3984                   22695187.2894
  -9693331.99647  -7524745.01245  22843880.1644                   22843882.2384
 -37385368.40648 -29101343.19546  20663562.3134                   20663559.1374
  -8111905.66047  -6291550.56644  22769631.5704                   22769631.1844
 11  8 24  0 40  0.0000000  0  9G12G10G09G17G05G04G25G02G30
 -28168519.55148 -21921024.48046  20768409.4304                   20768406.6054
 -31693108.43447 -24661153.63745  21101862.4924                   21101861.5084
 -13947169.42246 -10827858.46543  24652103.8444                   24652107.5744
 -38303496.87546 -29818798.11743  23873265.0784                   23873266.8164
 -25688032.07448 -19987153.22746  20817397.7974                   20817396.4024
 -34470549.04747 -26480540.77044  22703805.6804                   22703805.3834
  -9810872.42647  -7616334.90645  22821513.6804                   22821515.2464
 -37404624.68048 -29116348.07846  20659897.7584                   20659894.3634
  -8226633.11347  -6380948.53144  22747799.7894                   22747799.2154
 11  8 24  0 40 30.0000000  0  9G12G10G09G17G05G04G25G02G30
 -28230124.49248 -21969028.31246  20756686.2664                   20756683.9224
 -31684262.87547 -24654260.99246  21103545.8364                   21103544.3014
 -13902447.39146 -10793010.21543  24660614.1724                   24660618.1254
 -38275526.71546 -29797003.25844  23878587.3054                   23878589.3834
 -25785076.57848 -20062772.26646  20798930.4774                   20798929.4144
 -34425201.26647 -26445204.88344  22712435.1414                   22712435.1994
  -9928012.20347  -7707612.62145  22799222.8284                   22799224.1254
 -37423637.55148 -29131163.28946  20656279.9694                   20656276.2344
  -8340893.55547  -6469982.57444  22726056.5164                   22726056.2974
 11  8 24  0 41  0.0000000  0  9G12G10G09G17G05G04G25G02G30
 -28291137.71148 -22016571.06246  20745075.7894                   20745073.8594
 -31674812.07448 -24646896.71946  21105344.1724                   21105342.8554
 -13857754.16846 -10758184.41443  24669119.4614                   24669123.8674
 -38247335.10546 -29775035.84044  23883952.6174                   23883953.8134
 -25881599.00848 -20137984.48846  20780562.9144                   20780561.5044
 -34379803.41047 -26409829.95344  22721074.0234                   22721074.2034
 -10044756.64847  -7798582.29745  22777006.9064                   22777008.1684
 -37442415.71148 -29145795.60246  20652706.3754                   20652703.0314
  -8454692.18047  -6558656.77044  22704401.7344                   22704400.9224
 11  8 24  0 41 30.0000000  0  9G12G10G09G17G05G04G25G02G30
 -28351534.21548 -22063633.25446  20733582.7274                   20733580.7504
 -31664733.16848 -24639043.03146  21107262.0004                   21107260.9804
 -13813068.19946 -10723364.28543  24677623.3594                   24677627.8954
 -38218897.07846 -29752876.42243  23889363.8364                   23889365.1254
 -25977573.09448 -20212769.43446  20762299.5314                   20762298.1804
 -34334332.00047 -26374397.72744  22729726.6954                   22729727.5434
 -10161078.48448  -7889222.66045  22754871.2974                   22754872.8754
 -37460935.68048 -29160226.74246  20649182.0944                   20649178.5744
  -8568001.80147  -6646949.92644  22682839.0314                   22682838.1024
 11  8 24  0 42  0.0000000  0  9G12G10G09G17G05G04G25G02G30
 -28411322.29748 -22110221.34846  20722205.5314                   20722203.2584
 -31654037.82448 -24630708.99246  21109296.9454                   21109295.8594
 -13768402.29346 -10688559.76643  24686122.8444                   24686127.4024
 -38190222.78146 -29730532.87143  23894820.3444                   23894822.1764
 -26073006.12948 -20287132.78946  20744139.3364                   20744138.2074
 -34288798.19947 -26338916.88744  22738391.8364                   22738391.6024
 -10276985.12148  -7979539.49245  22732815.5164                   22732816.6644
 -37479208.78548 -29174465.51646  20645704.9224                   20645701.5904
  -8680829.88347  -6734867.87544  22661368.8444                   22661367.6414
 11  8 24  0 42 30.0000000  0  9G12G10G09G17G05G04G25G02G30
 -28470503.71548 -22156336.73446  20710943.6094                   20710941.6454
 -31642730.44548 -24621898.04746  21111448.7344                   21111447.5004
 -13723762.06246 -10653775.26243  24694617.7664                   24694622.4884
 -38161314.50446 -29708007.00843  23900321.7114                   23900323.4694
 -26167898.91048 -20361075.16046  20726081.7974                   20726080.4264
 -34243205.98847 -26303390.52344  22747067.7424                   22747067.5434
 -10392476.69947  -8069532.89145  22710837.9304                   22710839.3874
 -37497238.97748 -29188514.99246  20642274.0474                   20642270.1294
  -8793176.61347  -6822410.72744  22639989.6954                   22639988.9264
 11  8 24  0 43  0.0000000  0  9G12G10G09G17G05G04G25G02G30
 -28529084.78148 -22201984.29746  20699796.4614                   20699794.4654
 -31630820.40648 -24612617.50046  21113715.5704                   21113714.2194
 -13679157.71546 -10619018.74243  24703105.4144                   24703110.4144
 -38132179.33246 -29685304.34044  23905866.0004                   23905867.8284
 -26262257.07448 -20434600.94946  20708126.0314                   20708125.0864
 -34197564.02747 -26267825.39144  22755752.8674                   22755753.3054
 -10507558.07047  -8159206.65245  22688938.3204                   22688939.6644
 -37515034.55548 -29202381.66046  20638887.4304                   20638883.9224
  -8905046.81247  -6909582.25044  22618701.7344                   22618700.5124
 11  8 24  0 43 30.0000000  0  9G12G10G09G17G05G04G25G02G30
 -28587055.57448 -22247156.31646  20688764.7034                   20688762.5274
 -31618300.46948 -24602861.69546  21116097.8134                   21116096.3164
 -13634583.36346 -10584285.57443  24711588.0864                   24711593.4734
 -38102808.17646 -29662417.76644  23911455.4144                   23911456.7344
 -26356069.55148 -20507701.52346  20690274.0394                   20690272.7894
 -34151864.53947 -26232215.40644  22764449.3364                   22764449.2544
 -10622217.73847  -8248551.81245  22667119.3594                   22667120.6644
 -37532587.93448 -29216059.60946  20635547.0314                   20635543.6804
  -9016429.09447  -6996373.58244  22597506.0234                   22597505.5474
 11  8 24  0 44  0.0000000  0  8G12G10G17G05G04G25G02G30
 -27068994.56248 -21064251.62146  20977641.8754                   20977639.6174
 -30029754.84848 -23365033.93746  21418388.2584                   21418387.0314
 -36497783.18746 -28411748.97344  24216880.5234                   24216882.5634
 -24873913.07848 -19352774.35246  20972319.0944                   20972317.7974
 -32530691.74247 -24968963.89144  23072948.3444                   23072948.5664
  -9161031.01247  -7109964.70345  22945173.4844                   22945174.8874
 -35974481.28948 -28001950.50846  20932044.7504                   20932041.2034
  -7551898.87947  -5855181.14544  22876197.2734                   22876196.5124
 11  8 24  0 44 30.0000000  0  8G12G10G17G05G04G25G02G30
 -27125755.87948 -21108481.21146  20966840.5004                   20966838.0984
 -30016035.72748 -23354343.71946  21420998.5164                   21420997.7114
 -36467953.97346 -28388505.46543  24222557.2424                   24222559.1054
 -24966643.40248 -19425031.69546  20954673.0314                   20954671.2154
 -32484895.23847 -24933278.34444  23081663.2664                   23081663.2934
  -9274854.07047  -7198657.93745  22923513.9384                   22923515.4064
 -35991567.82448 -28015264.67246  20928793.5164                   20928789.5044
  -7662312.22747  -5941217.47344  22855186.1414                   22855185.4924
 11  8 24  0 45  0.0000000  0  8G12G10G17G05G04G25G02G30
 -27181903.16048 -21152232.31646  20956156.0864                   20956154.2194
 -30001711.64848 -23343182.10546  21423724.3984                   21423723.5234
 -36437887.61746 -28365077.19944  24228278.9924                   24228281.0594
 -25058821.62548 -19496858.83646  20937131.8524                   20937130.5744
 -32439043.88347 -24897550.04744  23090388.6644                   23090388.3554
  -9388247.12147  -7287016.10545  22901935.9694                   22901937.4804
 -36008414.93048 -28028392.25446  20925587.7504                   20925583.9884
  -7772229.46947  -6026867.21945  22834269.5084                   22834268.9414
 11  8 24  0 45 30.0000000  0  8G12G10G17G05G04G25G02G30
 -27237428.22348 -21195498.58246  20945590.1954                   20945588.1524
 -29986777.53548 -23331545.14146  21426566.3444                   21426565.4654
 -36407577.10946 -28341458.64544  24234046.2274                   24234048.8364
 -25150439.30148 -19568249.18746  20919697.4924                   20919696.1564
 -32393132.21947 -24861774.76644  23099125.4144                   23099125.5704
  -9501200.69947  -7375031.82445  22880441.9304                   22880443.0634
 -36025016.89548 -28041328.83246  20922428.4774                   20922425.1054
  -7881641.22347  -6112123.06644  22813448.7664                   22813448.3364
 11  8 24  0 46  0.0000000  0  8G12G10G17G05G04G25G02G30
 -27292329.60948 -21238278.86746  20935142.5634                   20935140.5084
 -29971234.80148 -23319433.92645  21429524.5164                   21429523.0394
 -36377021.53546 -28317649.13344  24239861.0164                   24239863.6954
 -25241493.97748 -19639200.83246  20902370.7894                   20902369.1374
 -32347160.59847 -24825952.75444  23107873.4774                   23107873.1644
  -9613711.75847  -7462702.71545  22859031.4224                   22859032.6884
 -36041374.09448 -28054074.67646  20919315.1724                   20919311.9414
  -7990544.40247  -6196982.63345  22792725.2194                   22792724.6024
 11  8 24  0 46 30.0000000  0  8G12G10G17G05G04G25G02G30
 -27346618.23048 -21280581.68446  20924811.7114                   20924809.7384
 -29955097.20747 -23306859.16445  21432595.1024                   21432593.6134
 -36346232.47746 -28293657.69144  24245720.4694                   24245722.3204
 -25331995.32448 -19709721.31646  20885148.7504                   20885147.2504
 -32301141.75447 -24790093.96544  23116630.8754                   23116630.8874
  -9725789.23047  -7550035.73845  22837703.9694                   22837705.3594
 -36057498.91848 -28066639.44546  20916247.0864                   20916243.5664
  -8098948.09847  -6281452.99244  22772096.7664                   22772096.3594
 11  8 24  0 47  0.0000000  0  8G12G10G17G05G04G25G02G30
 -27400288.58248 -21322402.71946  20914598.9224                   20914596.8364
 -29938362.14848 -23293818.84846  21435779.4774                   21435777.8754
 -36315205.39547 -28269480.78544  24251625.1724                   24251626.2854
 -25421937.27048 -19779805.89846  20868033.2734                   20868031.9844
 -32255072.55547 -24754195.93044  23125397.0394                   23125397.2074
  -9837426.20747  -7637025.51245  22816459.9144                   22816461.3834
 -36073388.48048 -28079020.88746  20913223.5554                   20913219.6374
  -8206845.44147  -6365528.79745  22751564.3524                   22751563.5664
 11  8 24  0 47 30.0000000  0  8G12G10G17G05G04G25G02G30
 -27453335.44548 -21363737.92246  20904504.1024                   20904502.1884
 -29921027.43048 -23280311.28146  21439078.1954                   21439076.8634
 -36283935.82847 -28245114.95744  24257574.8984                   24257577.1024
 -25511313.55548 -19849449.71146  20851025.6334                   20851024.1914
 -32208949.59446 -24718256.02744  23134173.5554                   23134173.6994
  -9948615.98447  -7723666.82845  22795301.1334                   22795302.2464
 -36089039.36348 -28091216.35246  20910244.9774                   20910241.5234
  -8314229.79747  -6449204.86745  22731130.1414                   22731129.1724
 11  8 24  0 48  0.0000000  0  8G12G10G17G05G04G25G02G30
 -27505764.59048 -21404591.78146  20894527.2424                   20894525.1134
 -29903102.16448 -23266343.53545  21442489.1254                   21442488.3404
 -36252430.64147 -28220565.48844  24263570.3134                   24263571.9144
 -25600129.63348 -19918656.97746  20834123.9064                   20834123.1214
 -32162781.24247 -24682280.73844  23142960.1254                   23142959.8834
 -10059363.14847  -7809963.24645  22774226.4534                   22774227.9024
 -36104459.78548 -28103232.23446  20907310.5864                   20907307.0514
  -8421105.88347  -6532484.86345  22710791.8204                   22710791.4144
 11  8 24  0 48 30.0000000  0  8G12G10G17G05G04G25G02G30
 -27557586.27048 -21444972.31646  20884665.9454                   20884663.9964
 -29884598.81248 -23251925.35945  21446010.3524                   21446009.0164
 -36220700.07447 -28195840.44143  24269608.9694                   24269610.3954
 -25688393.80548 -19987434.20746  20817328.2344                   20817326.8244
 -32116578.65247 -24646278.78544  23151752.0164                   23151751.5394
 -10169675.39147  -7895920.78545  22753235.0864                   22753236.1764
 -36119661.15248 -28115077.44546  20904418.2504                   20904414.6914
  -8527481.39547  -6615374.84045  22690549.2664                   22690548.5704
 11  8 24  0 49  0.0000000  0  8G12G10G17G05G04G25G02G30
 -27608796.06248 -21484876.03946  20874921.2974                   20874919.2584
 -29865516.03948 -23237055.67245  21449641.8054                   21449640.1454
 -36188740.87546 -28170937.21143  24275689.8594                   24275691.9884
 -25776101.40648 -20055777.74246  20800637.9064                   20800636.3634
 -32070339.73047 -24610248.51244  23160550.9534                   23160551.2664
 -10279547.22747  -7981535.14845  22732327.1094                   22732328.2934
 -36134641.46548 -28126750.39546  20901567.3204                   20901563.6334
  -8633350.97747  -6697870.57045  22670403.2194                   22670402.5784
 11  8 24  0 49 30.0000000  0  8G12G10G17G05G04G25G02G30
 -27659391.23448 -21524300.83646  20865292.9064                   20865291.1994
 -29845854.14148 -23221734.70745  21453383.2974                   21453381.7504
 -36156551.32446 -28145854.45743  24281815.5314                   24281817.8324
 -25863248.85948 -20123684.78946  20784054.5634                   20784053.0744
 -32024063.86747 -24574189.44144  23169356.9454                   23169357.0594
 -10388974.27347  -8066802.93045  22711503.4924                   22711504.7544
 -36149399.92648 -28138250.47346  20898758.9304                   20898755.2234
  -8738710.43447  -6779968.80945  22650353.7734                   22650353.1024
 11  8 24  0 50  0.0000000  0  8G12G10G17G05G04G25G02G30
 -27709368.31248 -21563244.00046  20855782.7194                   20855780.3714
 -29825612.41447 -23205961.93745  21457235.1564                   21457233.2304
 -36124128.02046 -28120589.56243  24287985.2504                   24287987.6724
 -25949831.57448 -20191151.79346  20767578.1484                   20767576.4614
 -31977749.24647 -24538100.17644  23178169.7664                   23178170.3594
 -10497951.22347  -8151719.98045  22690765.9924                   22690767.1484
 -36163934.80148 -28149576.34446  20895992.9384                   20895989.1484
  -8843554.35047  -6861665.31445  22630402.8204                   22630401.9454
 11  8 24  0 50 30.0000000  0  8G12G10G17G05G04G25G02G30
 -27758731.41848 -21601708.75046  20846389.5164                   20846387.3444
 -29804797.73848 -23189742.69945  21461195.4454                   21461194.5634
 -36091476.08646 -28095146.54743  24294199.7194                   24294201.2704
 -26035852.74248 -20258181.21946  20751209.0784                   20751207.4534
 -31931401.59447 -24501985.17244  23186990.1954                   23186990.3674
 -10606480.43747  -8236288.14845  22670113.3444                   22670114.6844
 -36178251.85948 -28160732.47746  20893268.4384                   20893264.8204
  -8947885.32447  -6942962.13745  22610549.2194                   22610548.5044
 11  8 24  0 51  0.0000000  0  8G12G10G17G05G04G25G02G30
 -27807471.59848 -21639688.10946  20837114.1334                   20837112.5044
 -29783403.98047 -23173072.24245  21465266.6954                   21465265.7074
 -36058587.06646 -28069518.72343  24300457.1884                   24300459.5164
 -26121302.85948 -20324765.67647  20734948.2034                   20734946.9574
 -31885013.78547 -24465838.86744  23195817.0474                   23195817.7194
 -10714551.25447  -8320499.13345  22649548.2114                   22649549.8444
 -36192344.37548 -28171713.64546  20890586.7274                   20890583.1604
  -9051692.85947  -7023851.07445  22590795.2894                   22590794.4304
 11  8 24  0 51 30.0000000  0  8G12G10G17G05G04G25G02G30
 -27855593.91448 -21677186.00846  20827956.9614                   20827955.0944
 -29761438.93047 -23155956.62945  21469446.8204                   21469445.6214
 -36025466.53946 -28043710.56243  24306760.4924                   24306762.5824
 -26206185.46548 -20390907.90646  20718795.5004                   20718794.0314
 -31838592.66847 -24429666.62944  23204651.0474                   23204651.4184
 -10822166.86748  -8404355.39845  22629070.1644                   22629071.0474
 -36206218.69948 -28182524.78946  20887946.4694                   20887942.9414
  -9154980.11347  -7104334.61745  22571140.0634                   22571140.1604
 11  8 24  0 52  0.0000000  0  8G12G10G17G05G04G25G02G30
 -27903093.04348 -21714198.30946  20818918.2034                   20818916.2344
 -29738900.15647 -23138393.94945  21473735.8054                   21473734.7704
 -35992109.70346 -28017718.23043  24313107.3444                   24313109.6054
 -26290494.94948 -20456603.55946  20702751.8524                   20702750.5744
 -31792134.62947 -24393465.58644  23213491.7504                   23213492.0744
 -10929320.32447  -8487851.55945  22608678.9774                   22608680.1484
 -36219871.49248 -28193163.32846  20885348.3754                   20885344.7894
  -9257740.35547  -7184407.48845  22551585.4844                   22551585.4614
 11  8 24  0 52 30.0000000  0  8G12G10G17G05G04G25G02G30
 -27949967.06248 -21750723.53146  20809998.0394                   20809996.2854
 -29715789.17247 -23120385.39545  21478133.8054                   21478132.7894
 -35958515.67246 -27991541.11743  24319500.9844                   24319502.6374
 -26374228.59448 -20521850.50046  20686817.8524                   20686816.2734
 -31745639.41447 -24357235.56644  23222339.9774                   23222339.9494
 -11036008.18448  -8570984.91045  22588376.9774                   22588378.0204
 -36233302.79348 -28203629.27346  20882792.7034                   20882788.8054
  -9359970.21947  -7264067.08645  22532131.5234                   22532130.9344
 11  8 24  0 53  0.0000000  0  8G12G10G17G05G04G25G02G30
 -27996218.75048 -21786763.79746  20801196.9774                   20801195.3134
 -29692111.16048 -23101935.00045  21482639.8524                   21482638.2114
 -35924687.57046 -27965181.57443  24325937.8674                   24325939.9224
 -26457387.80948 -20586649.84047  20670993.2114                   20670991.9104
 -31699111.37947 -24320979.96944  23231193.5634                   23231194.0984
 -11142231.26247  -8653756.08645  22568162.7504                   22568164.4104
 -36246516.68748 -28213925.80946  20880278.2114                   20880274.3984
  -9461670.69547  -7343314.16045  22512778.5164                   22512777.7814
 11  8 24  0 53 30.0000000  0  8G12G10G17G05G04G25G02G30
 -28041860.56248 -21822328.84446  20792511.4534                   20792509.6024
 -29667881.30948 -23083054.59845  21487250.2814                   21487248.6524
 -35890638.57846 -27938649.90643  24332417.0784                   24332418.7154
 -26539984.05148 -20651010.50047  20655275.4694                   20655273.6604
 -31652564.68447 -24284709.83644  23240050.6024                   23240051.1954
 -11248000.22347  -8736173.41845  22548036.4384                   22548037.0984
 -36259527.49248 -28224064.10246  20877802.2504                   20877798.6604
  -9562852.52747  -7422157.09045  22493524.6484                   22493523.5904
 11  8 24  0 54  0.0000000  0  8G12G10G17G05G04G25G02G30
 -28086881.10548 -21857409.77346  20783944.3204                   20783942.7304
 -29643090.85548 -23063737.35545  21491967.4064                   21491966.3914
 -35856357.54346 -27911937.43443  24338940.7814                   24338943.2544
 -26622004.98048 -20714922.86747  20639667.6174                   20639665.7304
 -31605989.15647 -24248417.24244  23248914.0004                   23248914.4454
 -11353301.79747  -8818226.53945  22527998.1334                   22527999.2424
 -36272325.27348 -28234036.39546  20875366.9064                   20875363.3674
  -9663502.60547  -7500585.67644  22474371.3054                   22474370.6374
 11  8 24  0 54 30.0000000  0  8G12G10G17G05G04G25G02G30
 -28131266.06248 -21891995.44946  20775498.3204                   20775496.1564
 -29617728.34048 -23043974.37145  21496794.0004                   21496793.2074
 -35821830.48846 -27885033.25444  24345511.0084                   24345513.4064
 -26703435.63748 -20778375.28146  20624171.6094                   20624169.8444
 -31559372.30547 -24212092.43444  23257784.9924                   23257784.9884
 -11458119.94147  -8899902.96945  22508051.6724                   22508052.8324
 -36284897.59848 -28243833.01646  20872974.3674                   20872970.9654
  -9763604.94147  -7578587.43744  22455322.6094                   22455321.6294
 11  8 24  0 55  0.0000000  0  8G12G10G17G05G04G25G02G30
 -28175023.96548 -21926092.50046  20767171.2664                   20767169.4774
 -29591805.17248 -23023774.49645  21501727.2734                   21501725.8364
 -35787067.05546 -27857944.87544  24352126.6804                   24352128.3444
 -26784283.35948 -20841373.46146  20608786.7664                   20608785.6174
 -31512723.73847 -24175742.93044  23266661.6804                   23266662.0084
 -11562461.10547  -8981207.71945  22488196.3914                   22488197.3444
 -36297254.13748 -28253461.50446  20870623.1024                   20870619.2194
  -9863166.29347  -7656167.66444  22436376.6884                   22436375.7774
 11  8 24  0 55 30.0000000  0  9G12G10G29G17G05G04G25G02G30
 -28218169.75448 -21959712.58646  20758961.2664                   20758959.3204
 -29565339.37947 -23003151.80545  21506763.6414                   21506762.6134
   4557725.55157   3585992.78553  24628411.6174                   24628412.6214
 -35752082.72747 -27830684.39144  24358783.9694                   24358786.0274
 -26864562.75848 -20903928.78547  20593510.1644                   20593508.6604
 -31466060.60247 -24139382.06644  23275541.3984                   23275542.3324
 -11666338.95747  -9062151.46145  22468428.9144                   22468429.5354
 -36309411.94148 -28262935.12146  20868309.7194                   20868305.4844
  -9962200.37947  -7733337.02044  22417530.9924                   22417529.7504
 11  8 24  0 56  0.0000000  0  9G12G10G29G17G05G04G25G02G30
 -28260706.39848 -21992858.00046  20750866.6484                   20750864.6844
 -29538336.42247 -22982110.54745  21511901.7424                   21511900.4734
   4443065.65247   3496647.48843  24606592.5474                   24606593.4144
 -35716880.81247 -27803254.34444  24365482.7504                   24365484.6804
 -26944275.42248 -20966042.50447  20578341.1724                   20578339.7274
 -31419386.66447 -24103012.79544  23284423.7814                   23284423.8794
 -11769754.17647  -9142734.70345  22448749.5784                   22448750.4654
 -36321375.05948 -28272257.03546  20866033.0704                   20866029.5664
 -10060708.05947  -7810096.19145  22398785.5394                   22398784.5274
 11  8 24  0 56 30.0000000  0  9G12G10G29G17G05G04G25G02G30
 -28302627.42248 -22025523.71146  20742889.8674                   20742887.2624
 -29510792.58247 -22960647.81245  21517143.0634                   21517142.2074
   4328360.84047   3407267.18043  24584764.6564                   24584765.0864
 -35681454.78547 -27775649.64144  24372223.5864                   24372226.0124
 -27023413.58248 -21027708.56247  20563281.7194                   20563280.5434
 -31372696.85247 -24066631.16844  23293308.6414                   23293308.9024
 -11872698.33647  -9222950.88745  22429159.7114                   22429161.2194
 -36333138.40648 -28281423.30546  20863794.2894                   20863791.3914
 -10158681.10947  -7886438.77745  22380141.7194                   22380140.6094
 11  8 24  0 57  0.0000000  0  9G12G10G29G17G05G04G25G02G30
 -28343930.73448 -22057708.08646  20735029.3444                   20735027.3754
 -29482708.83647 -22938764.38345  21522487.4774                   21522486.4024
   4213613.18047   3317853.52343  24562929.4454                   24562929.6844
 -35645803.60247 -27747869.50844  24379008.5084                   24379010.3834
 -27101974.62148 -21088924.91047  20548332.2114                   20548330.6564
 -31325990.61746 -24030236.73044  23302196.5004                   23302196.5124
 -11975167.77347  -9302797.16045  22409660.5474                   22409661.5634
 -36344701.64148 -28290433.62146  20861594.4144                   20861590.2854
 -10256115.93747  -7962361.97345  22361601.0234                   22361599.6024
 11  8 24  0 57 30.0000000  0  9G12G10G29G17G05G04G25G02G30
 -28384614.59048 -22089409.77046  20727287.6094                   20727285.1844
 -29454085.95347 -22916460.84845  21527934.6884                   21527932.8674
   4098824.68846   3228408.04343  24541085.4454                   24541086.0434
 -35609925.67647 -27719912.67644  24385835.3054                   24385837.0824
 -27179955.95748 -21149689.54347  20533492.5554                   20533491.2934
 -31279267.42246 -23993829.07044  23311087.2274                   23311087.6254
 -12077158.71548  -9382270.58245  22390252.3364                   22390253.3204
 -36356064.41848 -28299287.74646  20859431.8834                   20859428.2274
 -10353009.04747  -8037863.03145  22343162.3834                   22343161.3834
 11  8 24  0 58  0.0000000  0  9G12G10G29G17G05G04G25G02G30
 -28424700.62548 -22120645.62546  20719659.3444                   20719657.5204
 -29424947.99248 -22893755.93745  21533479.0944                   21533477.6214
   3983974.05946   3138914.15243  24519230.3834                   24519229.9534
 -35573842.96947 -27691796.27343  24392702.0084                   24392703.6684
 -27257378.08248 -21210018.43047  20518759.8444                   20518758.1454
 -31232550.08246 -23957425.95344  23319977.1804                   23319977.3524
 -12178690.79347  -9461386.44945  22370931.4924                   22370932.0204
 -36367249.75848 -28308003.60246  20857303.5234                   20857299.7384
 -10449380.17247  -8112957.36745  22324823.3834                   22324822.2734
 11  8 24  0 58 30.0000000  0  9G12G10G29G17G05G04G25G02G30
 -28464164.50848 -22151396.67646  20712149.7504                   20712147.7034
 -29395273.48448 -22870632.94145  21539125.7504                   21539124.6804
   3869086.00446   3049391.12143  24497367.0634                   24497368.0474
 -35537531.10246 -27663501.30143  24399611.3674                   24399614.3874
 -27334215.38348 -21269891.61347  20504138.2194                   20504136.4064
 -31185815.42246 -23921009.37144  23328870.5554                   23328871.3134
 -12279737.77347  -9540124.31645  22351702.2894                   22351703.9184
 -36378234.67648 -28316563.29346  20855213.2894                   20855209.2114
 -10545203.33647  -8187624.72745  22306589.4224                   22306588.5204
 11  8 24  0 59  0.0000000  0  9G12G10G29G17G05G04G25G02G30
 -28503009.55948 -22181665.52346  20704757.8444                   20704755.1334
 -29365068.27748 -22847096.41845  21544873.7274                   21544872.4694
   3754157.00846   2959836.16843  24475496.8674                   24475497.1764
 -35500994.78546 -27635031.44943  24406564.7114                   24406566.2734
 -27410470.82848 -21329311.39147  20489627.2274                   20489625.4804
 -31139068.11746 -23884582.94144  23337766.3444                   23337766.6174
 -12380301.00047  -9618485.24645  22332566.3524                   22332567.1884
 -36389023.61348 -28324970.27046  20853160.1024                   20853156.4884
 -10640480.06647  -8261866.28945  22288458.6024                   22288457.6294
 11  8 24  0 59 30.0000000  0  9G12G10G29G17G05G04G25G02G30
 -28541238.89148 -22211454.60246  20697483.0394                   20697480.9064
 -29334338.46148 -22823151.12545  21550721.6724                   21550720.7274
   3639184.82046   2870247.54343  24453618.0634                   24453618.9384
 -35464237.33646 -27606389.26243  24413558.9454                   24413561.1054
 -27486146.37148 -21388279.30946  20475226.5164                   20475224.9024
 -31092312.52746 -23848150.09844  23346664.1884                   23346664.4654
 -12480381.75047  -9696470.22345  22313521.6724                   22313522.7544
 -36399621.20748 -28333228.14546  20851143.3594                   20851139.5634
 -10735211.71147  -8335683.11345  22270431.4694                   22270430.7234
 11  8 24  1  0  0.0000000  0  9G12G10G29G17G05G04G25G02G30
 -28578874.30948 -22240780.88346  20690321.1024                   20690319.0634
 -29303109.22748 -22798816.66845  21556664.3754                   21556662.9614
   3524147.35946   2780608.05143  24431727.3364                   24431727.9654
 -35427280.88346 -27577592.04343  24420592.0784                   24420592.9614
 -27561263.06648 -21446811.75847  20460932.1724                   20460930.6134
 -31045571.90646 -23811728.91444  23355558.1804                   23355558.4344
 -12580000.23847  -9774094.98845  22294564.6954                   22294565.3404
 -36410051.03148 -28341355.28546  20849158.6024                   20849154.7344
 -10829418.72747  -8409091.13745  22252504.1254                   22252503.5084
 11  8 24  1  0 30.0000000  0  9G12G10G29G17G05G04G25G02G30
 -28615889.75848 -22269624.07046  20683277.4774                   20683275.1764
 -29271356.17248 -22774074.03545  21562706.8204                   21562705.7384
   3409071.99246   2690939.05143  24409829.3834                   24409829.8554
 -35390098.84046 -27548619.04343  24427666.5944                   24427669.0554
 -27635793.41048 -21504887.31647  20446749.4614                   20446747.5664
 -30998820.24247 -23775299.11344  23364454.4384                   23364455.2774
 -12679127.56647  -9851337.04745  22275701.1174                   22275702.2584
 -36420287.09048 -28349331.44146  20847210.8594                   20847207.0164
 -10923072.55547  -8482068.10545  22234682.5084                   22234681.9494
 11  8 24  1  1  0.0000000  0  8G12G10G29G05G04G25G02G30
 -28652278.02748 -22297978.55146  20676352.9454                   20676350.7504
 -29239074.88348 -22748919.79745  21568849.6334                   21568848.0664
   3293966.07046   2601246.21944  24387925.4384                   24387925.5824
 -27709729.29748 -21562499.65647  20432680.0784                   20432678.4454
 -30952051.80147 -23738856.25044  23373354.3524                   23373355.1884
 -12777754.78947  -9928189.40245  22256933.1334                   22256933.9384
 -36430323.84848 -28357152.28946  20845300.8834                   20845297.4734
 -11016164.28547  -8554607.08245  22216967.8204                   22216967.1844
 11  8 24  1  1 30.0000000  0  8G12G10G29G05G04G25G02G30
 -28688049.12148 -22325852.12546  20669546.0394                   20669543.5554
 -29206278.26247 -22723364.00845  21575090.8284                   21575089.3284
   3178819.93047   2511522.02044  24366014.6804                   24366013.7814
 -27783079.95748 -21619655.97747  20418721.8284                   20418720.1804
 -30905277.75847 -23702409.02044  23382255.3984                   23382255.7584
 -12875890.12147 -10004658.47345  22238258.7194                   22238259.4064
 -36440172.62548 -28364826.65646  20843426.4144                   20843422.9104
 -11108702.39847  -8626714.68445  22199358.2664                   22199357.5514
 11  8 24  1  2  0.0000000  0  8G12G10G29G05G04G25G02G30
 -28723203.02748 -22353244.77346  20662856.3834                   20662853.5474
 -29172968.47747 -22697408.35245  21581428.9064                   21581427.6724
   3063634.15246   2421766.94944  24344094.7194                   24344094.6644
 -27855844.33248 -21676355.45347  20404874.8834                   20404873.8324
 -30858498.75447 -23665957.91844  23391157.3444                   23391158.0044
 -12973531.30148 -10080742.48845  22219678.4304                   22219679.2194
 -36449834.29748 -28372355.23446  20841588.2344                   20841584.2704
 -11200684.89547  -8698389.33245  22181854.9924                   22181854.0204
 11  8 24  1  2 30.0000000  0  8G12G10G29G05G04G25G02G30
 -28757736.75048 -22380154.16046  20656284.7274                   20656282.5044
 -29139145.68047 -22671052.96145  21587865.3444                   21587864.0784
   2948412.20747   2331983.69544  24322168.8984                   24322169.0274
 -27928018.26648 -21732594.85547  20391140.8754                   20391139.2304
 -30811713.31646 -23629501.84044  23400060.6484                   23400060.9384
 -13070673.61747 -10156437.78145  22201192.6484                   22201193.3754
 -36459307.15648 -28379736.66846  20839785.5944                   20839781.8324
 -11292107.25847  -8769627.51645  22164457.9224                   22164456.6174
 11  8 24  1  3  0.0000000  0  8G12G10G29G05G04G25G02G30
 -28791642.88748 -22406574.52746  20649832.3984                   20649830.3754
 -29104804.86748 -22644293.90645  21594400.5474                   21594398.8244
   2833161.94547   2242178.36344  24300237.6484                   24300237.8404
 -27999593.85948 -21788368.00447  20377520.4454                   20377518.5554
 -30764914.70346 -23593035.46544  23408965.4614                   23408966.4964
 -13167307.53548 -10231736.92645  22182803.9774                   22182804.4144
 -36468585.28948 -28386966.37146  20838019.9224                   20838016.6414
 -11382960.14547  -8840421.95345  22147168.7424                   22147168.6804
 11  8 24  1  3 30.0000000  0  8G12G10G29G05G04G25G02G30
 -28824927.96148 -22432510.94546  20643498.4774                   20643496.7704
 -29069955.59048 -22617138.64545  21601032.1094                   21601030.9144
   2717877.43047   2152346.34044  24278299.5314                   24278299.6484
 -28070576.50848 -21843679.12947  20364012.8594                   20364011.1054
 -30718110.26646 -23556564.55544  23417872.7814                   23417873.1214
 -13263437.59448 -10306643.44145  22164510.7114                   22164511.4804
 -36477676.06648 -28394050.09446  20836290.0944                   20836286.7344
 -11473248.37547  -8910776.39545  22129987.6254                   22129986.7974
 11  8 24  1  4  0.0000000  0  8G12G10G29G05G04G25G02G30
 -28857590.76248 -22457962.48046  20637282.9534                   20637280.7774
 -29034598.94947 -22589588.04745  21607759.8984                   21607758.9884
   2602560.69547   2062489.20744  24256354.7424                   24256354.8874
 -28140963.86348 -21898526.39147  20350618.5554                   20350616.8594
 -30671299.55146 -23520088.73844  23426780.7344                   23426780.8324
 -13359060.36347 -10381154.66445  22146314.4384                   22146315.1294
 -36486579.03148 -28400987.45346  20834595.5704                   20834592.0514
 -11562968.62547  -8980688.25845  22112914.1564                   22112913.6564
 11  8 24  1  4 30.0000000  0  8G12G10G29G05G04G25G02G30
 -28889634.00048 -22482931.25446  20631185.6094                   20631183.4574
 -28998740.05147 -22561646.07845  21614583.7664                   21614582.4964
   2487209.96147   1972605.59044  24234404.7814                   24234404.6484
 -28210757.60548 -21952911.09047  20337337.4224                   20337335.7974
 -30624485.64847 -23483610.44544  23435688.7504                   23435689.4734
 -13454176.24247 -10455270.90646  22128214.5084                   22128215.4344
 -36495297.84048 -28407781.32446  20832936.6884                   20832933.2734
 -11652121.71147  -9050158.17245  22095949.2734                   22095948.2114
 11  8 24  1  5  0.0000000  0  8G12G10G29G05G04G25G02G30
 -28921064.35548 -22507422.44146  20625204.2034                   20625202.6484
 -28962387.94548 -22533319.77045  21621501.3204                   21621499.9184
   2371819.16447   1882690.76244  24212446.7734                   24212446.4614
 -28279963.41848 -22006837.66447  20324167.8204                   20324166.2894
 -30577676.49647 -23447135.84044  23444596.1094                   23444597.0594
 -13548790.02348 -10528995.91445  22110210.3754                   22110210.9964
 -36503840.17248 -28414437.68446  20831311.1884                   20831307.8754
 -11740712.57847  -9119189.99645  22079090.9064                   22079090.1524
 11  8 24  1  5 30.0000000  0  8G12G10G29G05G04G25G02G30
 -28951873.95348 -22531429.93046  20619341.1644                   20619339.0354
 -28925537.43448 -22504605.10245  21628514.0704                   21628512.6954
   2256396.68847   1792751.22744  24190482.5784                   24190482.0004
 -28348572.61748 -22060299.34847  20311112.1414                   20311110.6094
 -30530864.81647 -23410659.24644  23453504.1024                   23453505.2154
 -13642891.73448 -10602321.90245  22092302.5784                   22092303.7304
 -36512198.93748 -28420951.00846  20829720.8204                   20829717.2464
 -11828731.56247  -9187776.20345  22062341.4304                   22062340.4804
 11  8 24  1  6  0.0000000  0  8G12G10G29G05G04G25G02G30
 -28982069.95348 -22554959.29746  20613595.0704                   20613593.5984
 -28888198.19947 -22475509.60945  21635619.4144                   21635618.2544
   2140936.45747   1702782.27744  24168511.3054                   24168510.4494
 -28416591.32048 -22113300.90247  20298168.0554                   20298166.6024
 -30484058.39547 -23374186.74243  23462411.3834                   23462412.1724
 -13736486.35248 -10675252.73846  22074492.4844                   22074493.3874
 -36520382.42248 -28427327.73846  20828163.3524                   20828159.4414
 -11916183.80947  -9255920.78145  22045699.8674                   22045699.3444
 11  8 24  1  6 30.0000000  0  8G12G10G29G05G04G25G02G30
 -27436229.43448 -21350408.25446  20907759.1414                   20907757.1134
 -27274952.39147 -21218434.96545  21942609.6804                   21942608.8984
   3600864.99247   2840389.00043  24446325.7034                   24446325.8364
 -26908594.38348 -20938238.31647  20585130.9224                   20585129.1054
 -28861837.71947 -22110118.72743  23771109.3444                   23771110.6414
 -12254146.91048  -9520183.02045  22356572.4454                   22356573.3484
 -34952969.39848 -27205966.93446  21126432.0314                   21126428.6454
 -10427642.88347  -8096018.73845  22328959.5474                   22328958.9534
 11  8 24  1  7  0.0000000  0  8G12G10G29G05G04G25G02G30
 -27465181.67248 -21372968.43746  20902249.7344                   20902247.7854
 -27236627.29348 -21188571.25445  21949903.1024                   21949901.6484
   3485348.03946   2750375.82043  24424344.1414                   24424343.2074
 -26975412.75048 -20990304.53947  20572415.4454                   20572413.7774
 -28815027.55547 -22073643.29744  23780017.2664                   23780018.1484
 -12346704.74248  -9592305.98846  22338958.8834                   22338960.0664
 -34960788.37548 -27212059.64546  21124943.9224                   21124940.5944
 -10513939.95347  -8163263.18745  22312537.9064                   22312536.5554
 11  8 24  1  7 30.0000000  0  8G12G10G29G05G04G25G02G30
 -27493524.35548 -21395053.66846  20896856.5234                   20896853.8364
 -27197825.10947 -21158335.80545  21957286.4774                   21957285.8794
   3369791.50846   2660331.84843  24402353.6094                   24402353.4924
 -27041641.59448 -21041911.39847  20559812.7114                   20559810.8324
 -28768228.58247 -22037176.56644  23788922.6564                   23788923.7234
 -12438753.41047  -9664032.19946  22321442.5084                   22321443.9414
 -34968438.85248 -27218021.05546  21123488.3364                   21123485.1724
 -10599669.12547  -8230065.13345  22296224.2344                   22296223.1954
 11  8 24  1  8  0.0000000  0  8G12G10G29G05G04G25G02G30
 -27521260.12148 -21416665.96546  20891578.1254                   20891576.1884
 -27158550.65647 -21127732.34845  21964760.1954                   21964759.0514
   3254194.39846   2570256.19943  24380356.0234                   24380355.6524
 -27107282.29748 -21093059.96947  20547321.6644                   20547320.0164
 -28721443.72347 -22000720.81643  23797826.1024                   23797826.7544
 -12530292.98447  -9735361.70746  22304023.3594                   22304024.4734
 -34975923.54348 -27223853.28546  21122064.0784                   21122060.4494
 -10684830.60247  -8296424.70345  22280018.4614                   22280017.3594
 11  8 24  1  8 30.0000000  0  8G12G10G29G05G04G25G02G30
 -27548391.97747 -21437807.61745  20886415.4614                   20886413.3754
 -27118809.88747 -21096765.45744  21972322.8204                   21972321.5274
   3138554.03146   2480146.94542  24358351.1414                   24358349.7304
 -27172337.39147 -21143752.15645  20534941.8834                   20534940.2234
 -28674676.96146 -21964279.14543  23806725.1954                   23806726.1764
 -12621324.61747  -9806295.36344  22286701.0784                   22286701.5554
 -34983246.40647 -27229559.37145  21120670.3524                   21120666.8324
 -10769425.85547  -8362343.01244  22263920.3054                   22263919.4494
 11  8 24  1  9  0.0000000  0  8G12G10G29G05G04G25G02G30
 -27574916.08248 -21458475.81246  20881368.0864                   20881365.8364
 -27078601.26648 -21065434.12145  21979974.1644                   21979972.9494
   3022875.31346   2390007.70343  24336338.1484                   24336337.5274
 -27236801.96948 -21193984.31247  20522674.6174                   20522672.8524
 -28627924.82047 -21927848.94143  23815621.7894                   23815622.3484
 -12711842.25448  -9876828.61345  22269475.3754                   22269476.4024
 -34990404.84448 -27235137.42646  21119308.5314                   21119304.9384
 -10853449.19147  -8427815.76245  22247931.3204                   22247930.1724
 11  8 24  1  9 30.0000000  0  8G12G10G29G05G04G25G02G30
 -27600833.25848 -21478671.03146  20876436.1564                   20876433.7154
 -27037927.80948 -21033740.53545  21987713.6954                   21987713.3444
   2907158.98446   2299839.14543  24314317.1564                   24314317.5164
 -27300675.88348 -21243756.15647  20510519.8134                   20510518.2704
 -28581188.28947 -21891430.85943  23824515.3594                   23824516.4144
 -12801844.39548  -9946960.11746  22252348.7894                   22252349.6414
 -34997399.85948 -27240588.08246  21117977.3364                   21117973.4344
 -10936899.40247  -8492841.87545  22232051.5784                   22232050.2584
 11  8 24  1 10  0.0000000  0  8G12G10G29G05G04G25G02G30
 -27626140.18448 -21498390.71946  20871620.3284                   20871617.9104
 -26996788.73047 -21001684.13745  21995542.7974                   21995541.7194
   2791408.82446   2209644.29343  24292291.1724                   24292290.9264
 -27363954.75448 -21293064.33647  20498478.7194                   20498476.5904
 -28534464.85247 -21855023.00843  23833406.6644                   23833407.5664
 -12891325.73048 -10016685.79745  22235321.0784                   22235322.0594
 -35004228.81248 -27245909.35246  21116677.6954                   21116674.5704
 -11019771.37147  -8557417.40645  22216281.2504                   22216279.9304
 11  8 24  1 10 30.0000000  0  8G12G10G29G05G04G25G02G30
 -27650840.81648 -21517637.96946  20866919.8594                   20866918.0124
 -26955189.99647 -20969269.55145  22003458.1644                   22003457.8634
   2675622.42246   2119421.16043  24270257.7814                   24270257.7424
 -27426641.27748 -21341910.94147  20486549.2424                   20486547.7234
 -28487758.19147 -21818628.18443  23842294.4384                   23842295.7344
 -12980287.67648 -10086006.76246  22218391.9144                   22218392.8054
 -35010896.35248 -27251104.84446  21115408.8754                   21115405.5984
 -11102066.87547  -8621543.74645  22200620.7504                   22200619.7074
 11  8 24  1 11  0.0000000  0  8G12G10G29G05G04G25G02G30
 -27674935.17648 -21536412.79346  20862335.1024                   20862333.1994
 -26913134.05547 -20936498.70345  22011461.8674                   22011461.1884
   2559801.18046   2029170.90244  24248217.6884                   24248217.6294
 -27488734.46548 -21390295.21147  20474733.3284                   20474731.5474
 -28441068.98447 -21782247.00043  23851178.6414                   23851180.1094
 -13068728.09448 -10154921.34045  22201562.3674                   22201563.3444
 -35017402.59048 -27256174.64146  21114170.9384                   21114167.3284
 -11183784.02347  -8685219.42645  22185070.5004                   22185069.6054
 11  8 24  1 11 30.0000000  0  8G12G10G29G05G04G25G02G30
 -27698418.03148 -21554711.11746  20857866.3054                   20857864.4534
 -26870618.62147 -20903369.79345  22019551.9614                   22019551.0474
   2443950.88346   1938898.02744  24226172.2424                   24226171.8634
 -27550228.30148 -21438212.45347  20463031.5164                   20463029.7624
 -28394392.49647 -21745875.71944  23860061.3754                   23860062.2234
 -13156639.80548 -10223423.94145  22184833.3054                   22184834.0634
 -35023743.34048 -27261115.47746  21112964.5004                   21112960.4964
 -11264916.05147  -8748439.15245  22169631.6884                   22169630.7814
 11  8 24  1 12  0.0000000  0  8G12G10G29G05G04G25G02G30
 -27721292.21548 -21572535.15646  20853513.5084                   20853511.3754
 -26827648.82847 -20869886.85245  22027728.7424                   22027727.9144
   2328070.10246   1848601.37144  24204120.8984                   24204120.2934
 -27611124.64848 -21485664.11747  20451443.1414                   20451441.4804
 -28347731.66847 -21709516.65643  23868941.0784                   23868941.7274
 -13244023.32048 -10291514.96145  22168204.8054                   22168205.7194
 -35029921.75048 -27265929.82446  21111788.4534                   21111784.8984
 -11345463.72347  -8811203.55145  22154304.0784                   22154302.7664
 11  8 24  1 12 30.0000000  0  8G12G10G29G05G04G25G02G30
 -27743559.63748 -21589886.38346  20849275.8364                   20849273.6644
 -26784228.41047 -20836052.76645  22035991.7194                   22035990.3404
   2212158.62146   1758280.80544  24182063.5164                   24182063.3634
 -27671424.41848 -21532650.92247  20439968.5234                   20439966.7734
 -28301088.56646 -21673171.40643  23877816.7814                   23877817.5634
 -13330878.21548 -10359194.06645  22151676.9384                   22151677.8594
 -35035940.16848 -27270619.50846  21110643.3754                   21110639.8524
 -11425426.91847  -8873512.51245  22139087.6484                   22139086.0634
 11  8 24  1 13  0.0000000  0  8G12G10G29G05G04G25G02G30
 -27765210.75448 -21606757.36746  20845156.0864                   20845153.9844
 -26740350.26247 -20801862.00445  22044341.3754                   22044340.2304
   2096226.94947   1667944.51244  24160001.9534                   24160002.5944
 -27731117.11348 -21579164.67647  20428609.4064                   20428607.8134
 -28254454.05146 -21636832.88343  23886691.1804                   23886691.5354
 -13417192.80148 -10426452.16446  22135251.8444                   22135252.7114
 -35041789.68748 -27275177.57846  21109530.3054                   21109526.8364
 -11504794.28547  -8935357.18745  22123984.1334                   22123983.1604
 11  8 24  1 13 30.0000000  0  8G12G10G29G05G04G25G02G30
 -27786259.99648 -21623159.36746  20841150.6884                   20841148.4344
 -26696031.13348 -20767327.61745  22052775.0634                   22052774.1454
   1980261.87147   1577582.19544  24137934.5944                   24137934.2074
 -27790215.64548 -21625215.44947  20417363.3134                   20417361.6334
 -28207842.45746 -21600512.22343  23895560.5704                   23895561.8094
 -13502979.16048 -10493298.64846  22118927.2194                   22118927.9264
 -35047485.02348 -27279615.50846  21108446.2504                   21108442.1844
 -11583578.29347  -8996747.29745  22108992.0314                   22108991.1054
 11  8 24  1 14  0.0000000  0  8G12G10G29G05G04G25G02G30
 -27806710.28548 -21639094.64546  20837258.9534                   20837257.0354
 -26651276.49247 -20732453.88345  22061291.2814                   22061290.6684
   1864261.83646   1487192.63744  24115860.2734                   24115860.7544
 -27848723.02048 -21670805.58247  20406229.7034                   20406227.9534
 -28161257.05146 -21564211.96143  23904425.1804                   23904426.8484
 -13588238.35548 -10559734.35546  22102702.9144                   22102703.4774
 -35053029.71148 -27283936.03146  21107391.1954                   21107387.1844
 -11661780.19947  -9057683.81645  22094110.6804                   22094109.4694
 11  8 24  1 14 30.0000000  0  8G12G10G29G05G04G25G02G30
 -27826549.31648 -21654553.62546  20833483.8674                   20833482.0314
 -26606075.48847 -20697232.33245  22069893.1414                   22069892.1254
   1748240.97347   1396786.84844  24093782.5634                   24093782.5084
 -27906624.71948 -21715923.75847  20395211.2504                   20395209.6094
 -28114685.01246 -21527922.10943  23913288.3054                   23913289.0204
 -13672954.96148 -10625747.27345  22086581.8524                   22086582.4884
 -35058411.07848 -27288129.31246  21106367.3364                   21106363.5784
 -11739385.07447  -9118155.12945  22079343.0634                   22079341.9104
 11  8 24  1 15  0.0000000  0  8G12G10G29G05G04G25G02G30
 -27845782.25048 -21669540.30546  20829823.7424                   20829821.7974
 -26560435.78547 -20661668.93045  22078578.0084                   22078576.9964
   1632195.44947   1306361.85244  24071699.8914                   24071699.5704
 -27963925.20748 -21760573.46147  20384307.4224                   20384305.6094
 -28068131.71546 -21491646.87543  23922147.0554                   23922148.2034
 -13757132.19148 -10691339.89846  22070563.3364                   22070564.0944
 -35063634.99648 -27292199.90646  21105373.2664                   21105369.8244
 -11816396.37147  -9178163.91045  22064687.7664                   22064687.0084
 11  8 24  1 15 30.0000000  0  8G12G10G29G05G04G25G02G30
 -27864412.74248 -21684057.56646  20826278.5314                   20826276.4844
 -26514364.03947 -20625768.87145  22087345.1724                   22087344.1094
   1516122.85947   1215915.76244  24049612.0634                   24049611.4614
 -28020628.02048 -21804757.43747  20373517.1024                   20373515.3634
 -28021601.55546 -21455389.67243  23931001.5864                   23931001.9844
 -13840771.98448 -10756513.74246  22054647.2114                   22054647.8134
 -35068705.89148 -27296151.26646  21104408.3834                   21104404.7384
 -11892816.47347  -9237712.01645  22050146.1644                   22050144.7624
 11  8 24  1 16  0.0000000  0  8G12G10G29G05G04G25G02G30
 -27882453.32848 -21698115.15646  20822845.4144                   20822843.9574
 -26467874.09847 -20589542.94145  22096191.9924                   22096190.6914
   1400012.29347   1125440.10244  24027517.0164                   24027516.2934
 -28076743.87948 -21848484.05147  20362838.8834                   20362837.0204
 -27975106.44946 -21419159.78543  23939849.5084                   23939850.2504
 -13923884.15248 -10821276.45346  22038831.5554                   22038831.7584
 -35073635.93448 -27299992.86746  21103470.2584                   21103466.6254
 -11968655.37547  -9296807.25445  22035714.2894                   22035713.2194
 11  8 24  1 16 30.0000000  0  8G12G10G29G05G04G25G02G30
 -27899895.35548 -21711706.33646  20819526.5704                   20819524.6564
 -26420959.82847 -20552986.36745  22105119.2974                   22105118.3874
   1283874.02746   1034942.83644  24005415.8984                   24005415.6524
 -28132263.27748 -21891745.89147  20352273.7424                   20352272.1134
 -27928637.77046 -21382950.46943  23948691.9454                   23948693.1094
 -14006457.81648 -10885619.54746  22023118.0004                   22023118.5594
 -35078416.77748 -27303718.20746  21102560.0944                   21102556.3714
 -12043902.74247  -9355441.54745  22021395.0944                   22021393.8984
 11  8 24  1 17  0.0000000  0  8G12G10G29G05G04G25G02G30
 -27916744.93748 -21724835.86746  20816319.8594                   20816317.8794
 -26373629.19547 -20516105.36345  22114126.0394                   22114124.9844
   1167703.82846    944420.67644  23983309.1334                   23983309.0904
 -28187190.88348 -21934546.58247  20341821.1414                   20341819.5784
 -27882201.23446 -21346766.20343  23957529.2034                   23957529.8364
 -14088496.37148 -10949545.67646  22007506.6174                   22007507.3714
 -35083054.37948 -27307331.92246  21101677.8134                   21101674.0164
 -12118562.26247  -9413617.77745  22007187.9694                   22007187.0904
 11  8 24  1 17 30.0000000  0  8G12G10G29G05G04G25G02G30
 -27933002.47748 -21737504.08646  20813226.2034                   20813223.8524
 -26325885.20347 -20478902.26645  22123211.0084                   22123210.7074
   1051502.53146    853874.28144  23961197.0784                   23961197.0704
 -28241526.55948 -21976886.03947  20331481.3054                   20331479.7704
 -27835797.25846 -21310607.30943  23966359.0164                   23966360.0044
 -14169998.23848 -11013053.61346  21991997.2814                   21991997.8404
 -35087550.01648 -27310835.02046  21100822.1644                   21100818.9104
 -12192632.62547  -9471334.93045  21993092.8834                   21993091.5744
 11  8 24  1 18  0.0000000  0  8G12G10G29G05G04G25G02G30
 -27948660.58248 -21749705.21146  20810246.9224                   20810244.4264
 -26277722.64847 -20441373.01245  22132376.4694                   22132375.2584
    935279.32046    763310.79744  23939080.8364                   23939080.8674
 -28295262.06648 -22018757.82847  20321255.9614                   20321253.9454
 -27789418.78546 -21274468.28143  23975185.2344                   23975185.5514
 -14250954.00448 -11076136.01246  21976591.9774                   21976593.0084
 -35091895.94948 -27314221.46946  21099995.2584                   21099992.2424
 -12266104.85247  -9528586.00045  21979111.8834                   21979110.4924
 11  8 24  1 18 30.0000000  0  8G12G10G29G05G04G25G02G30
 -27963721.96548 -21761441.34846  20807380.6954                   20807378.6054
 -26229145.91847 -20403521.03145  22141620.1334                   22141619.1374
    819032.96146    672729.27344  23916959.6414                   23916959.5704
 -28348398.60948 -22060162.89847  20311144.3204                   20311142.7114
 -27743067.87546 -21238350.74243  23984005.3984                   23984005.8834
 -14331363.59448 -11138792.81646  21961290.5314                   21961291.4694
 -35096094.85548 -27317493.35246  21099196.4844                   21099192.7464
 -12338979.36747  -9585371.33245  21965244.0634                   21965242.4534
 11  8 24  1 19  0.0000000  0  8G12G10G29G05G04G25G02G30
 -27978182.19548 -21772709.05546  20804628.9614                   20804626.9534
 -26180152.59447 -20365344.41045  22150943.2034                   22150942.2814
    702769.90247    582134.73444  23894835.4534                   23894835.2854
 -28400930.96948 -22101097.17647  20301147.9694                   20301146.2234
 -27696739.77746 -21202250.96143  23992821.0234                   23992821.9574
 -14411220.32848 -11201018.82446  21946094.0084                   21946095.0944
 -35100142.41448 -27320647.29346  21098425.9064                   21098422.3094
 -12411249.73447  -9641685.89145  21951491.3674                   21951489.9734
 11  8 24  1 19 30.0000000  0  8G12G10G29G05G04G25G02G30
 -27992052.98848 -21783517.46946  20801989.5164                   20801987.4654
 -26130756.58647 -20326854.02345  22160343.3284                   22160342.1214
    586480.02747    491519.29344  23872705.8914                   23872706.0354
 -28452870.01648 -22141569.13347  20291264.3594                   20291262.5234
 -27650446.08246 -21166178.01243  24001631.1334                   24001631.4104
 -14490533.73048 -11262821.45746  21931001.5164                   21931002.3524
 -35104050.64848 -27323692.67246  21097682.4144                   21097678.8524
 -12482925.91047  -9697537.44545  21937851.9064                   21937850.9264
 11  8 24  1 20  0.0000000  0  8G12G10G29G05G04G25G02G30
 -28005330.66848 -21793863.73046  20799462.8754                   20799460.4964
 -26080955.77747 -20288048.21145  22169819.9144                   22169818.7734
    470168.89147    400887.26644  23850572.4614                   23850572.7974
 -28504210.55548 -22181574.71547  20281494.2344                   20281492.5474
 -27604182.39546 -21130128.41043  24010434.3204                   24010435.1994
 -14569297.32048 -11324195.65646  21916013.3524                   21916014.3794
 -35107815.38348 -27326626.22346  21096965.8754                   21096962.2344
 -12554001.78147  -9752921.23445  21924326.2194                   21924325.4694
 11  8 24  1 20 30.0000000  0  8G12G10G29G05G04G25G02G30
 -28018020.55148 -21803751.96146  20797048.2664                   20797046.1484
 -26030758.14147 -20248933.18445  22179372.4224                   22179371.1884
    353832.86347    310235.87944  23828435.0704                   23828434.2894
 -28554957.48448 -22221117.74647  20271837.3594                   20271835.3674
 -27557954.41446 -21094106.67243  24019231.1484                   24019232.0394
 -14647514.65648 -11385144.19946  21901129.1254                   21901129.8444
 -35111442.34048 -27329452.41846  21096276.1484                   21096272.2704
 -12624481.27047  -9807840.29745  21910914.8444                   21910913.5234
 11  8 24  1 21  0.0000000  0  8G12G10G29G05G04G25G02G30
 -28030127.68748 -21813186.09446  20794744.2114                   20794742.4264
 -25980170.36747 -20209514.16445  22188999.0784                   22188997.5704
    237469.26647    219562.98044  23806292.2664                   23806291.1884
 -28605114.52748 -22260201.13347  20262292.8364                   20262291.4184
 -27511766.24646 -21058115.94543  24028020.4304                   24028021.3874
 -14725188.09448 -11445668.93046  21886348.2194                   21886348.7074
 -35114936.27348 -27332174.96546  21095610.8834                   21095607.5204
 -12694367.14847  -9862296.81645  21897616.0634                   21897614.8364
 11  8 24  1 21 30.0000000  0  8G12G10G29G05G04G25G02G30
 -28041648.90648 -21822163.67646  20792551.5164                   20792549.5904
 -25929191.28947 -20169790.21545  22198699.8984                   22198698.7504
    121083.32847    128872.67244  23784144.2034                   23784143.3284
 -28654677.46148 -22298821.56647  20252861.1174                   20252859.3874
 -27465614.30546 -21022153.42243  24036803.2974                   24036803.7274
 -14802311.99648 -11505765.44946  21871671.8754                   21871672.8554
 -35118293.77348 -27334791.18046  21094971.8054                   21094968.3094
 -12763654.25447  -9916286.75045  21884431.0784                   21884430.1214
 11  8 24  1 22  0.0000000  0  8G12G10G29G05G04G25G02G30
 -28052577.27048 -21830679.30146  20790471.9534                   20790470.0864
 -25877816.10947 -20129757.63745  22208475.9454                   22208475.4844
      4683.45747     38171.52044  23761994.2194                   23761993.2664
 -28703638.20748 -22336972.77747  20243544.3284                   20243542.3284
 -27419491.58246 -20986213.71943  24045580.2504                   24045581.1724
 -14878877.41448 -11565426.77046  21857102.1564                   21857102.8794
 -35121507.94948 -27337295.72746  21094360.5394                   21094356.7974
 -12832333.95747  -9969803.38345  21871361.5474                   21871360.7814
 11  8 24  1 22 30.0000000  0  8G12G10G29G05G04G25G02G30
 -28062924.48048 -21838742.07846  20788502.9614                   20788501.2384
 -25826058.28947 -20089426.87545  22218325.2344                   22218324.3874
   -111740.12147    -52548.10244  23739838.9064                   23739838.7304
 -28752007.91448 -22374663.43447  20234339.9384                   20234337.9964
 -27373409.03546 -20950305.31243  24054349.1414                   24054350.2854
 -14954893.47348 -11624660.04346  21842636.9384                   21842637.1804
 -35124589.88348 -27339697.21946  21093773.8594                   21093770.1094
 -12900415.77047 -10022854.11745  21858406.2894                   21858405.2154
 11  8 24  1 23  0.0000000  0  8G12G10G29G05G04G25G02G30
 -28072676.41448 -21846340.98846  20786647.3594                   20786645.0554
 -25773905.65647 -20048788.49245  22228249.6724                   22228248.9184
   -228171.06647   -143273.46144  23717682.9064                   23717682.2814
 -28799771.21148 -22411881.56247  20225251.0864                   20225249.0554
 -27327352.18046 -20914416.93043  24063113.3444                   24063114.7704
 -15030343.75048 -11683452.43046  21828278.8754                   21828279.9654
 -35127525.79748 -27341984.94546  21093215.0394                   21093211.5744
 -12967883.78547 -10075426.57845  21845567.2974                   21845566.2344
 11  8 24  1 23 30.0000000  0  8G12G10G29G05G04G25G02G30
 -28081849.48848 -21853488.85246  20784901.9454                   20784900.0904
 -25721376.68747 -20007856.86745  22238245.7274                   22238245.0704
   -344624.01247   -234015.94144  23695522.6564                   23695521.9654
 -28846943.61748 -22448639.25447  20216274.4304                   20216272.3284
 -27281336.83246 -20878560.87943  24071870.5234                   24071870.9774
 -15105242.32448 -11741814.91446  21814026.1174                   21814026.8794
 -35130331.84448 -27344171.45746  21092680.9304                   21092677.3484
 -13034752.41447 -10127531.97345  21832842.7034                   21832841.6054
 11  8 24  1 24  0.0000000  0  8G12G10G29G05G04G25G02G30
 -28090432.20748 -21860176.69146  20783268.7194                   20783266.7194
 -25668461.23447 -19966624.08645  22248315.4304                   22248314.7114
   -461084.66847   -324764.43044  23673361.0784                   23673360.4494
 -28893512.36748 -22484926.56647  20207412.2734                   20207410.6994
 -27235350.60246 -20842727.54743  24080620.9694                   24080621.8714
 -15179575.03548 -11799736.47746  21799880.7974                   21799881.4414
 -35132995.79348 -27346247.25446  21092174.4064                   21092170.9804
 -13101007.94547 -10179159.62945  21820234.6564                   21820233.5744
 11  8 24  1 24 30.0000000  0  8G12G10G29G05G04G25G02G30
 -28098431.76648 -21866410.11746  20781746.3444                   20781744.1604
 -25615168.85947 -19925097.57445  22258457.2034                   22258455.6254
   -577558.44547   -415523.16044  23651196.6954                   23651195.8984
 -28939483.82048 -22520748.45747  20198664.4384                   20198662.0434
 -27189400.27046 -20806922.14143  24089365.0554                   24089365.7384
 -15253346.91848 -11857221.02346  21785842.5944                   21785843.5004
 -35135524.71148 -27348217.82446  21091693.0004                   21091689.2934
 -13166655.90247 -10230313.84845  21807742.2114                   21807740.8134
 11  8 24  1 25  0.0000000  0  8G12G10G29G05G04G25G02G30
 -28105851.44548 -21872191.69946  20780334.5864                   20780332.6294
 -25561504.60547 -19883281.29345  22268668.2194                   22268667.6804
   -694046.64147   -506293.11744  23629030.2114                   23629029.6094
 -28984860.25448 -22556106.68747  20190029.5474                   20190027.6804
 -27143488.50846 -20771146.75843  24098101.7194                   24098102.8634
 -15326558.85948 -11914269.25846  21771910.7274                   21771911.8244
 -35137921.58648 -27350085.51246  21091236.7894                   21091233.3834
 -13231697.55147 -10280995.61345  21795365.2424                   21795364.7464
 11  8 24  1 25 30.0000000  0  8G12G10G29G05G04G25G02G30
 -28112689.37948 -21877519.96546  20779033.2814                   20779031.0984
 -25507468.43047 -19841175.19945  22278951.3364                   22278950.5864
   -810545.62547   -597071.48045  23606861.2734                   23606860.2544
 -29029638.98848 -22590999.18447  20181508.2664                   20181506.2934
 -27097613.18446 -20735399.81643  24106831.9924                   24106832.7304
 -15399206.94548 -11970878.12946  21758086.3204                   21758086.8954
 -35140184.68748 -27351848.94946  21090806.5394                   21090802.5944
 -13296129.39147 -10331202.20745  21783103.8914                   21783102.8324
 11  8 24  1 26  0.0000000  0  8G12G10G29G05G04G25G02G30
 -28118955.02348 -21882402.29746  20777840.6254                   20777838.7074
 -25453071.01247 -19798787.62145  22289302.3834                   22289301.9574
   -927062.04747   -687863.44544  23584687.8674                   23584687.9224
 -29073827.98448 -22625432.14547  20173099.7504                   20173097.2464
 -27051782.32046 -20699687.48843  24115553.2974                   24115554.1604
 -15471297.57448 -12027052.61346  21744367.9844                   21744368.5204
 -35142321.84848 -27353514.25046  21090399.9064                   21090396.3054
 -13359958.32047 -10380939.00845  21770957.7894                   21770956.5634
 11  8 24  1 26 30.0000000  0  9G12G10G29G26G05G04G25G02G30
 -28124647.42648 -21886837.95346  20776757.4614                   20776755.8164
 -25398313.34447 -19756119.34045  22299722.5554                   22299721.8524
  -1043592.22747   -778666.12144  23562513.2894                   23562512.8834
   6118064.12956   4791940.45753  24715743.2734                   24715745.3244
 -29117425.43448 -22659404.16447  20164803.1644                   20164801.1954
 -27005994.40646 -20664008.62943  24124266.2424                   24124267.4574
 -15542827.58248 -12082790.25846  21730756.2114                   21730757.3014
 -35144332.57848 -27355081.04346  21090017.0554                   21090013.4454
 -13423181.60247 -10430203.87545  21758926.7584                   21758926.1684
 11  8 24  1 27  0.0000000  0  9G12G10G29G26G05G04G25G02G30
 -28129765.89148 -21890826.37946  20775783.3284                   20775781.6484
 -25343196.69947 -19713171.33645  22310211.3594                   22310210.3134
  -1160133.67647   -869477.59044  23540336.1334                   23540335.6724
   5993113.98446   4694576.84443  24691965.9614                   24691968.3324
 -29160429.68748 -22692913.94947  20156619.7194                   20156617.5944
 -26960248.04346 -20628362.16443  24132971.3444                   24132972.5744
 -15613794.04748 -12138088.78946  21717251.7504                   21717252.3244
 -35146215.57448 -27356548.31246  21089658.5164                   21089655.2304
 -13485796.76647 -10478994.87545  21747011.8134                   21747010.3874
 11  8 24  1 27 30.0000000  0  9G12G10G29G26G05G04G25G02G30
 -28134308.80148 -21894366.32046  20774919.1414                   20774917.2934
 -25287720.94947 -19669943.52345  22320768.3834                   22320766.8444
  -1276682.26247   -960294.62144  23518157.5084                   23518156.9574
   5868045.69146   4597121.21543  24668166.5474                   24668168.0984
 -29202837.87548 -22725959.27347  20148549.8834                   20148547.8054
 -26914540.53146 -20592745.94143  24141669.5084                   24141670.1134
 -15684192.62948 -12192944.81646  21703855.4144                   21703856.4414
 -35147968.61348 -27357914.31246  21089324.8284                   21089321.4924
 -13547799.87547 -10527308.97345  21735212.9224                   21735211.4414
 11  8 24  1 28  0.0000000  0  9G12G10G29G26G05G04G25G02G30
 -28138291.64548 -21897469.83246  20774160.8284                   20774158.9844
 -25231903.50847 -19626449.43044  22331389.6724                   22331388.6524
  -1393251.54347  -1051127.80544  23495974.9384                   23495974.6134
   5742847.19946   4499564.11743  24644341.9224                   24644343.6524
 -29244664.98048 -22758551.80547  20140590.1644                   20140588.1294
 -26868887.03146 -20557171.81643  24150357.3364                   24150357.9844
 -15754036.85548 -12247368.87146  21690564.3204                   21690565.9384
 -35149606.69547 -27359190.73846  21089013.1564                   21089009.7344
 -13609204.93047 -10575157.03145  21723527.5864                   21723527.0274
 11  8 24  1 28 30.0000000  0  9G12G10G29G26G05G04G25G02G30
 -28141709.21548 -21900132.89146  20773510.6564                   20773508.7114
 -25175740.77347 -19582686.28944  22342077.0234                   22342076.0634
  -1509833.25847  -1141970.67244  23473790.3594                   23473789.3954
   5617528.19946   4401913.09843  24620494.1724                   24620495.8754
 -29285904.79348 -22790686.70347  20132742.6724                   20132740.5044
 -26823281.14146 -20521634.80143  24159034.7814                   24159036.4144
 -15823318.91048 -12301354.87946  21677380.4224                   21677381.1644
 -35151123.85548 -27360372.92646  21088724.3204                   21088720.9224
 -13670004.63347 -10622533.40245  21711958.2424                   21711956.9734
 11  8 24  1 29  0.0000000  0  9G12G10G29G26G05G04G25G02G30
 -28144561.86348 -21902355.73846  20772968.3134                   20772966.1214
 -25119234.63747 -19538655.57845  22352829.9144                   22352828.7734
  -1626425.80547  -1232821.98444  23451603.2274                   23451602.9384
   5492092.12946   4304170.87943  24596624.2114                   24596626.3834
 -29326556.38748 -22822363.25047  20125007.0784                   20125004.8634
 -26777722.53146 -20486134.62543  24167704.9844                   24167705.9924
 -15892036.82048 -12354901.29346  21664303.9224                   21664304.3714
 -35152520.07847 -27361460.87946  21088458.6954                   21088455.0084
 -13730197.40247 -10669436.84445  21700503.7194                   21700502.3554
 11  8 24  1 29 30.0000000  0  9G12G10G29G26G05G04G25G02G30
 -26571420.99648 -20676531.68746  21072326.7194                   21072325.0044
 -23486960.06647 -18266753.34444  22663441.2974                   22663440.5864
   -167594.16047    -96070.03544  23729209.5164                   23729209.0824
   6941975.87946   5433950.54743  24872527.8524                   24872529.6174
 -27791188.95748 -21625973.03147  20417177.8134                   20417175.5514
 -25156782.98847 -19223064.85543  24476159.5084                   24476160.3284
 -14384757.22748 -11180397.69946  21951129.7424                   21951130.5704
 -33578366.10248 -26134847.37546  21388010.5474                   21388006.7074
 -12214350.71147  -9488257.58645  21988960.0474                   21988958.5124
 11  8 24  1 30  0.0000000  0  9G12G10G29G26G05G04G25G02G30
 -26573125.93448 -20677860.21146  21072001.7894                   21072000.6604
 -23429754.18047 -18222177.35944  22674326.9384                   22674326.2734
   -284182.60547   -186918.15244  23707023.9304                   23707023.1174
   6816336.18446   5336049.64843  24848619.1724                   24848621.4774
 -27830643.32848 -21656716.67247  20409669.4774                   20409667.4694
 -25111297.65646 -19187621.77043  24484815.3204                   24484816.6094
 -14452321.49248 -11233045.17246  21938272.6884                   21938273.0474
 -33579500.37548 -26135731.21546  21387794.7504                   21387790.4534
 -12273305.75047  -9534196.56645  21977740.9224                   21977739.7704
 11  8 24  1 30 30.0000000  0  9G12G10G29G26G05G04G25G02G30
 -26574263.44548 -20678746.58646  21071785.7734                   21071784.0354
 -23372207.51647 -18177335.81644  22685278.0554                   22685277.3054
   -400771.90147   -277766.93344  23684837.7974                   23684836.9344
   6690594.48446   5238069.24643  24824691.4144                   24824693.0594
 -27869503.80548 -21686997.54747  20402275.0164                   20402272.4654
 -25065854.08046 -19152211.22943  24493462.7894                   24493464.3244
 -14519311.89548 -11285245.48446  21925524.8674                   21925525.8524
 -33580509.36348 -26136517.42246  21387602.2894                   21387598.8054
 -12331645.62547  -9579656.19945  21966639.5704                   21966638.1334
 11  8 24  1 31  0.0000000  0  9G12G10G29G26G05G04G25G02G30
 -26574848.93048 -20679202.81246  21071674.3674                   21071672.5394
 -23314336.65247 -18132241.66844  22696290.9384                   22696289.6524
   -517374.28547   -368625.90644  23662648.8594                   23662648.5824
   6564739.66045   5140000.73043  24800741.2424                   24800743.7034
 -27907785.08648 -21716827.10247  20394989.9844                   20394988.0164
 -25020466.35546 -19116844.18043  24502099.8984                   24502100.7304
 -14585741.16048 -11337008.54746  21912883.8444                   21912884.7704
 -33581407.24648 -26137217.05546  21387431.3674                   21387427.9654
 -12389383.47747  -9624646.73045  21955651.8754                   21955650.7194
 11  8 24  1 31 30.0000000  0  9G12G10G29G26G05G04G25G02G30
 -26574875.53948 -20679223.55146  21071669.2344                   21071667.3634
 -23256136.47747 -18086890.92644  22707365.5944                   22707365.1484
   -633980.65647   -459487.97744  23640460.0004                   23640458.9884
   6438782.78146   5041852.67642  24776772.6564                   24776775.2854
 -27945479.30548 -21746199.19947  20387817.1024                   20387815.1564
 -24975126.78546 -19081514.73043  24510727.1174                   24510728.3714
 -14651600.22748 -11388327.29746  21900351.1024                   21900351.5274
 -33582186.69948 -26137824.40246  21387283.1564                   21387279.5864
 -12446510.77047  -9669161.50045  21944781.0864                   21944779.8714
 11  8 24  1 32  0.0000000  0  9G12G10G29G26G05G04G25G02G30
 -26574342.95348 -20678808.54346  21071770.7664                   21071768.6024
 -23197607.84447 -18041284.23444  22718503.3834                   22718502.6604
   -750587.79747   -550350.64544  23618270.0784                   23618269.1954
   6312728.63346   4943628.77742  24752785.2034                   24752787.4454
 -27982584.81648 -21775112.57047  20380756.0394                   20380754.2424
 -24929833.68746 -19046221.45743  24519346.7274                   24519348.1644
 -14716886.07048 -11439199.39546  21887927.4224                   21887928.2624
 -33582846.39848 -26138338.43446  21387157.5864                   21387153.9884
 -12503024.98447  -9713198.55945  21934026.7504                   21934025.2344
 11  8 24  1 32 30.0000000  0  9G12G10G29G26G05G04G25G02G30
 -26573249.83648 -20677956.76646  21071979.1414                   21071976.8014
 -23138751.38347 -17995422.08244  22729703.1484                   22729702.1914
   -867192.04347   -641211.04344  23596081.0164                   23596080.3404
   6186582.50446   4845333.18842  24728781.5704                   24728783.3364
 -28019099.86348 -21803565.83647  20373807.5084                   20373805.5234
 -24884584.87146 -19010962.70743  24527956.6954                   24527958.6174
 -14781595.47748 -11489622.30146  21875614.1024                   21875614.6764
 -33583384.41847 -26138757.65646  21387055.3594                   21387051.8364
 -12558923.34447  -9756755.71545  21923389.6954                   21923388.4454
 11  8 24  1 33  0.0000000  0  9G12G10G29G26G05G04G25G02G30
 -26571594.73048 -20676667.07446  21072293.7664                   21072292.0634
 -23079566.75847 -17949304.21944  22740965.8444                   22740965.2664
   -983788.90647   -732065.66044  23573893.1884                   23573892.4344
   6060350.59846   4746970.74242  24704759.3054                   24704761.0354
 -28055021.69948 -21831556.86347  20366971.8834                   20366969.5474
 -24839377.58246 -18975736.32043  24536560.2274                   24536561.4924
 -14845724.15648 -11539592.70346  21863410.7424                   21863411.0394
 -33583798.39147 -26139080.22746  21386976.3134                   21386972.8714
 -12614202.02347  -9799830.00845  21912870.3984                   21912868.9144
 11  8 24  1 33 30.0000000  0  9G12G10G29G26G05G04G25G02G30
 -26569389.98048 -20674949.08646  21072713.3524                   21072711.3364
 -23020067.77747 -17902941.41044  22752288.3594                   22752287.6954
  -1100387.89547   -822921.94144  23551705.0084                   23551704.2934
   5934024.69146   4648535.08642  24680720.7274                   24680721.5354
 -28090361.55148 -21859094.38747  20360246.7664                   20360244.6954
 -24794223.10546 -18940551.05943  24545153.0554                   24545153.7504
 -14909282.16848 -11589118.44146  21851316.0084                   21851317.0634
 -33584099.92647 -26139315.17646  21386919.1334                   21386915.1374
 -12668871.70348  -9842429.77045  21902467.2194                   21902465.9574
 11  8 24  1 34  0.0000000  0  9G12G10G29G26G05G04G25G02G30
 -26566633.97348 -20672801.55946  21073237.9224                   21073236.0824
 -22960254.32447 -17856333.56244  22763670.3984                   22763669.4384
  -1216985.07447   -913776.79344  23529516.7504                   23529516.5354
   5807610.78946   4550030.82442  24656664.2894                   24656665.8874
 -28125117.00048 -21886176.53547  20353633.2274                   20353631.0354
 -24749118.25047 -18905404.46143  24553735.7194                   24553736.8324
 -14972265.54748 -11638196.38746  21839330.8754                   21839331.8134
 -33584286.16847 -26139460.28946  21386883.9224                   21386879.7734
 -12722928.82447  -9884552.19945  21892180.4694                   21892179.6174
 11  8 24  1 34 30.0000000  0  9G12G10G29G26G05G04G25G02G30
 -26563320.01248 -20670219.25846  21073868.3984                   21073866.2664
 -22900121.25047 -17809476.66444  22775113.4384                   22775112.2344
  -1333570.51647  -1004622.52044  23507331.6174                   23507330.8014
   5681120.41046   4451467.01643  24632593.4614                   24632595.5434
 -28159280.14148 -21912797.14547  20347132.0234                   20347129.9844
 -24704055.24647 -18870290.48043  24562311.2814                   24562312.3054
 -15034665.06248 -11686819.39546  21827456.4064                   21827457.3014
 -33584349.98047 -26139510.00046  21386871.3834                   21386867.7774
 -12776364.68448  -9926190.53145  21882012.3364                   21882010.6564
 11  8 24  1 35  0.0000000  0  9G12G10G29G26G05G04G25G02G30
 -26559456.59848 -20667208.81646  21074603.7424                   21074601.6414
 -22839677.97347 -17762378.03144  22786615.5394                   22786614.4694
  -1450149.74647  -1095463.39544  23485147.2974                   23485146.2664
   5554549.41446   4352840.35943  24608507.9384                   24608509.5084
 -28192858.39848 -21938962.00047  20340742.5474                   20340740.5594
 -24659041.14547 -18835214.59844  24570877.2424                   24570878.2194
 -15096486.68448 -11734992.09446  21815692.2424                   21815692.6564
 -33584298.47747 -26139469.85546  21386881.2504                   21386877.4574
 -12829185.82448  -9967349.87545  21871960.3674                   21871958.8014
 11  8 24  1 35 30.0000000  0  9G12G10G29G26G05G04G25G02G30
 -26555049.93448 -20663775.06246  21075442.5004                   21075440.2384
 -22778932.37547 -17715043.85244  22798174.7344                   22798174.1294
  -1566726.69547  -1186302.49244  23462963.2974                   23462962.5234
   5427895.84846   4254149.37543  24584406.9924                   24584408.3164
 -28225857.47348 -21964675.54747  20334462.2894                   20334460.3014
 -24614081.27047 -18800180.99244  24579433.0234                   24579433.9104
 -15157734.69148 -11782717.80546  21804037.1174                   21804037.9264
 -33584136.80148 -26139343.87146  21386911.7894                   21386908.2344
 -12881396.89848 -10008033.83245  21862024.7424                   21862024.0434
 11  8 24  1 36  0.0000000  0  9G12G10G29G26G05G04G25G02G30
 -26550102.37548 -20659919.83246  21076383.6484                   21076381.9884
 -22717888.10547 -17667476.91444  22809791.5944                   22809790.4734
  -1683300.48047  -1277139.12944  23440779.9534                   23440779.1684
   5301162.21946   4155395.98443  24560289.9384                   24560291.2584
 -28258278.38748 -21989938.56247  20328293.2344                   20328291.1564
 -24569176.33647 -18765190.16043  24587977.7814                   24587979.5514
 -15218408.58648 -11829996.17646  21792491.2734                   21792491.4884
 -33583866.26647 -26139133.06246  21386963.3444                   21386959.3754
 -12932998.00848 -10048242.48445  21852205.6564                   21852204.4614
 11  8 24  1 36 30.0000000  0  9G12G10G29G26G05G04G25G02G30
 -26544609.11348 -20655639.37146  21077429.0234                   21077427.0744
 -22656541.39847 -17619674.32444  22821464.8594                   22821464.3954
  -1799863.10247  -1367967.06645  23418598.8914                   23418597.9184
   5174358.03146   4056587.60243  24536160.3914                   24536161.4884
 -28290115.35248 -22014746.56647  20322234.6414                   20322232.5434
 -24524319.92247 -18730237.14543  24596513.8204                   24596515.2734
 -15278501.24648 -11876821.61746  21781056.1094                   21781056.0474
 -33583481.06648 -26138832.91046  21387036.5944                   21387032.9574
 -12983982.56248 -10087970.73045  21842503.3674                   21842502.1374
 11  8 24  1 37  0.0000000  0  9G12G10G29G26G05G04G25G02G30
 -26538563.15648 -20650928.24646  21078579.4304                   21078577.6524
 -22594887.05947 -17571632.02344  22833198.1484                   22833197.1374
  -1916404.93747  -1458778.80945  23396421.1094                   23396420.9414
   5047494.55147   3957733.09043  24512019.5234                   24512019.9614
 -28321360.75448 -22039093.60547  20316289.0164                   20316286.8364
 -24479504.07847 -18695315.73843  24605042.1564                   24605043.3204
 -15338003.43748 -11923186.96146  21769732.9384                   21769733.7304
 -33582973.45747 -26138437.37146  21387133.7114                   21387129.8284
 -13034341.78948 -10127211.67645  21832920.9694                   21832919.5554
 11  8 24  1 37 30.0000000  0  9G12G10G29G26G05G04G25G02G30
 -26531981.83648 -20645799.94946  21079831.9924                   21079829.5744
 -22532943.40247 -17523364.27744  22844984.6334                   22844983.8204
  -2032940.20346  -1549585.44144  23374245.6724                   23374245.3554
   4920559.30146   3858822.61343  24487863.6414                   24487865.1134
 -28352030.36748 -22062991.97347  20310452.6884                   20310450.4614
 -24434744.31246 -18660438.02743  24613559.7194                   24613560.7974
 -15396929.89548 -11969103.67646  21758519.8364                   21758520.1414
 -33582359.38748 -26137958.87146  21387249.9844                   21387246.0164
 -13084091.00848 -10165977.31245  21823453.6644                   21823452.0864
 11  8 24  1 38  0.0000000  0  9G12G10G29G26G05G04G25G02G30
 -26524864.12948 -20640253.69546  21081186.6804                   21081184.4844
 -22470710.62547 -17474871.23044  22856827.6884                   22856826.4454
  -2149464.60546  -1640383.62544  23352071.4534                   23352070.9414
   4793558.29346   3759860.94543  24463695.9144                   24463697.7384
 -28382122.30948 -22086440.21147  20304726.6024                   20304724.3834
 -24390038.01646 -18625602.00043  24622067.2814                   24622068.7344
 -15455277.16848 -12014569.07046  21747416.5704                   21747417.2384
 -33581636.60247 -26137395.65246  21387387.8674                   21387384.1054
 -13133227.25848 -10204265.29745  21814103.5164                   21814101.4694
 11  8 24  1 38 30.0000000  0  9G12G10G29G26G05G04G25G02G30
 -26517210.87148 -20634290.12546  21082642.9304                   21082640.5394
 -22408190.65647 -17426154.39544  22868724.8204                   22868723.7894
  -2265975.94946  -1731171.62944  23329899.8134                   23329899.5514
   4666495.20346   3660850.87143  24439516.3594                   24439518.2234
 -28411636.54748 -22109438.28947  20299110.2894                   20299107.5314
 -24345384.72346 -18590807.24643  24630563.6954                   24630565.3014
 -15513043.70748 -12059581.95746  21736423.9774                   21736424.6254
 -33580804.84448 -26136747.53546  21387546.3204                   21387542.2704
 -13181749.55148 -10242074.87945  21804870.1094                   21804868.8874
 11  8 24  1 39  0.0000000  0  9G12G10G29G26G05G04G25G02G30
 -26509018.96948 -20627906.83246  21084201.4614                   21084199.8984
 -22345381.85947 -17377212.50044  22880676.7894                   22880676.0474
  -2382468.34846  -1821944.86745  23307732.5234                   23307732.0434
   4539377.60246   3561798.34843  24415326.6804                   24415328.7664
 -28440569.32448 -22131983.27747  20293604.2034                   20293602.2194
 -24300779.89146 -18556050.21942  24639051.9694                   24639054.4574
 -15570224.37548 -12104138.30946  21725543.0234                   21725543.6094
 -33579859.94147 -26136011.25446  21387726.0474                   21387722.5314
 -13229653.19548 -10279402.39145  21795754.3054                   21795752.7154
 11  8 24  1 39 30.0000000  0  9G12G10G29G26G05G04G25G02G30
 -26500288.87948 -20621104.17246  21085862.9534                   21085860.7974
 -22282285.69147 -17328046.68444  22892683.4384                   22892683.4614
  -2498938.68746  -1912700.94144  23285567.9924                   23285568.2424
   4412210.14146   3462706.94143  24391127.5784                   24391129.0164
 -28468919.85548 -22154074.57447  20288209.4064                   20288207.3954
 -24256222.42246 -18521330.12943  24647531.2974                   24647532.8094
 -15626816.94148 -12148236.41046  21714773.8594                   21714774.6024
 -33578801.03147 -26135186.14546  21387927.3284                   21387923.4924
 -13276936.63748 -10316246.61345  21786756.4224                   21786754.9774
 11  8 24  1 40  0.0000000  0  9G12G10G29G26G05G04G25G02G30
 -26491029.12948 -20613888.79346  21087625.2424                   21087622.9734
 -22218911.69547 -17278664.39544  22904744.0004                   22904743.1374
  -2615392.59046  -2003444.19544  23263408.7034                   23263408.1994
   4284989.12546   3363573.81343  24366917.8834                   24366919.9184
 -28496695.73048 -22175718.07847  20282923.6954                   20282921.6644
 -24211719.19946 -18486652.30142  24656000.2974                   24656001.9304
 -15682827.55548 -12191881.03146  21704115.2894                   21704115.7974
 -33577635.08647 -26134277.63746  21388149.3364                   21388145.9264
 -13323606.44948 -10352612.71145  21777875.2894                   21777874.3794
 11  8 24  1 40 30.0000000  0  9G12G10G29G26G05G04G25G02G30
 -26481231.41848 -20606254.22346  21089489.4304                   21089487.5984
 -22155252.93747 -17229060.20744  22916857.5554                   22916856.9064
  -2731818.29347  -2094165.48845  23241253.4304                   23241252.6094
   4157727.76246   3264409.27043  24342701.3054                   24342702.4574
 -28523887.77048 -22196906.65247  20277749.1564                   20277747.2854
 -24167260.30146 -18452009.03542  24664459.9694                   24664462.3914
 -15738245.58648 -12235063.88746  21693569.5004                   21693570.0744
 -33576352.82048 -26133278.47346  21388393.5554                   21388389.4304
 -13369652.64547 -10388492.83645  21769113.2344                   21769112.1914
 11  8 24  1 41  0.0000000  0  9G12G10G29G26G05G04G25G02G30
 -26470891.64148 -20598197.27046  21091457.0164                   21091455.3054
 -22091306.31647 -17179231.70344  22929026.4534                   22929025.6914
  -2848208.79347  -2184859.35245  23219104.8524                   23219104.0204
   4030434.71146   3165220.01643  24318478.1254                   24318479.4184
 -28550490.73448 -22217636.21147  20272686.9384                   20272684.6644
 -24122840.03946 -18417395.82842  24672913.2344                   24672914.3204
 -15793064.69548 -12277780.06246  21683137.8914                   21683138.3164
 -33574948.91847 -26132184.52746  21388660.5634                   21388656.7074
 -13415069.31248 -10423882.44545  21760470.7114                   21760469.1094
 11  8 24  1 41 30.0000000  0  8G12G10G29G26G05G25G02G30
 -26460024.48048 -20589729.35946  21093524.8674                   21093523.3324
 -22027087.93747 -17129191.43044  22941246.7894                   22941245.6884
  -2964575.53547  -2275534.70345  23196961.2344                   23196960.6214
   3903100.02746   3065998.38343  24294246.7504                   24294248.7344
 -28576518.77748 -22237917.78147  20267733.7814                   20267731.7344
 -15847297.42648 -12320039.31646  21672817.8444                   21672818.3634
 -33573436.72348 -26131006.20346  21388948.2194                   21388944.1884
 -13459869.65248 -10458791.80145  21751945.1094                   21751944.4304
 11  8 24  1 42  0.0000000  0  8G12G10G29G26G05G25G02G30
 -26448637.82848 -20580856.65246  21095691.9924                   21095689.9304
 -21962605.78947 -17078945.62144  22953516.9304                   22953516.2624
  -3080922.62947  -2366194.73844  23174820.8834                   23174820.0164
   3775721.69946   2966742.68843  24270007.3914                   24270008.6564
 -28601977.80148 -22257755.95747  20262888.9614                   20262886.9024
 -15900948.41448 -12361845.25846  21662608.0864                   21662608.8094
 -33571821.91048 -26129747.91046  21389255.3524                   21389252.1884
 -13504058.81648 -10493224.89145  21743536.5394                   21743535.2664
 11  8 24  1 42 30.0000000  0  8G12G10G29G26G05G25G02G30
 -26436717.82048 -20571568.34046  21097960.0634                   21097958.2774
 -21897847.50046 -17028484.62944  22965840.1954                   22965839.4844
  -3197233.04747  -2456826.19544  23152687.5084                   23152686.8594
   3648318.30946   2867467.44943  24245763.1174                   24245763.9184
 -28626853.68748 -22277139.74247  20258155.3984                   20258153.3524
 -15954001.82848 -12403185.57046  21652512.4844                   21652513.0514
 -33570089.71148 -26128398.15646  21389585.2664                   21389581.9454
 -13547621.41048 -10527169.76645  21735246.9924                   21735245.5824
 11  8 24  1 43  0.0000000  0  8G12G10G29G26G05G25G02G30
 -26424269.89848 -20561868.66846  21100328.7274                   21100326.9884
 -21832819.46547 -16977813.46144  22978214.6094                   22978213.6094
  -3313508.51647  -2547430.41845  23130561.1094                   23130560.3054
   3520889.25046   2768172.18443  24221514.2424                   24221514.8984
 -28651150.78548 -22296072.52347  20253531.7974                   20253529.9184
 -16006460.77748 -12444062.64146  21642529.5234                   21642530.5044
 -33568244.03948 -26126959.97746  21389936.4694                   21389932.9104
 -13590561.23048 -10560629.35245  21727075.5944                   21727074.3914
 11  8 24  1 43 30.0000000  0  8G12G10G29G26G05G25G02G30
 -26411305.29748 -20551766.39546  21102796.1804                   21102794.0234
 -21767534.03146 -16926941.73844  22990637.9694                   22990637.1374
  -3429757.55147  -2638014.05545  23108439.7034                   23108438.8554
   3393428.06346   2668851.90643  24197258.9224                   24197260.0204
 -28674879.56248 -22314562.46547  20249016.1804                   20249014.1604
 -16058334.29348 -12484483.55146  21632658.6334                   21632658.9304
 -33566294.82848 -26125441.10946  21390307.5314                   21390303.8244
 -13632887.86348 -10593611.12545  21719020.8524                   21719020.0084
 11  8 24  1 44  0.0000000  0  8G12G10G29G26G05G25G02G30
 -26397822.10248 -20541260.02046  21105362.0394                   21105360.4884
 -21701990.39147 -16875868.80144  23003110.5234                   23003109.8204
  -3545974.73847  -2728572.85945  23086324.4144                   23086323.0784
   3265942.02746   2569512.24243  24172998.8054                   24172999.8164
 -28698037.10248 -22332607.28147  20244609.3914                   20244607.5004
 -16109618.25448 -12524445.05946  21622899.5704                   21622900.3754
 -33564238.98448 -26123839.15646  21390699.0314                   21390694.6134
 -13674597.72348 -10626112.30545  21711083.8754                   21711082.8634
 11  8 24  1 44 30.0000000  0  8G12G10G29G26G05G25G02G30
 -26383823.76248 -20530352.23446  21108025.5314                   21108023.9224
 -21636192.82846 -16824598.01644  23015631.6804                   23015631.3484
  -3662159.70747  -2819106.55145  23064215.2734                   23064213.7584
   3138432.66846   2470154.41043  24148734.6024                   24148735.7194
 -28720625.83648 -22350208.88347  20240310.8204                   20240309.0514
 -16160313.47348 -12563947.79746  21613252.7974                   21613253.2854
 -33562077.99248 -26122155.27346  21391110.1804                   21391106.4304
 -13715692.18048 -10658133.94145  21703264.1724                   21703262.7114
 11  8 24  1 45  0.0000000  0  8G12G10G29G26G05G25G02G30
 -26369313.30548 -20519045.40246  21110786.6724                   21110784.9224
 -21570145.34047 -16773132.48444  23028199.7504                   23028199.7894
  -3778312.18447  -2909614.93044  23042111.6024                   23042111.1524
   3010902.24647   2370780.19143  24124466.0314                   24124467.1604
 -28742647.88748 -22367368.91047  20236120.3134                   20236118.4614
 -16210420.73848 -12602992.39846  21603717.6094                   21603718.1054
 -33559813.52348 -26120390.75046  21391540.6484                   21391537.0744
 -13756172.55948 -10689677.07845  21695560.7194                   21695559.5004
 11  8 24  1 45 30.0000000  0  8G12G10G29G26G05G25G02G30
 -26354275.80148 -20507327.88346  21113648.5164                   21113646.5664
 -21503833.94947 -16721461.27744  23040818.0784                   23040818.2154
  -3894414.24647  -3000084.03545  23020018.6484                   23020017.3794
   2883370.52346   2271404.90643  24100198.0084                   24100198.4024
 -28764087.57448 -22384075.14847  20232040.3284                   20232038.2974
 -16259923.16848 -12641565.70346  21594297.6484                   21594298.1054
 -33557429.17248 -26118532.80946  21391994.2504                   21391990.5164
 -13796022.53948 -10720729.00045  21687977.5634                   21687976.6524
 11  8 24  1 46  0.0000000  0  8G12G10G29G26G05G25G02G30
 -26338722.34448 -20495208.33246  21116608.0234                   21116606.5004
 -21437270.34847 -16669593.57044  23053485.2034                   23053484.4344
  -4010472.45747  -3090518.95345  22997932.6804                   22997932.5824
   2755831.77746   2172024.16443  24075928.1564                   24075928.6684
 -28784954.71548 -22400335.24247  20228069.6484                   20228067.4454
 -16308828.96548 -12679674.09846  21584991.2664                   21584992.0394
 -33554934.18448 -26116588.65246  21392469.2344                   21392465.4734
 -13835250.98448 -10751296.61745  21680512.3834                   21680511.5274
 11  8 24  1 46 30.0000000  0  8G12G10G29G26G05G25G02G30
 -26322671.34848 -20482701.08646  21119662.5164                   21119660.6414
 -21370473.80547 -16617544.34044  23066196.4064                   23066195.4414
  -4126502.06647  -3180931.57845  22975852.9844                   22975852.7974
   2628273.22747   2072627.99243  24051654.6884                   24051655.9494
 -28805266.85548 -22416162.87547  20224204.3984                   20224202.5274
 -16357154.41448 -12717330.28546  21575794.7814                   21575795.7344
 -33552345.19548 -26114571.24246  21392962.1024                   21392958.2464
 -13873874.65648 -10781392.98445  21673162.5634                   21673161.6254
 11  8 24  1 47  0.0000000  0  8G12G10G29G26G05G25G02G30
 -26306114.98448 -20469800.04346  21122813.4304                   21122811.3794
 -21303437.20747 -16565308.05944  23078952.8364                   23078952.4654
  -4242491.71147  -3271313.06245  22953781.2734                   22953780.7424
   2500707.83647   1973226.51243  24027379.5474                   24027380.5744
 -28825015.10548 -22431551.11747  20220446.2424                   20220444.4694
 -16404889.23448 -12754526.23846  21566711.0164                   21566711.7854
 -33549652.73848 -26112473.21146  21393474.3204                   21393470.7624
 -13911883.88748 -10811010.55545  21665929.7034                   21665928.7704
 11  8 24  1 47 30.0000000  0  8G12G10G29G26G05G25G02G30
 -26289053.71548 -20456505.56646  21126060.0234                   21126058.1644
 -21236162.02047 -16512885.85244  23091755.0234                   23091754.1484
  -4358438.27747  -3361660.98445  22931717.2974                   22931716.6604
   2373140.13747   1873823.21543  24003103.9694                   24003104.8014
 -28844199.55548 -22446500.03147  20216795.9224                   20216793.6804
 -16452031.89148 -12791260.77046  21557740.3444                   21557740.7814
 -33546856.12948 -26110294.02746  21394006.3834                   21394002.7274
 -13949277.63748 -10840148.54745  21658814.0394                   21658812.6804
 11  8 24  1 48  0.0000000  0  8G12G10G29G26G05G25G02G30
 -26271487.61748 -20442817.71546  21129402.4304                   21129400.7974
 -21168649.35947 -16460278.61344  23104601.9304                   23104601.8594
  -4474338.21147  -3451972.57045  22909661.9144                   22909661.6844
   2245575.41047   1774422.24643  23978829.6484                   23978830.0004
 -28862818.99248 -22461008.66447  20213252.1884                   20213250.2464
 -16498580.18048 -12827532.16046  21548882.2034                   21548883.0704
 -33543953.41848 -26108032.17646  21394558.6024                   21394554.8014
 -13986054.40248 -10868805.77345  21651815.6174                   21651814.1764
 11  8 24  1 48 30.0000000  0  8G12G10G29G26G05G25G02G30
 -26253431.45348 -20428747.98846  21132838.6174                   21132836.7934
 -21100914.63347 -16407498.33243  23117491.4844                   23117491.0204
  -4590202.75447  -3542256.57045  22887613.8674                   22887613.1764
   2118004.03946   1675016.09843  23954553.0394                   23954553.9774
 -28880887.39848 -22475087.93047  20209814.4384                   20209811.8794
 -16544546.68448 -12863350.20746  21540135.4304                   21540136.1764
 -33540957.85548 -26105697.96146  21395128.6884                   21395125.1564
 -14022227.30948 -10896992.44945  21644932.2424                   21644930.9654
 11  8 24  1 49  0.0000000  0  8G12G10G29G26G05G25G02G30
 -26234879.78148 -20414292.14846  21136368.9924                   21136367.0594
 -21032952.55947 -16354540.89543  23130424.4694                   23130423.5664
  -4706021.80947  -3632505.14545  22865574.3284                   22865573.8244
   1990437.42646   1575613.64543  23930277.6024                   23930278.7854
 -28898397.58248 -22488732.22347  20206482.2274                   20206479.9144
 -16589923.00448 -12898708.37546  21531500.5634                   21531500.7074
 -33537861.43748 -26103285.15646  21395718.0864                   21395714.4384
 -14057788.49247 -10924702.46145  21638165.2114                   21638164.2074
 11  8 24  1 49 30.0000000  0  8G12G10G29G26G05G25G02G30
 -26215840.80148 -20399456.59446  21139992.0784                   21139989.8164
 -20964772.68047 -16301413.74643  23143398.6024                   23143397.5634
  -4821800.64547  -3722722.37945  22843542.5314                   22843541.6524
   1862872.22746   1476212.29743  23906002.6564                   23906003.6174
 -28915357.84848 -22501948.00047  20203254.4454                   20203252.4844
 -16634715.64548 -12933611.72746  21522977.0554                   21522977.1564
 -33534671.16448 -26100799.22346  21396325.2584                   21396321.4264
 -14092745.05948 -10951941.34845  21631513.0634                   21631511.7544
 11  8 24  1 50  0.0000000  0  8G12G10G29G26G05G25G02G30
 -26196304.60948 -20384233.59446  21143709.8134                   21143707.7114
 -20896365.37147 -16248109.37143  23156415.6804                   23156415.0004
  -4937525.21147  -3812897.33645  22821520.5004                   22821519.6174
   1735324.18046   1376824.35543  23881730.6024                   23881731.6764
 -28931756.83648 -22514726.42647  20200134.1094                   20200132.0274
 -16678912.22748 -12968050.60246  21514566.5554                   21514566.9844
 -33531375.21548 -26098230.94146  21396952.2194                   21396948.7894
 -14127085.24247 -10978699.93045  21624978.4924                   21624977.0274
 11  8 24  1 50 30.0000000  0  8G12G10G29G26G05G25G02G30
 -26176281.81648 -20368631.43446  21147519.8284                   21147517.9734
 -20827742.05547 -16194636.67243  23169474.7034                   23169473.5944
  -5053202.60947  -3903035.53945  22799508.1024                   22799507.0124
   1607788.10946   1277445.69943  23857461.6484                   23857462.3914
 -28947604.28148 -22527075.06247  20197118.4614                   20197116.1804
 -16722521.13348 -13002031.56646  21506268.0234                   21506268.6994
 -33527982.26648 -26095587.07846  21397598.1024                   21397594.1484
 -14160818.02048 -11004985.21946  21618559.0554                   21618558.3404
 11  8 24  1 51  0.0000000  0  8G12G10G29G26G05G25G02G30
 -26155781.77748 -20352657.39846  21151420.8834                   21151419.0594
 -20758912.85547 -16141003.51643  23182572.6174                   23182571.6024
  -5168838.36747  -3993141.30545  22777503.2664                   22777502.3164
   1480259.91446   1178073.20343  23833193.7424                   23833194.3954
 -28962909.12548 -22539000.89847  20194206.0474                   20194203.8794
 -16765549.55548 -13035560.20346  21498079.9614                   21498080.3834
 -33524500.05948 -26092873.66446  21398260.4614                   21398256.8794
 -14193951.10248 -11030803.18745  21612254.1254                   21612252.8554
 11  8 24  1 51 30.0000000  0  8G12G10G29G26G05G25G02G30
 -26134804.68048 -20336311.62146  21155412.6644                   21155410.8754
 -20689878.81247 -16087210.77344  23195708.9844                   23195708.4344
  -5284429.05547  -4083211.95745  22755507.0394                   22755506.0514
   1352744.59446   1078710.72343  23808928.1954                   23808928.9774
 -28977670.69548 -22550503.40247  20191396.8204                   20191394.8674
 -16807995.74648 -13068635.14546  21490002.9694                   21490003.4264
 -33520927.16048 -26090089.58646  21398940.2974                   21398936.5944
 -14226483.36348 -11056153.00045  21606063.5474                   21606062.0044
 11  8 24  1 52  0.0000000  0  8G12G10G29G26G05G25G02G30
 -26113339.82448 -20319585.75846  21159496.9694                   21159494.8754
 -20620628.81647 -16033249.76244  23208887.1484                   23208886.1414
  -5399959.32847  -4173235.52345  22733522.5314                   22733521.0204
   1225259.10546    979371.53543  23784668.3834                   23784668.8874
 -28991876.46548 -22561572.80547  20188693.5084                   20188691.6644
 -16849846.12148 -13101245.80946  21482038.6954                   21482039.6844
 -33517250.28548 -26087224.48046  21399640.0474                   21399636.7934
 -14258401.78148 -11081024.48845  21599990.0634                   21599988.4964
 11  8 24  1 52 30.0000000  0  8G12G10G29G26G05G25G02G30
 -26091391.69148 -20302483.34446  21163674.2194                   21163672.0864
 -20551168.64847 -15979124.98044  23222105.0234                   23222103.9534
  -5515429.92247  -4263212.61345  22711549.2584                   22711548.0634
   1097804.26647    880056.16843  23760414.9924                   23760415.0004
 -29005530.25048 -22572212.11747  20186095.2194                   20186093.1564
 -16891103.10948 -13133394.12146  21474187.6484                   21474188.5164
 -33513471.91048 -26084280.30946  21400359.3984                   21400355.5664
 -14289709.48047 -11105420.10246  21594031.8754                   21594030.8484
 11  8 24  1 53  0.0000000  0  8G12G10G29G26G05G25G02G30
 -26068983.48048 -20285022.41446  21167938.1884                   21167935.8754
 -20481522.00847 -15924854.89144  23235358.1174                   23235358.0004
  -5630860.38747  -4353158.42645  22689583.1334                   22689582.1094
    970362.59447    780751.06643  23736163.0944                   23736163.7384
 -29018654.78948 -22582439.01647  20183597.6254                   20183595.3094
 -16931787.89148 -13165096.53946  21466445.2274                   21466446.4064
 -33509613.83248 -26081274.00846  21401093.3834                   21401090.1484
 -14320428.15648 -11129356.73445  21588186.3594                   21588185.0944
 11  8 24  1 53 30.0000000  0  8G12G10G29G26G05G25G02G30
 -24470665.54748 -19039579.87946  21472087.7894                   21472085.6484
 -18836241.50047 -14642818.14844  23548444.9304                   23548444.5084
  -4170792.60247  -3215443.26645  22967425.1564                   22967423.7154
   2418393.96147   1909087.30943  24011714.3754                   24011714.2934
 -27455798.19948 -21364628.66847  20480999.5944                   20480997.4494
 -15396446.52748 -11968726.64546  21758611.3754                   21758612.0124
 -31930223.40248 -24850580.16446  21701641.2734                   21701637.7934
 -12775104.75447  -9925208.62945  21882251.6954                   21882250.5314
 11  8 24  1 54  0.0000000  0  8G12G10G29G26G05G25G02G30
 -24447292.65248 -19021367.24646  21476535.6564                   21476533.7114
 -18766179.19147 -14588224.17244  23561777.1724                   23561776.8714
  -4286086.46547  -3305282.63345  22945485.5634                   22945484.1884
   2291039.47746   1809850.16443  23987479.3284                   23987480.1024
 -27467816.93748 -21373993.90647  20478712.4774                   20478710.2664
 -15435935.84848 -11999497.53546  21751096.7814                   21751097.5234
 -31926154.81648 -24847409.84446  21702415.4924                   21702411.7704
 -12804596.16048  -9948188.93445  21876639.7344                   21876638.6024
 11  8 24  1 54 30.0000000  0  8G12G10G29G26G05G25G02G30
 -24423450.39848 -19002788.88746  21481072.5634                   21481070.9804
 -18695922.30147 -14533478.55944  23575146.6254                   23575146.3364
  -4401318.32447  -3395073.67645  22923557.2734                   22923556.2934
   2163724.33246   1710643.63343  23963252.6484                   23963252.5394
 -27479293.95748 -21382937.02047  20476528.3984                   20476526.1684
 -15474836.73848 -12029809.89846  21743694.2584                   21743694.4614
 -31921990.82848 -24844165.18746  21703207.8914                   21703204.2814
 -12833484.05148  -9970698.97745  21871142.7974                   21871141.1294
 11  8 24  1 55  0.0000000  0  8G12G10G29G26G05G25G02G30
 -24399136.48447 -18983842.99246  21485699.4224                   21485697.4774
 -18625469.03147 -14478579.93444  23588553.4534                   23588552.9614
  -4516482.51647  -3484811.98445  22901641.9384                   22901641.0984
   2036456.27046   1611473.82844  23939033.3444                   23939034.8284
 -27490226.25048 -21391455.66847  20474448.0944                   20474446.0434
 -15513145.03948 -12059660.52346  21736404.4304                   21736405.2424
 -31917727.03547 -24840842.76646  21704019.5084                   21704015.3794
 -12861764.92647  -9992736.01645  21865760.7664                   21865759.2734
 11  8 24  1 55 30.0000000  0  8G12G10G29G26G05G25G02G30
 -24374361.37547 -18964537.73046  21490413.8834                   21490411.8914
 -18554830.40247 -14423536.86343  23601994.8754                   23601994.8674
  -4631585.32447  -3574502.45745  22879738.7584                   22879737.5164
   1909230.69947   1512337.10243  23914824.2664                   23914824.2774
 -27500623.46148 -21399557.36747  20472469.3054                   20472467.3484
 -15550869.08648 -12089055.85946  21729225.6414                   21729226.2974
 -31913371.76648 -24837449.04346  21704847.9384                   21704844.2424
 -12889447.75048 -10014307.02045  21860493.0004                   21860491.6564
 11  8 24  1 56  0.0000000  0  8G12G10G29G26G05G25G02G30
 -24349128.84847 -18944876.02746  21495215.3364                   21495213.3674
 -18484011.18447 -14368353.08244  23615472.2424                   23615471.8554
  -4746626.30947  -3664144.75445  22857847.5864                   22857846.3754
   1782049.41446   1413234.89543  23890622.0554                   23890621.9614
 -27510488.87548 -21407244.69547  20470592.2664                   20470590.0784
 -15588010.64848 -12117997.32846  21722158.2114                   21722158.3484
 -31908927.14148 -24833985.69146  21705694.1024                   21705690.5394
 -12916534.84448 -10035413.84445  21855338.4844                   21855337.1564
 11  8 24  1 56 30.0000000  0  8G12G10G29G26G05G25G02G30
 -24323439.16848 -18924858.11746  21500104.3594                   21500102.0124
 -18413011.35947 -14313028.57843  23628983.2424                   23628982.2274
  -4861601.51647  -3753735.77745  22835968.0474                   22835967.0634
   1654918.21546   1314171.70744  23866429.1484                   23866430.0554
 -27519821.32048 -21414516.71547  20468816.3674                   20468814.2624
 -15624567.52048 -12146483.19146  21715201.5784                   21715201.8444
 -31904390.77748 -24830450.86746  21706557.0784                   21706553.7584
 -12943024.62548 -10056055.23045  21850297.5864                   21850296.2424
 11  8 24  1 57  0.0000000  0  8G12G10G29G26G05G25G02G30
 -24297294.73047 -18904485.84046  21505079.2734                   21505077.5904
 -18341834.02347 -14257565.75043  23642527.2424                   23642526.9574
  -4976509.52347  -3843274.43045  22814102.0314                   22814100.7894
   1527840.17646   1215149.97344  23842246.4924                   23842247.2894
 -27528622.77748 -21421374.97747  20467141.5234                   20467139.2114
 -15660540.21148 -12174513.84846  21708356.1804                   21708356.6914
 -31899763.30948 -24826845.05946  21707437.8284                   21707433.7274
 -12968918.17648 -10076232.00845  21845370.5394                   21845368.5944
 11  8 24  1 57 30.0000000  0  8G12G10G29G26G05G25G02G30
 -24270699.12548 -18883762.01246  21510139.9064                   21510137.9224
 -18270482.83647 -14201967.45343  23656105.3204                   23656104.5354
  -5091349.61347  -3932760.16845  22792248.3524                   22792247.8554
   1400817.43446   1116171.28144  23818075.8754                   23818075.4344
 -27536895.89848 -21427821.55547  20465567.1024                   20465564.9144
 -15695930.23048 -12202090.48446  21701621.8134                   21701622.0944
 -31895046.03548 -24823169.26646  21708335.1254                   21708331.9384
 -12994217.62148 -10095945.86345  21840555.9304                   21840554.4534
 11  8 24  1 58  0.0000000  0  9G12G10G29G26G05G15G25G02G30
 -24243641.24247 -18862677.96946  21515289.1254                   21515287.1294
 -18198947.24247 -14146225.43743  23669717.7114                   23669717.7704
  -5206105.94147  -4022180.63745  22770411.0474                   22770410.1024
   1273867.41046   1017249.26244  23793917.7504                   23793917.8094
 -27544628.48048 -21433846.93047  20464095.7734                   20464093.3674
   9268179.60956   7247326.96553  24697142.9144                   24697144.3834
 -15730724.05548 -12229202.56246  21695000.4924                   21695001.2584
 -31890225.51248 -24819413.02346  21709252.5784                   21709249.0354
 -13018910.06648 -10115186.72745  21835857.2424                   21835855.4414
 11  8 24  1 58 30.0000000  0  9G12G10G29G26G05G15G25G02G30
 -24216129.65648 -18841240.37946  21520524.7894                   21520522.4774
 -18127236.27347 -14090346.80543  23683363.5784                   23683363.4964
  -5320783.75047  -4111539.91445  22748588.7114                   22748587.7704
   1146987.08246    918381.57444  23769773.1334                   23769772.9384
 -27551828.32848 -21439457.18747  20462725.5004                   20462723.3754
   9142710.34846   7149558.86743  24673267.8674                   24673268.2464
 -15764928.49648 -12255855.36746  21688491.9064                   21688492.3364
 -31885308.12548 -24815581.29346  21710188.5234                   21710184.6604
 -13043002.87948 -10133960.32845  21831272.0704                   21831271.0554
 11  8 24  1 59  0.0000000  0  9G12G10G29G26G05G15G25G02G30
 -24188174.94948 -18819457.51246  21525844.1804                   21525842.2584
 -18055360.28947 -14034339.55543  23697041.7034                   23697040.6134
  -5435388.83247  -4200842.52045  22726779.7424                   22726778.7384
   1020171.89546    819564.63743  23745640.4844                   23745640.9224
 -27558504.85248 -21444659.66447  20461454.7814                   20461452.7504
   9017115.89546   7051693.20343  24649367.2584                   24649368.6094
 -15798551.78948 -12282055.33646  21682093.2664                   21682093.9774
 -31880302.14848 -24811680.53546  21711141.0864                   21711137.0204
 -13066504.87148 -10152273.58246  21826800.2114                   21826798.9574
 11  8 24  1 59 30.0000000  0  9G12G10G29G26G05G15G25G02G30
 -24159786.83648 -18797336.92246  21531246.2194                   21531244.0904
 -17983329.48047 -13978211.68043  23710748.9924                   23710748.0474
  -5549926.80147  -4290092.83645  22704983.7814                   22704982.9414
    893417.94947    720795.43444  23721520.2194                   23721520.2934
 -27564667.07848 -21449461.39547  20460282.3754                   20460280.5274
   8891391.42246   6953726.22343  24625442.3984                   24625443.8324
 -15831601.65248 -12307808.49246  21675803.8754                   21675804.8794
 -31875215.18047 -24807716.65646  21712109.0944                   21712105.0784
 -13089424.46947 -10170133.00845  21822438.5314                   21822437.4694
 11  8 24  2  0  0.0000000  0  9G12G10G29G26G05G15G25G02G30
 -24130960.85547 -18774875.14546  21536731.4924                   21536729.7974
 -17911139.87547 -13921960.05543  23724486.5704                   23724485.4024
  -5664388.70747  -4379283.87945  22683202.7034                   22683201.8094
    766735.55947    622081.96144  23697413.2344                   23697413.3834
 -27570309.96548 -21453858.44147  20459208.5394                   20459206.1914
   8765546.16046   6855665.11343  24601494.7194                   24601496.0744
 -15864071.58648 -12333109.73446  21669625.3284                   21669625.9734
 -31870040.12147 -24803684.14145  21713094.0164                   21713089.8054
 -13111755.69147 -10187533.96145  21818189.0864                   21818187.6374
 11  8 24  2  0 30.0000000  0  9G12G10G29G26G05G15G25G02G30
 -24101701.68748 -18752075.80546  21542299.3134                   21542297.2304
 -17838796.09447 -13865588.29743  23738252.8134                   23738251.9884
  -5778774.70747  -4468415.77745  22661435.7584                   22661434.6334
    640126.19947    523425.41044  23673320.5164                   23673320.4774
 -27575437.20748 -21457853.68747  20458232.8914                   20458230.8674
   8639580.62946   6757510.25443  24577524.2584                   24577525.2344
 -15895964.13748 -12357961.08646  21663556.5234                   21663557.2734
 -31864779.52048 -24799584.96946  21714094.9924                   21714091.3054
 -13133501.71948 -10204478.93446  21814051.1334                   21814049.4614
 11  8 24  2  1  0.0000000  0  9G12G10G29G26G05G15G25G02G30
 -24072006.12147 -18728936.42646  21547950.3674                   21547948.8284
 -17766295.16447 -13809094.09043  23752048.8754                   23752048.6024
  -5893077.65647  -4557482.97345  22639684.7584                   22639683.5904
    513598.92247    424832.81644  23649243.0634                   23649243.1564
 -27580044.68748 -21461443.92647  20457356.0004                   20457354.1954
   8513503.24646   6659268.27343  24553532.9774                   24553533.9104
 -15927274.06648 -12382358.44946  21657598.4924                   21657598.8164
 -31859427.86348 -24795414.85246  21715112.8364                   21715109.5824
 -13154657.96148 -10220964.32445  21810025.3134                   21810023.5274
 11  8 24  2  1 30.0000000  0  9G12G10G29G26G05G15G25G02G30
 -24041871.41448 -18705454.85246  21553684.9144                   21553682.6254
 -17693634.59047 -13752475.46944  23765876.5704                   23765875.5084
  -6007290.50847  -4646479.96145  22617950.7034                   22617949.7664
    387162.35547    326310.89844  23625182.8444                   23625183.2384
 -27584128.89548 -21464626.42247  20456578.7504                   20456576.9924
   8387321.47746   6560944.93443  24529520.4384                   24529521.3404
 -15957996.83248 -12406298.26646  21651752.0864                   21651752.3324
 -31853980.02048 -24791169.77046  21716150.4304                   21716146.4144
 -13175220.38748 -10236986.99245  21806112.1804                   21806110.8164
 11  8 24  2  2  0.0000000  0  9G12G10G29G26G05G15G25G02G30
 -24011307.89148 -18681639.14146  21559500.8594                   21559499.3634
 -17620824.72347 -13695740.52043  23779731.3594                   23779730.7664
  -6121418.94947  -4735411.17645  22596232.4614                   22596231.6564
    260812.44547    227856.51644  23601139.5394                   23601139.3404
 -27587699.17248 -21467408.45346  20455899.5164                   20455897.4384
   8261030.10946   6462536.22343  24505488.9384                   24505489.2114
 -15988140.60948 -12429786.93746  21646015.8204                   21646016.0904
 -31848444.19948 -24786856.13746  21717203.6954                   21717199.6804
 -13195197.84448 -10252553.85545  21802310.3444                   21802309.2934
 11  8 24  2  2 30.0000000  0  9G12G10G29G26G05G15G25G02G30
 -23980313.62548 -18657487.78146  21565398.9844                   21565397.3244
 -17547864.25047 -13638888.22743  23793615.4534                   23793614.4804
  -6235457.19547  -4824272.10945  22574531.6644                   22574531.0274
    134556.75047    129475.54344  23577113.8284                   23577113.9384
 -27590753.16048 -21469788.18047  20455318.3524                   20455316.1914
   8134635.96146   6364047.41043  24481436.4064                   24481437.0514
 -16017701.70348 -12452821.55946  21640390.6334                   21640391.0984
 -31842815.97748 -24782470.50046  21718274.6174                   21718270.5744
 -13214587.20748 -10267662.45745  21798621.1954                   21798619.8714
 11  8 24  2  3  0.0000000  0  9G12G10G29G26G05G15G25G02G30
 -23948895.49248 -18633006.13746  21571377.6024                   21571375.7464
 -17474759.49347 -13581923.50743  23807526.4614                   23807526.3984
  -6349406.82847  -4913063.98845  22552847.7734                   22552846.6844
      8394.88347     31167.68444  23553105.6564                   23553105.4454
 -27593296.34048 -21471769.86747  20454834.1954                   20454832.1094
   8008137.47747   6265477.28143  24457364.2584                   24457365.1684
 -16046684.45748 -12475405.52346  21634875.2504                   21634875.9264
 -31837099.41048 -24778016.02346  21719362.2894                   21719358.3134
 -13233393.47748 -10282316.69145  21795042.2584                   21795040.9844
 11  8 24  2  3 30.0000000  0  9G12G10G29G26G05G15G25G02G30
 -23917050.75848 -18608192.07046  21577437.2504                   21577435.8914
 -17401507.89846 -13524844.37143  23821465.7194                   23821465.5944
  -6463260.93047  -5001781.43445  22531182.2814                   22531180.7934
   -117664.44547    -67060.27344  23529117.4454                   23529116.8834
 -27595325.35948 -21473350.92247  20454448.1484                   20454446.2304
   7881542.66447   6166832.12943  24433273.9064                   24433274.3954
 -16075084.50848 -12497535.44146  21629471.2504                   21629471.2734
 -31831289.43748 -24773488.75445  21720467.8444                   21720464.0904
 -13251612.85248 -10296513.61345  21791574.9614                   21791573.9144
 11  8 24  2  4  0.0000000  0  9G12G10G29G26G05G15G25G02G30
 -23884786.35948 -18583051.00446  21583577.7664                   21583575.3014
 -17328116.66446 -13467656.44943  23835430.8914                   23835431.4344
  -6577022.34847  -5090426.65245  22509533.8834                   22509532.4024
   -243622.32447   -165209.18444  23505148.0084                   23505147.7624
 -27596846.53948 -21474536.25447  20454159.1094                   20454156.8284
   7754849.31347   6068110.15243  24409165.6254                   24409165.1564
 -16102906.82848 -12519215.18046  21624175.8984                   21624176.7114
 -31825390.78548 -24768892.39545  21721589.7274                   21721586.5354
 -13269250.89848 -10310257.54745  21788218.6254                   21788217.5554
 11  8 24  2  4 30.0000000  0  9G12G10G29G26G05G15G25G02G30
 -23852107.43448 -18557586.91846  21589796.0164                   21589793.6254
 -17254590.88346 -13410363.66443  23849422.9224                   23849423.1214
  -6690691.02347  -5178999.60245  22487903.6724                   22487902.3874
   -369477.21547   -263277.85544  23481198.7814                   23481198.6914
 -27597863.62148 -21475328.78547  20453965.0004                   20453963.0084
   7628057.98447   5969311.87144  24385037.7114                   24385037.5314
 -16130154.27748 -12540446.96546  21618991.4614                   21618992.5084
 -31819405.78547 -24764228.75045  21722729.1414                   21722725.0704
 -13286311.07848 -10323551.19545  21784972.6024                   21784971.1524
 11  8 24  2  5  0.0000000  0  9G12G10G29G26G05G15G25G02G30
 -23819009.48048 -18531796.32846  21596094.2664                   21596092.1374
 -17180926.21547 -13352962.66843  23863441.5314                   23863441.0274
  -6804258.17247  -5267493.43445  22466292.0944                   22466291.3164
   -495218.83247   -361258.24244  23457271.1484                   23457270.7854
 -27598371.77748 -21475724.74647  20453868.7114                   20453866.2504
   7501178.29746   5870444.71144  24360893.3134                   24360893.1524
 -16156820.65248 -12561225.96546  21613917.0944                   21613918.0744
 -31813327.51647 -24759492.43446  21723885.4614                   21723882.2774
 -13302787.82848 -10336390.22745  21781837.0474                   21781835.3554
 11  8 24  2  5 30.0000000  0  9G12G10G29G26G05G15G25G02G30
 -23785506.15647 -18505689.85546  21602469.3594                   21602468.0274
 -17107136.71147 -13295464.36343  23877482.8834                   23877482.3914
  -6917733.52347  -5355915.71545  22444698.7194                   22444697.5744
   -620855.03547   -459156.50044  23433363.3594                   23433362.5354
 -27598383.97748 -21475734.25047  20453866.3364                   20453863.6844
   7374201.13746   5771501.60243  24336729.9304                   24336729.5164
 -16182918.10948 -12581561.66046  21608951.0314                   21608951.4384
 -31807167.66448 -24754692.54345  21725058.1564                   21725054.0664
 -13318693.90648 -10348784.56245  21778810.3364                   21778808.8284
 11  8 24  2  6  0.0000000  0  9G12G10G29G26G05G15G25G02G30
 -23751593.32047 -18479264.29346  21608922.7424                   21608921.2504
 -17033217.77346 -13237865.21143  23891549.6174                   23891549.0944
  -7031107.86747  -5444259.30145  22423124.2344                   22423122.9184
   -746375.18447   -556964.32843  23409477.0164                   23409476.9024
 -27597894.80548 -21475353.07446  20453959.1174                   20453957.3484
   7247136.29746   5672490.17643  24312549.5394                   24312549.9454
 -16208440.20748 -12601449.01246  21604094.4224                   21604095.0704
 -31800919.03148 -24749823.46145  21726247.3754                   21726243.5824
 -13334023.43448 -10360729.64845  21775892.8674                   21775891.7114
 11  8 24  2  6 30.0000000  0  9G12G10G29G26G05G15G25G02G30
 -23717267.84848 -18452517.18446  21615454.7424                   21615453.2934
 -16959166.13346 -13180162.67643  23905641.4694                   23905640.0824
  -7144373.35547  -5532518.05945  22401570.4534                   22401569.3524
   -871770.03547   -654674.52043  23385615.5474                   23385615.2154
 -27596900.73048 -21474578.46547  20454148.5394                   20454145.9614
   7119992.23446   5573417.00843  24288354.7274                   24288355.2774
 -16233381.90648 -12620884.10946  21599347.9144                   21599349.0084
 -31794575.74248 -24744880.62945  21727454.4304                   21727450.4414
 -13348771.96548 -10372222.02745  21773086.1804                   21773085.2194
 11  8 24  2  7  0.0000000  0  9G12G10G29G26G05G15G25G02G30
 -23682541.66047 -18425457.83646  21622063.1414                   21622061.5784
 -16884993.80946 -13122366.08243  23919754.9144                   23919754.9494
  -7257537.32847  -5620697.70745  22380036.1334                   22380034.4264
   -997044.80147   -752291.15243  23361776.3984                   23361776.1884
 -27595412.30148 -21473418.63746  20454431.5944                   20454429.4494
   6992762.48446   5474277.09043  24264144.1094                   24264144.3874
 -16257753.06248 -12639874.63746  21594710.5474                   21594710.7704
 -31788147.32847 -24739871.46145  21728677.3524                   21728673.2424
 -13362950.06248 -10383269.89545  21770388.4064                   21770387.2114
 11  8 24  2  7 30.0000000  0  9G12G10G29G26G05G15G25G02G30
 -23647404.37947 -18398078.15246  21628749.6484                   21628747.9964
 -16810690.46146 -13064467.38743  23933894.6954                   23933894.1214
  -7370584.93747  -5708786.68045  22358523.6804                   22358522.3244
  -1122183.62547   -849801.83244  23337962.8594                   23337962.8754
 -27593418.93748 -21471865.35946  20454811.4384                   20454809.0784
   6865462.28946   5375082.23443  24239919.1414                   24239919.6054
 -16281541.82048 -12658411.33246  21590183.4064                   21590183.9614
 -31781620.96947 -24734785.98045  21729919.2814                   21729915.4534
 -13376546.39848 -10393864.44145  21767800.9774                   21767799.8324
 11  8 24  2  8  0.0000000  0  9G12G10G29G26G05G15G25G02G30
 -23611866.69547 -18370386.46946  21635512.4304                   21635510.5824
 -16736266.54746 -13006474.74643  23948057.5164                   23948056.5944
  -7483522.15647  -5796789.63745  22337032.5554                   22337030.9574
  -1247190.47347   -947209.68044  23314174.9384                   23314175.0234
 -27590930.01648 -21469925.93447  20455284.9304                   20455282.1764
   6738086.64846   5275828.62143  24215680.8524                   24215681.0164
 -16304756.68748 -12676500.85246  21585765.8594                   21585766.5004
 -31775004.52748 -24729630.31245  21731178.5314                   21731174.7384
 -13389570.05548 -10404012.75845  21765322.7114                   21765321.7194
 11  8 24  2  8 30.0000000  0  9G12G10G29G26G05G15G25G02G30
 -23575933.40647 -18342386.52046  21642349.6644                   21642348.1174
 -16661726.93746 -12948391.96543  23962241.2584                   23962240.4534
  -7596349.44947  -5884706.92645  22315562.0394                   22315560.5984
  -1372064.28947  -1044513.85944  23290412.0164                   23290412.3134
 -27587950.19948 -21467603.98846  20455851.8984                   20455849.5044
   6610635.72347   5176516.33643  24191427.7274                   24191428.0594
 -16327400.99648 -12694145.78146  21581456.6884                   21581457.5314
 -31768300.50047 -24724406.39845  21732454.1804                   21732449.9964
 -13402025.06648 -10413717.96945  21762952.7034                   21762951.3404
 11  8 24  2  9  0.0000000  0  9G12G10G29G26G05G15G25G02G30
 -23539614.38748 -18314085.99646  21649261.3594                   21649259.7504
 -16587081.23846 -12890226.53143  23976445.8284                   23976445.5634
  -7709071.26247  -5972542.03945  22294111.8204                   22294110.5234
  -1496808.11747  -1141716.77044  23266673.8364                   23266673.6214
 -27584488.07448 -21464906.21546  20456510.3914                   20456508.0824
   6483105.34047   5077142.14144  24167159.4694                   24167159.3404
 -16349482.43748 -12711352.10946  21577255.0234                   21577255.4264
 -31761515.62547 -24719119.48045  21733745.3674                   21733741.4804
 -13413919.57848 -10422986.43445  21760689.3984                   21760688.1994
 11  8 24  2  9 30.0000000  0  9G12G10G29G26G05G15G25G02G30
 -23502903.43448 -18285480.07046  21656247.4144                   21656245.3134
 -16512322.82846 -12831973.29743  23990672.2274                   23990672.4734
  -7821677.02047  -6060286.71145  22272683.3834                   22272682.0234
  -1621409.50847  -1238808.68744  23242963.2344                   23242963.6094
 -27580536.29748 -21461826.89547  20457262.2504                   20457260.4304
   6355507.35546   4977715.29344  24142878.1174                   24142878.7734
 -16370992.82048 -12728113.46546  21573161.5234                   21573162.3914
 -31754641.04748 -24713762.65645  21735053.5864                   21735049.5704
 -13425246.12148 -10431812.32445  21758533.4534                   21758532.7154
 11  8 24  2 10  0.0000000  0  9G12G10G29G26G05G15G25G02G30
 -23465803.15247 -18256570.77046  21663307.4454                   21663305.4654
 -16437454.28946 -12773634.20743  24004918.6254                   24004919.0784
  -7934164.55147  -6147939.26645  22251278.0394                   22251276.5634
  -1745865.06647  -1335786.96544  23219280.5474                   23219280.1254
 -27576097.06648 -21458367.73447  20458107.1644                   20458104.6254
   6227844.04747   4878237.54744  24118584.5084                   24118584.8524
 -16391933.30948 -12744430.74646  21569176.5784                   21569177.7704
 -31747676.74248 -24708335.91445  21736378.8284                   21736374.8594
 -13436006.36348 -10440196.94545  21756485.9774                   21756485.2384
 11  8 24  2 10 30.0000000  0  9G12G10G29G26G05G15G25G02G30
 -23428310.10248 -18227355.42246  21670442.1724                   21670440.2114
 -16362472.04346 -12715206.54743  24019188.0554                   24019187.6914
  -8046525.82847  -6235493.43745  22229896.1564                   22229894.8324
  -1870164.83647  -1432643.87944  23195627.0704                   23195626.4454
 -27571166.25448 -21454525.52746  20459045.4144                   20459043.4694
   6100124.27347   4778715.80144  24094280.6024                   24094280.7894
 -16412298.61348 -12760299.82846  21565301.5164                   21565302.4344
 -31740616.55947 -24702834.47345  21737722.4064                   21737718.4414
 -13446195.68448 -10448136.68745  21754546.8594                   21754546.1604
 11  8 24  2 11  0.0000000  0  9G12G10G29G26G05G15G25G02G30
 -23390431.72347 -18197839.80946  21677649.6564                   21677648.1684
 -16287383.86746 -12656696.32043  24033477.0164                   24033476.8714
  -8158763.75447  -6322951.50045  22208537.7034                   22208536.3134
  -1994310.69547  -1529380.84044  23172002.8984                   23172002.2274
 -27565750.97348 -21450305.80947  20460075.9534                   20460073.7894
   5972345.53147   4679148.10244  24069964.2424                   24069965.1174
 -16432094.97348 -12775725.57846  21561534.1724                   21561535.0554
 -31733465.86347 -24697262.50045  21739083.1024                   21739079.2974
 -13455820.85248 -10455636.84845  21752715.6024                   21752714.8594
 11  8 24  2 11 30.0000000  0  9G12G10G29G26G05G15G25G02G30
 -23352171.53547 -18168026.69146  21684930.7344                   21684928.9494
 -16212192.21146 -12598105.43443  24047785.3204                   24047785.2854
  -8270876.73047  -6410312.19945  22187203.5314                   22187201.7274
  -2118298.70347  -1625994.78944  23148408.6804                   23148408.2504
 -27559853.15248 -21445710.08646  20461198.3914                   20461196.2624
   5844510.60946   4579536.62544  24045638.1414                   24045638.7274
 -16451323.27748 -12790708.69946  21557875.3594                   21557876.0354
 -31726224.72347 -24691620.04345  21740460.8984                   21740457.2074
 -13464883.47748 -10462698.65245  21750991.0634                   21750990.4964
 11  8 24  2 12  0.0000000  0  9G12G10G29G26G05G15G25G02G30
 -23313535.04347 -18137920.34446  21692283.0234                   21692281.0554
 -16136902.72346 -12539438.35943  24062112.8134                   24062112.3634
  -8382865.28947  -6497575.96945  22165892.3984                   22165891.3284
  -2242128.19947  -1722485.23844  23124844.4224                   23124844.1994
 -27553477.69548 -21440742.18746  20462411.1954                   20462408.9574
   5716619.26647   4479881.17644  24021301.5554                   24021301.5744
 -16469987.44948 -12805252.21546  21554323.5944                   21554324.3054
 -31718895.68747 -24685909.10545  21741855.6024                   21741851.8324
 -13473387.92248 -10469325.51245  21749373.1024                   21749371.9534
 11  8 24  2 12 30.0000000  0  9G12G10G29G26G05G15G25G02G30
 -23274524.30947 -18107522.37946  21699706.1334                   21699704.4224
 -16061517.33646 -12480696.52743  24076458.3284                   24076457.8484
  -8494727.05547  -6584740.93745  22144605.9384                   22144604.4454
  -2365795.03947  -1818848.94544  23101311.1254                   23101310.7664
 -27546626.21148 -21435403.35946  20463715.3594                   20463713.1764
   5588674.93047   4380184.40644  23996953.8984                   23996954.3954
 -16488088.01248 -12819356.56646  21550879.1644                   21550879.8524
 -31711478.43047 -24680129.43745  21743267.0474                   21743263.6524
 -13481335.41848 -10475518.39546  21747860.5474                   21747859.1844
 11  8 24  2 13  0.0000000  0  9G12G10G29G26G05G15G25G02G30
 -23235144.30147 -18076836.66846  21707200.0944                   21707198.3674
 -15986040.51646 -12421883.47343  24090820.4304                   24090820.8014
  -8606461.96947  -6671807.06245  22123343.4534                   22123342.3444
  -2489297.81647  -1915084.79344  23077809.0944                   23077808.7974
 -27539302.31648 -21429696.41446  20465108.7274                   20465106.3404
   5460678.15247   4280446.77044  23972596.6884                   23972597.0554
 -16505628.20348 -12833024.25846  21547541.1094                   21547541.9964
 -31703975.03548 -24674282.63745  21744695.5784                   21744691.6334
 -13488729.70348 -10481280.19145  21746453.5164                   21746452.5664
 11  8 24  2 13 30.0000000  0  9G12G10G29G26G05G15G25G02G30
 -23195387.27348 -18045857.17246  21714765.7274                   21714764.1054
 -15910464.24646 -12362992.88343  24105201.9694                   24105202.2384
  -8718057.43447  -6758764.53145  22102107.6254                   22102106.2304
  -2612622.60547  -2011181.97344  23054340.9454                   23054340.8954
 -27531498.15248 -21423615.21946  20466593.9454                   20466591.7034
   5332641.93847   4180678.41444  23948232.8054                   23948232.5084
 -16522598.73848 -12846248.05946  21544312.0164                   21544312.4844
 -31696375.18048 -24668360.65646  21746140.9454                   21746137.3204
 -13495562.16848 -10486604.20345  21745153.1024                   21745152.4574
 11  8 24  2 14  0.0000000  0  9G12G10G29G26G05G15G25G02G30
 -23155266.89548 -18014594.54746  21722400.4064                   21722398.6094
 -15834801.58646 -12304035.00043  24119600.6334                   24119600.3754
  -8829522.19547  -6845620.16845  22080896.5784                   22080894.8524
  -2735776.26647  -2107145.78944  23030906.3054                   23030905.2974
 -27523226.22748 -21417169.55146  20468168.2274                   20468166.0594
   5204558.46947   4080873.24244  23923859.2034                   23923859.2234
 -16539011.34048 -12859037.10546  21541188.9304                   21541189.2664
 -31688689.30547 -24662371.65245  21747603.6484                   21747600.1844
 -13501845.06247 -10491499.98445  21743957.7424                   21743956.8834
 11  8 24  2 14 30.0000000  0  9G12G10G29G26G05G15G25G02G30
 -23114783.21547 -17983048.83646  21730104.3284                   21730102.2274
 -15759052.49246 -12245009.74243  24134015.2424                   24134015.4104
  -8940851.52047  -6932370.26245  22059711.5864                   22059709.6644
  -2858752.55947  -2202971.37544  23007504.2664                   23007504.1254
 -27514485.98448 -21410358.96546  20469831.1644                   20469829.0664
   5076433.11347   3981035.41044  23899477.8914                   23899477.3524
 -16554864.52348 -12871390.23846  21538172.0944                   21538172.8484
 -31680914.80547 -24656313.59045  21749083.3594                   21749079.3404
 -13507577.53147 -10495966.86745  21742866.8834                   21742865.7424
 11  8 24  2 15  0.0000000  0  9G12G10G29G26G05G15G25G02G30
 -23073933.00847 -17951217.52346  21737877.2424                   21737876.2234
 -15683213.66046 -12185914.57842  24148447.4454                   24148447.4184
  -9052037.08647  -7019008.35945  22038553.5704                   22038551.8054
  -2981541.75447  -2298651.19544  22984137.6024                   22984137.8674
 -27505273.48848 -21403180.37546  20471584.1564                   20471581.6174
   4948274.62147   3881171.78544  23875089.7274                   23875089.7154
 -16570153.41848 -12883303.65646  21535262.9304                   21535263.6764
 -31673045.70747 -24650181.82445  21750580.5474                   21750576.8364
 -13512755.25447 -10500001.46945  21741881.8444                   21741880.5864
 11  8 24  2 15 30.0000000  0  9G12G10G29G26G05G15G25G02G30
 -23032716.84047 -17919101.04346  21745720.5864                   21745719.1484
 -15607285.24246 -12126749.62543  24162895.6254                   24162895.5124
  -9163074.81647  -7105531.25845  22017423.1884                   22017422.0554
  -3104137.90647  -2394180.58244  22960808.8834                   22960808.8324
 -27495588.48448 -21395633.59846  20473427.3754                   20473425.1524
   4820088.02347   3781286.26244  23850696.6564                   23850696.4694
 -16584877.10548 -12894776.65646  21532460.6414                   21532461.7624
 -31665079.55947 -24643974.44945  21752096.4694                   21752092.6134
 -13517377.91847 -10503603.56645  21741001.8204                   21741000.7774
 11  8 24  2 16  0.0000000  0  9G12G10G29G26G05G15G25G02G30
 -22991153.41847 -17886713.97746  21753630.1334                   21753628.6604
 -15531285.36746 -12067528.94143  24177357.2664                   24177357.8364
  -9273978.23047  -7191949.50045  21996319.0084                   21996317.7934
  -3226553.40247  -2489569.21144  22937513.5784                   22937513.3284
 -27485448.73448 -21387732.48046  20475356.7034                   20475354.5744
   4691860.57447   3681368.90244  23826295.5784                   23826295.5234
 -16599052.47748 -12905822.39546  21529763.5554                   21529764.0824
 -31657032.14548 -24637703.75045  21753627.8444                   21753624.1914
 -13521462.95747 -10506786.73445  21740224.9454                   21740223.3914
 11  8 24  2 16 30.0000000  0  9G12G10G29G26G05G15G25G02G30
 -22949239.50847 -17854053.80146  21761605.8834                   21761604.6844
 -15455210.31246 -12008249.74243  24191834.5164                   24191834.2464
  -9384738.98447  -7278256.57045  21975242.7194                   21975241.2544
  -3348778.14847  -2584809.20344  22914255.6484                   22914254.6724
 -27474850.32448 -21379473.97346  20477373.7274                   20477371.4104
   4563600.93847   3581426.48444  23801888.5004                   23801888.0664
 -16612674.52348 -12916436.96946  21527171.1024                   21527171.7234
 -31648896.96548 -24631364.65245  21755175.6644                   21755172.1844
 -13525005.94548 -10509547.50845  21739550.5704                   21739549.3834
 11  8 24  2 17  0.0000000  0  9G12G10G29G26G05G15G25G02G30
 -22906977.50848 -17821122.40246  21769648.4384                   21769646.9024
 -15379061.98446 -11948913.41843  24206325.1954                   24206324.4774
  -9495354.37147  -7364450.37145  21954192.9064                   21954191.3634
  -3470808.02747  -2679897.33644  22891033.6174                   22891033.4414
 -27463794.97348 -21370859.39546  20479477.5394                   20479475.0234
   4435312.22746   3481461.38744  23777475.1884                   23777475.3404
 -16625744.09448 -12926621.04346  21524684.4064                   21524684.6174
 -31640673.77747 -24624956.98445  21756740.6334                   21756737.0594
 -13528008.41048 -10511887.09845  21738979.3984                   21738977.9104
 11  8 24  2 17 30.0000000  0  9G12G10G29G26G05G15G25G02G30
 -22864375.98848 -17787926.42246  21777755.1804                   21777753.2624
 -15302848.98846 -11889526.74643  24220827.9924                   24220827.8244
  -9605828.42247  -7450534.03946  21933170.5554                   21933168.9384
  -3592645.39847  -2774835.48044  22867849.0554                   22867848.2584
 -27452290.72748 -21361895.03546  20481666.6174                   20481664.2234
   4306991.78147   3381471.53944  23753056.8674                   23753056.5594
 -16638268.43748 -12936380.27046  21522300.6254                   21522301.2734
 -31632368.31647 -24618485.20345  21758321.0474                   21758317.3284
 -13530478.02048 -10513811.48445  21738509.5234                   21738508.3674
 11  8 24  2 18  0.0000000  0  9G12G10G29G26G05G15G25G02G30
 -21246014.36348 -16526865.44146  22085719.1954                   22085717.3444
 -13651151.14546 -10602489.47343  24535135.9614                   24535135.3984
  -8140730.44147  -6308899.23046  22211969.3674                   22211968.0944
  -2138857.78547  -1642013.89544  23144495.3134                   23144494.3794
 -25864914.98848 -20124978.85946  20783734.3834                   20783731.8954
   5754071.17247   4509065.96944  24028426.5394                   24028426.9534
 -15074823.62948 -11718111.58646  21819814.3834                   21819815.0784
 -30048556.05148 -23384345.77745  22059710.4454                   22059706.9804
 -11956991.88748  -9287718.39545  22037933.7344                   22037932.4264
 11  8 24  2 18 30.0000000  0  9G12G10G29G26G05G15G25G02G30
 -21202735.89548 -16493141.96946  22093954.6954                   22093952.8554
 -13574809.07846 -10543002.19943  24549663.4304                   24549662.6454
  -8250908.93747  -6394752.57846  22191002.9774                   22191001.6684
  -2260292.78547  -1736638.51244  23121386.6954                   23121385.8204
 -25852512.49248 -20115314.56646  20786094.1724                   20786092.1374
   5625701.44946   4409037.69544  24003999.1174                   24003998.6094
 -15086255.07448 -11727019.19546  21817639.0944                   21817639.9104
 -30040079.39148 -23377740.59045  22061323.6254                   22061320.0354
 -11958395.28548  -9288811.94545  22037666.3134                   22037665.0904
 11  8 24  2 19  0.0000000  0  9G12G10G29G26G05G15G25G02G30
 -21159118.23048 -16459154.19146  22102254.7344                   22102252.7234
 -13498400.64146 -10483463.21143  24564203.8364                   24564203.3594
  -8360931.22347  -6480484.19946  22170066.0554                   22170065.2154
  -2381516.05147  -1831098.12544  23098318.9224                   23098318.2114
 -25839659.13748 -20105298.96546  20788540.2664                   20788538.3404
   5497316.80947   4308997.80544  23979568.1724                   23979567.5514
 -15097136.94948 -11735498.57046  21815568.5474                   21815568.9414
 -30031511.85947 -23371064.60945  22062954.0634                   22062950.6334
 -11959263.21948  -9289488.25445  22037501.3834                   22037500.6684
 11  8 24  2 19 30.0000000  0  9G12G10G29G26G05G15G25G02G30
 -21115152.51648 -16424895.20346  22110621.5554                   22110619.2624
 -13421916.85546 -10423865.49643  24578758.2504                   24578757.9534
  -8470783.06648  -6566083.00046  22149162.0234                   22149161.0084
  -2502511.87547  -1925380.50844  23075293.9924                   23075293.5394
 -25826345.11348 -20094924.39546  20791073.9144                   20791071.6024
   5368931.44946   4208957.33243  23955136.6094                   23955136.5594
 -15107458.87548 -11743541.62946  21813604.1724                   21813604.8524
 -30022841.77347 -23364308.71145  22064604.1414                   22064600.3914
 -11959585.99248  -9289739.75845  22037439.8984                   22037438.8954
 11  8 24  2 20  0.0000000  0  9G12G10G29G26G05G15G25G02G30
 -21070858.72348 -16390380.56246  22119050.1884                   22119048.2194
 -13345376.94946 -10364224.03543  24593323.2504                   24593322.8324
  -8580479.71147  -6651560.86346  22128287.7734                   22128285.8714
  -2623293.75847  -2019496.20744  23052310.0394                   23052309.4144
 -25812589.83648 -20084205.97746  20793691.2034                   20793688.6844
   5240531.38347   4108905.42644  23930702.9534                   23930703.2734
 -15117239.26248 -11751162.70346  21811742.9064                   21811743.3594
 -30014085.74248 -23357485.84045  22066270.3134                   22066266.6134
 -11959382.54747  -9289581.22745  22037478.8284                   22037477.5394
 11  8 24  2 20 30.0000000  0  9G12G10G29G26G05G15G25G02G30
 -21026244.53148 -16355616.27046  22127540.1724                   22127538.1214
 -13268788.11746 -10304544.45343  24607897.1094                   24607897.0004
  -8690023.71547  -6736919.78546  22107441.8444                   22107440.3754
  -2743862.73847  -2113445.99244  23029366.1804                   23029365.6684
 -25798399.98848 -20073148.94546  20796391.5864                   20796389.2194
   5112114.71947   4008840.59444  23906265.9534                   23906266.0704
 -15126484.31248 -11758366.62946  21809984.1644                   21809984.3634
 -30005248.41847 -23350599.61745  22067952.0084                   22067947.9774
 -11958659.60547  -9289017.89145  22037616.4224                   22037615.1684
 11  8 24  2 21  0.0000000  0  9G12G10G29G26G05G15G25G02G30
 -20981302.43448 -16320596.47345  22136092.2194                   22136090.1454
 -13192142.19546 -10244820.35543  24622482.9694                   24622482.5314
  -8799402.55147  -6822149.99246  22086628.0084                   22086626.8954
  -2864204.78147  -2207218.94144  23006465.5864                   23006465.3674
 -25783767.64848 -20061747.11746  20799176.0784                   20799173.5744
   4983694.91447   3908773.32444  23881829.1414                   23881828.8244
 -15135185.10548 -11765146.46546  21808327.6954                   21808328.2384
 -29996319.17247 -23343641.77045  22069651.1094                   22069647.2894
 -11957408.81247  -9288043.24245  22037854.2194                   22037853.3714
 11  8 24  2 21 30.0000000  0  9G12G10G29G26G05G15G25G02G30
 -20936040.51248 -16285327.45345  22144704.8594                   22144703.3404
 -13115447.15246 -10185058.07443  24637076.9534                   24637076.7194
  -8908619.23048  -6907253.84046  22065844.7194                   22065843.0984
  -2984321.48847  -2300816.31244  22983608.4304                   22983608.0634
 -25768700.33248 -20050006.34446  20802043.2584                   20802040.6054
   4855269.15247   3808701.40644  23857389.6334                   23857389.6454
 -15143348.48048 -11771507.52746  21806774.6954                   21806774.9884
 -29987303.58648 -23336616.64545  22071366.7424                   22071363.1054
 -11955637.67647  -9286663.12545  22038191.1724                   22038190.4924
 11  8 24  2 22  0.0000000  0  9G12G10G29G26G05G15G25G02G30
 -20890456.63748 -16249807.58246  22153379.0634                   22153377.7304
 -13038699.89846 -10125255.05142  24651680.8444                   24651682.1684
  -9017666.16448  -6992225.40246  22045093.6884                   22045092.3834
  -3104204.13747  -2394231.29344  22960795.5784                   22960795.0084
 -25753194.87548 -20037924.16446  20804994.0084                   20804991.2584
   4726845.58247   3708631.15244  23832951.9384                   23832951.6804
 -15150970.66848 -11777446.89846  21805323.9844                   21805324.7114
 -29978195.87147 -23329519.72745  22073099.8674                   22073095.9534
 -11953342.91848  -9284874.98445  22038627.7584                   22038626.6374
 11  8 24  2 22 30.0000000  0  9G12G10G29G26G05G15G25G02G30
 -20844551.81248 -16214037.60546  22162114.8674                   22162113.3054
 -12961900.57846 -10065411.40242  24666296.4064                   24666296.8014
  -9126539.52048  -7077061.71146  22024375.7584                   22024374.3834
  -3223846.99647  -2487459.43444  22938028.0784                   22938027.5394
 -25737251.41848 -20025500.68446  20808027.6644                   20808025.3284
   4598429.10547   3608566.47344  23808514.9384                   23808514.5234
 -15158051.26248 -11782964.23846  21803976.8284                   21803977.5394
 -29968994.14847 -23322349.54745  22074851.0314                   22074847.0634
 -11950524.55148  -9282678.85245  22039164.2344                   22039162.7814
 11  8 24  2 23  0.0000000  0  9G12G29G26G05G15G25G02G30G21
 -20798339.87148 -16178028.31246  22170908.7344                   22170907.2774
  -9235248.07448  -7161769.60546  22003689.0394                   22003687.6724
  -3343257.32847  -2580506.37544  22915304.7274                   22915304.7704
 -25720883.28148 -20012746.28546  20811142.4534                   20811140.2774
   4470011.30947   3508500.72744  23784077.3754                   23784077.4774
 -15164602.91048 -11788069.42246  21802729.9924                   21802730.5704
 -29959709.27348 -23315114.58245  22076617.9224                   22076613.8404
 -11947195.94948  -9280085.12545  22039797.4384                   22039796.2774
  10898801.12156   8509928.00453  25258880.8524                   25258880.3914
 11  8 24  2 23 30.0000000  0  9G12G29G26G05G15G25G02G30G21
 -20751822.95348 -16141781.38345  22179760.5864                   22179759.1724
  -9343788.49648  -7246346.48446  21983034.2734                   21983032.7734
  -3462430.44547  -2673368.46144  22892626.9844                   22892626.3554
 -25704091.83248 -19999662.02746  20814337.6884                   20814335.3794
   4341596.45347   3408437.29744  23759640.6414                   23759640.2584
 -15170626.08248 -11792762.79746  21801583.7734                   21801584.6914
 -29950340.04748 -23307813.88345  22078400.9774                   22078396.8674
 -11943358.17248  -9277094.64145  22040528.2734                   22040526.9024
  10810885.86346   8441422.63743  25242151.7664                   25242150.9224
 11  8 24  2 24  0.0000000  0  9G12G29G26G05G15G25G02G30G21
 -20704990.80148 -16105288.81246  22188672.8444                   22188670.4454
  -9452145.52048  -7330780.46146  21962414.5944                   21962413.1564
  -3581349.86747  -2766032.88744  22869997.0084                   22869996.5594
 -25686866.18748 -19986239.43746  20817615.6564                   20817613.0664
   4213200.49647   3308388.56644  23735208.0164                   23735207.7464
 -15176109.35948 -11797035.47746  21800540.2424                   21800541.2464
 -29940873.44547 -23300437.31245  22080202.0314                   22080198.4494
 -11939000.23048  -9273698.84045  22041357.2664                   22041356.3554
  10722990.66446   8372932.91043  25225425.1884                   25225424.4384
 11  8 24  2 24 30.0000000  0  9G12G29G26G05G15G25G02G30G21
 -20657854.91848 -16068559.56645  22197642.4694                   22197640.5434
  -9560325.53548  -7415076.50046  21941828.7974                   21941827.3834
  -3700020.27347  -2858503.26644  22847415.3834                   22847415.1294
 -25669217.43048 -19972487.14846  20820974.0234                   20820971.8754
   4084817.34447   3208349.82044  23710777.4224                   23710776.8914
 -15181063.01648 -11800895.47346  21799597.6724                   21799598.3484
 -29931317.80148 -23292991.35545  22082020.4614                   22082017.3364
 -11934133.06248  -9269906.24245  22042283.1644                   22042282.4924
  10635106.63746   8304451.85942  25208701.7114                   25208700.4104
 11  8 24  2 25  0.0000000  0  9G12G29G26G05G15G25G02G30G21
 -20610413.37548 -16031592.14145  22206670.2194                   22206668.4654
  -9668321.01248  -7499228.75846  21921277.9304                   21921276.0824
  -3818432.92247  -2950772.81244  22824882.3754                   22824881.2894
 -25651142.91048 -19958403.10946  20824413.4534                   20824411.7664
   3956455.15647   3108327.40644  23686350.8674                   23686350.4064
 -15185483.66848 -11804340.15246  21798756.3834                   21798757.0084
 -29921667.87547 -23285471.93045  22083856.7034                   22083853.4064
 -11928753.68448  -9265714.51645  22043306.9384                   22043306.0664
  10547238.28946   8235983.00842  25191980.3834                   25191979.6764
 11  8 24  2 25 30.0000000  0  9G12G29G26G05G15G25G02G30G21
 -20562675.01647 -15994393.42645  22215754.2734                   22215752.4534
  -9776136.03948  -7583240.38346  21900761.0944                   21900759.7894
  -3936590.09847  -3042843.27344  22802397.1724                   22802396.6954
 -25632650.79348 -19943993.66446  20827932.4774                   20827930.0124
   3828111.06347   3008319.10244  23661928.0394                   23661927.3014
 -15189378.84848 -11807375.35246  21798015.2504                   21798015.7074
 -29911929.59847 -23277883.65646  22085710.2424                   22085706.1804
 -11922870.24248  -9261130.00845  22044426.3984                   22044425.0634
  10459379.00446   8167521.27043  25175261.7584                   25175260.9614
 11  8 24  2 26  0.0000000  0  9G12G29G26G05G15G25G02G30G21
 -20514646.39847 -15956968.54745  22224894.1644                   22224892.2544
  -9883771.82848  -7667112.35946  21880279.1024                   21880277.2584
  -4054491.53947  -3134714.46144  22779961.4384                   22779960.2734
 -25613746.10948 -19929262.73046  20831529.9924                   20831527.2734
   3699784.40247   2908324.37544  23637507.9844                   23637507.8164
 -15192753.74648 -11810005.14846  21797373.1954                   21797373.6024
 -29902106.30548 -23270229.14145  22087579.1024                   22087575.5664
 -11916488.48848  -9256157.21145  22045640.9064                   22045639.8054
  10371524.87547   8099063.52343  25158543.8984                   25158543.0864
 11  8 24  2 26 30.0000000  0  9G12G29G26G05G15G25G02G30G21
 -20466331.21947 -15919320.36345  22234088.0234                   22234086.4614
  -9991226.54348  -7750843.24246  21859831.0084                   21859829.6994
  -4172134.44947  -3226384.19944  22757574.9064                   22757573.8554
 -25594432.30548 -19914213.00446  20835205.2344                   20835202.7344
   3571477.43847   2808345.02344  23613091.8914                   23613091.4064
 -15195610.78548 -11812231.41446  21796829.4614                   21796829.9414
 -29892197.99647 -23262508.37145  22089464.1954                   22089461.0434
 -11909611.32047  -9250798.37945  22046949.6884                   22046948.5594
  10283674.58247   8030608.75042  25141826.8134                   25141825.4414
 11  8 24  2 27  0.0000000  0  9G12G29G26G05G15G25G02G30G21
 -20417726.54347 -15881446.60545  22243337.0164                   22243335.3054
 -10098492.03148  -7834426.67646  21839418.5394                   21839417.3364
  -4289508.97747  -3317844.81244  22735239.2504                   22735238.0554
 -25574705.72348 -19898841.64146  20838959.1174                   20838956.8244
   3443199.21147   2708388.05144  23588681.4064                   23588680.6024
 -15197945.47748 -11814050.65646  21796385.1644                   21796385.7854
 -29882198.39147 -23254716.46545  22091367.5314                   22091363.6644
 -11902234.82448  -9245050.46945  22048353.5004                   22048352.4654
  10195833.90346   7962161.53842  25125111.1644                   25125110.9694
 11  8 24  2 27 30.0000000  0  9G12G29G26G05G15G25G02G30G21
 -20368839.66047 -15843352.94545  22252640.1254                   22252638.3754
 -10205571.02748  -7917864.79346  21819042.1024                   21819040.9304
  -4406616.25047  -3409097.16445  22712953.9924                   22712953.5314
 -25554573.50448 -19883154.20346  20842789.8914                   20842788.1954
   3314947.72346   2608451.92644  23564275.9224                   23564275.6994
 -15199764.63748 -11815468.18746  21796039.2734                   21796039.5354
 -29872112.49647 -23246857.30545  22093287.0944                   22093282.9774
 -11894366.34848  -9238919.18745  22049850.5474                   22049849.5164
  10107997.34846   7893717.48042  25108396.2114                   25108395.3164
 11  8 24  2 28  0.0000000  0  9G12G29G26G05G15G25G02G30G21
 -20319674.93448 -15805042.78945  22261995.5004                   22261993.9104
 -10312462.23048  -8001156.59046  21798701.6954                   21798699.7384
  -4523453.67647  -3500139.24645  22690720.7894                   22690719.8444
 -25534038.93048 -19867153.23846  20846697.9144                   20846695.2344
   3186724.77047   2508538.02344  23539875.7664                   23539875.1414
 -15201071.08648 -11816486.21146  21795790.7974                   21795790.6724
 -29861941.39147 -23238931.75445  22095222.1724                   22095218.1054
 -11886009.28947  -9232407.20345  22051440.9694                   22051439.9264
  10020162.81346   7825275.02343  25091681.7274                   25091680.4654
 11  8 24  2 28 30.0000000  0  9G12G29G26G05G15G25G02G30G21
 -20270231.99247 -15766515.84045  22271404.3674                   22271402.5274
 -10419159.83248  -8084297.53146  21778397.6254                   21778395.8014
  -4640013.95347  -3590965.37545  22668540.1484                   22668539.1994
 -25513101.08648 -19850838.02746  20850682.1954                   20850679.6684
   3058536.91047   2408651.47344  23515481.5084                   23515481.4344
 -15201862.94948 -11817103.25046  21795639.6094                   21795640.1994
 -29851680.96947 -23230936.60545  22097175.1414                   22097171.1644
 -11877162.22347  -9225513.39545  22053124.7274                   22053123.6604
   9932333.46546   7756836.64843  25074968.1024                   25074967.0594
 11  8 24  2 29  0.0000000  0  9G12G29G26G05G15G25G02G30G21
 -20220509.44147 -15727771.02345  22280865.8444                   22280864.8284
 -10525657.18748  -8167282.43746  21758131.7034                   21758130.4344
  -4756289.10247  -3681569.32445  22646413.8594                   22646412.6804
 -25491757.62548 -19834206.75846  20854743.5554                   20854741.5354
   2930391.57447   2308798.05944  23491096.5314                   23491096.3914
 -15202137.82848 -11817317.44946  21795587.4534                   21795588.1214
 -29841326.89548 -23222868.48045  22099145.2114                   22099141.2774
 -11867823.29348  -9218236.31645  22054902.0864                   22054900.7934
   9844512.83246   7688405.03142  25058256.3204                   25058255.4654
 11  8 24  2 29 30.0000000  0  9G12G29G26G05G15G25G02G30G21
 -20170514.95347 -15688814.29745  22290380.0944                   22290378.5664
 -10631956.78548  -8250113.25046  21737903.7034                   21737902.2584
  -4872280.47347  -3771952.14145  22624340.6804                   22624340.0664
 -25470015.95348 -19817265.20346  20858880.8834                   20858878.3484
   2802286.66447   2208976.13344  23466719.3364                   23466718.3874
 -15201902.41448 -11817134.02746  21795632.2034                   21795633.0904
 -29830883.59848 -23214730.82445  22101132.3914                   22101128.8914
 -11857999.67648  -9210581.56245  22056771.1644                   22056769.9344
   9756695.83646   7619976.19543  25041545.1094                   25041544.3054
 11  8 24  2 30  0.0000000  0  9G12G29G26G05G15G25G02G30G21
 -20120243.86747 -15649642.04745  22299946.1804                   22299944.6214
 -10738048.46548  -8332782.05146  21717714.7344                   21717713.2114
  -4987976.39547  -3862104.75445  22602324.8524                   22602323.7074
 -25447870.20748 -19800008.78546  20863095.0394                   20863092.7774
   2674233.02047   2109194.10544  23442351.7814                   23442349.9574
 -15201150.60548 -11816548.21546  21795775.3204                   21795775.9024
 -29820342.93048 -23206517.30145  22103138.3834                   22103134.1174
 -11847685.86748  -9202544.84445  22058733.8204                   22058733.3484
   9668889.47746   7551555.70342  25024836.0704                   25024835.3054
 11  8 24  2 30 30.0000000  0  9G12G29G26G05G15G25G02G30G21
 -20069707.63747 -15610263.18745  22309563.2664                   22309561.8404
 -10843938.73047  -8415293.90246  21697564.4844                   21697563.3014
  -5103381.94947  -3952031.10245  22580364.1724                   22580363.0744
 -25425331.44948 -19782446.11746  20867383.8984                   20867381.6954
   2546225.08247   2009447.71544  23417992.6484                   23417991.2304
 -15199893.04348 -11815568.30146  21796014.3914                   21796015.4654
 -29809713.34048 -23198234.49645  22105160.8524                   22105157.2734
 -11836892.90247  -9194134.76245  22060787.5554                   22060786.7544
   9581084.80546   7483136.53943  25008127.5864                   25008126.8554
 11  8 24  2 31  0.0000000  0  9G12G29G26G05G15G25G02G30G21
 -20018902.43047 -15570674.74245  22319230.9304                   22319229.1454
 -10949618.19948  -8497641.50046  21677454.5314                   21677452.8594
  -5218486.17647  -4041722.64145  22558460.2424                   22558459.4144
 -25402395.28148 -19764573.77746  20871748.6884                   20871746.5514
   2418273.14147   1909744.96944  23393643.9534                   23393643.1174
 -15198124.40648 -11814190.14846  21796350.9774                   21796352.1644
 -29798987.68748 -23189876.82845  22107202.3284                   22107198.4184
 -11825616.09047  -9185347.64545  22062933.4144                   22062932.5204
   9493288.05146   7414723.50043  24991420.0864                   24991419.6804
 11  8 24  2 31 30.0000000  0  9G12G29G26G05G15G25G02G30G21
 -19967823.40247 -15530872.92245  22328951.0554                   22328949.3554
 -11055076.42248  -8579816.71546  21657386.5704                   21657385.0274
  -5333277.54347  -4131170.39545  22536616.0704                   22536615.3554
 -25379056.05548 -19746387.37146  20876190.1094                   20876187.6564
   2290387.62947   1810093.99244  23369307.8524                   23369307.2464
 -15195838.77348 -11812409.14846  21796786.2664                   21796786.9414
 -29788157.58647 -23181437.77045  22109262.8754                   22109258.9304
 -11813849.96547  -9176179.25045  22065172.5474                   22065171.5314
   9405506.81646   7346322.56643  24974716.0004                   24974715.7934
 11  8 24  2 32  0.0000000  0  9G12G29G26G05G15G25G02G30G21
 -19916497.87147 -15490879.03545  22338717.8674                   22338716.3164
 -11160335.74648  -8661836.93046  21637356.4064                   21637354.6094
  -5447776.90247  -4220390.62545  22514827.2814                   22514827.0234
 -25355340.53948 -19727907.74646  20880702.8204                   20880700.5354
   2162547.47347   1710478.39544  23344980.2584                   23344980.4184
 -15193062.56648 -11810245.88346  21797314.3674                   21797314.9774
 -29777247.34047 -23172936.24645  22111338.9774                   22111335.3284
 -11801621.39547  -9166650.52045  22067499.8054                   22067498.7384
   9317715.93846   7277914.17643  24958009.4224                   24958009.3914
 11  8 24  2 32 30.0000000  0  9G12G29G26G05G15G25G02G30G21
 -19864920.34847 -15450688.78145  22348532.8984                   22348531.1954
 -11265385.30148  -8743693.69146  21617365.8134                   21617364.1524
  -5561971.86747  -4309373.64545  22493096.5864                   22493096.4184
 -25331242.40648 -19709129.98046  20885288.6094                   20885286.0514
   2034764.05947   1610906.98444  23320664.2814                   23320664.2774
 -15189788.99248 -11807695.05146  21797937.6414                   21797938.2114
 -29766247.96947 -23164365.29345  22113432.2584                   22113428.3914
 -11788924.25447  -9156756.65645  22069915.7974                   22069915.2384
   9229923.39146   7209504.42243  24941304.1484                   24941302.5204
 11  8 24  2 33  0.0000000  0  9G12G29G26G05G15G25G02G30G21
 -19813091.62147 -15410302.79745  22358395.5394                   22358393.9224
 -11370220.24648  -8825383.23846  21597416.0944                   21597414.7814
  -5675856.67647  -4398115.00045  22471424.9614                   22471424.2664
 -25306761.96148 -19690054.30946  20889947.1484                   20889944.9384
   1907042.82047   1511384.03144  23296359.9454                   23296359.2194
 -15186018.07848 -11804756.68046  21798655.0474                   21798655.6484
 -29755157.16048 -23155723.10245  22115542.5004                   22115538.6994
 -11775758.87547  -9146497.93045  22072421.2034                   22072420.4614
   9142130.89146   7141094.71142  24924597.0554                   24924596.5554
 11  8 24  2 33 30.0000000  0  9G12G29G26G05G15G25G02G30G21
 -19761010.71547 -15369720.30145  22368306.0704                   22368304.5704
 -11474834.77048  -8906901.01246  21577509.1804                   21577506.8204
  -5789423.55547  -4486608.60945  22449814.2034                   22449813.1844
 -25281897.47748 -19670679.37946  20894678.9144                   20894676.4804
   1779390.72747   1411914.94544  23272068.3204                   23272067.8674
 -15181747.62948 -11801429.07046  21799467.7974                   21799468.1844
 -29743970.68748 -23147006.35945  22117671.3524                   22117667.4064
 -11762123.68448  -9135873.12145  22075015.9924                   22075014.5274
   9054342.08245   7072687.92243  24907891.1024                   24907891.3134
 11  8 24  2 34  0.0000000  0  9G12G29G26G05G15G25G02G30G21
 -19708684.10547 -15328946.34845  22378263.5314                   22378261.8204
 -11579229.52748  -8988247.54746  21557643.4384                   21557641.5664
  -5902672.21947  -4574854.25845  22428263.3594                   22428262.8444
 -25256654.55548 -19651009.57046  20899482.2894                   20899479.9144
   1651807.34447   1312499.40644  23247790.0234                   23247789.3714
 -15176983.02348 -11797716.40246  21800374.3204                   21800374.7664
 -29732691.65648 -23138217.49645  22119817.9924                   22119813.9224
 -11748024.54747  -9124886.79745  22077699.2274                   22077697.6764
   8966552.75046   7004280.68043  24891185.8754                   24891185.0554
 11  8 24  2 34 30.0000000  0  9G12G29G26G05G15G25G02G30G21
 -19656114.44547 -15287983.00045  22388267.2974                   22388265.7894
 -11683402.12948  -9069420.96946  21537820.2034                   21537818.3634
  -6015599.03947  -4662849.12945  22406773.9614                   22406773.2854
 -25231035.81248 -19631046.91846  20904357.1954                   20904354.6604
   1524295.48847   1213139.57444  23223525.5944                   23223524.3054
 -15171726.33248 -11793620.28146  21801374.5634                   21801375.3954
 -29721319.54748 -23129356.09845  22121981.7504                   22121977.9104
 -11733463.99647  -9113540.91845  22080469.5084                   22080468.8674
   8878762.34045   6935872.63743  24874479.9064                   24874479.1294
 11  8 24  2 35  0.0000000  0  9G12G29G26G05G15G25G02G30G21
 -19603314.28947 -15246840.05145  22398315.4064                   22398313.1454
 -11787359.50848  -9150426.68446  21518037.5554                   21518035.9694
  -6128209.64547  -4750597.60245  22385345.1804                   22385343.6334
 -25205053.05548 -19610800.60546  20909301.4924                   20909299.1134
   1396849.30147   1113830.93045  23199273.0084                   23199272.2234
 -15165988.92248 -11789149.57446  21802466.3204                   21802467.2344
 -29709863.48048 -23120429.28145  22124161.1954                   22124158.0204
 -11718453.78547  -9101844.66845  22083326.3444                   22083325.0824
   8790960.78946   6867455.87943  24857771.9844                   24857770.6024
 11  8 24  2 35 30.0000000  0  9G12G29G26G05G15G25G02G30G21
 -19550274.89847 -15205510.68445  22408408.2194                   22408406.2504
 -11891087.53948  -9231253.68446  21498298.9224                   21498296.8984
  -6240488.42247  -4838087.51245  22363979.1954                   22363978.0554
 -25178696.53948 -19590263.05546  20914317.1484                   20914314.5634
   1269483.70747   1014585.07844  23175036.1484                   23175035.1174
 -15159760.85248 -11784296.54346  21803651.4844                   21803652.5044
 -29698311.18748 -23111427.46945  22126359.8284                   22126356.0984
 -11702984.62948  -9089790.79745  22086269.8284                   22086268.7704
   8703160.06646   6799039.77343  24841063.5944                   24841062.6334
 11  8 24  2 36  0.0000000  0  9G12G29G26G05G15G25G02G30G21
 -19496994.91047 -15163993.84045  22418546.9844                   22418544.9534
 -11994579.54748  -9311896.77346  21478604.9224                   21478603.2424
  -6352427.10947  -4925312.41045  22342677.6884                   22342676.8954
 -25151964.38348 -19569432.81246  20919404.1334                   20919401.8484
   1142206.23047    915407.87945  23150815.7344                   23150815.0864
 -15153039.86348 -11779059.41446  21804930.5944                   21804931.1684
 -29686657.96147 -23102347.02045  22128577.3754                   22128573.4384
 -11687054.62948  -9077377.81645  22089301.1094                   22089299.8444
   8615363.99246   6730627.28543  24824357.1884                   24824355.7154
 11  8 24  2 36 30.0000000  0  9G12G29G26G05G15G25G02G30G21
 -19443488.48447 -15122300.54345  22428729.0944                   22428727.2544
 -12097844.17648  -9392362.68046  21458954.2734                   21458952.4384
  -6464033.52347  -5012278.40245  22321439.9144                   22321439.0944
 -25124869.76248 -19548320.13346  20924560.1804                   20924557.8674
   1015008.21147    816292.59844  23126611.0864                   23126609.9654
 -15145839.27348 -11773448.56246  21806300.5944                   21806301.3014
 -29674914.75047 -23093196.47345  22130811.8834                   22130808.0354
 -11670677.58648  -9064616.48845  22092417.6484                   22092416.2034
   8527560.58246   6662209.10543  24807648.0314                   24807647.5124
 11  8 24  2 37  0.0000000  0  9G12G29G26G05G15G25G02G30G21
 -19389752.92247 -15080428.69945  22438954.7814                   22438952.7664
 -12200873.29748  -9472645.08646  21439348.2034                   21439346.0394
  -6575298.21947  -5098978.12145  22300266.7814                   22300266.0744
 -25097409.57848 -19526922.58646  20929785.5864                   20929782.9064
    887899.06347    717246.56344  23102422.9454                   23102422.0394
 -15138155.28948 -11767461.05546  21807762.9614                   21807763.7734
 -29663075.09447 -23083970.77045  22133065.1334                   22133061.1684
 -11653850.22348  -9051504.26645  22095620.4384                   22095618.5474
   8439755.00046   6593789.21943  24790939.9064                   24790938.6294
 11  8 24  2 37 30.0000000  0  9G12G29G26G05G15G25G02G30G21
 -19335793.79747 -15038382.65245  22449222.7974                   22449221.0514
 -12303667.23048  -9552744.22746  21419787.4844                   21419785.2504
  -6686220.03947  -5185410.66445  22279159.1094                   22279158.0944
 -25069588.99248 -19505244.21546  20935079.1884                   20935076.9884
    760879.12147    618270.04344  23078251.3594                   23078250.7034
 -15129992.76248 -11761100.64546  21809316.1954                   21809317.2074
 -29651141.52048 -23074671.88345  22135336.4384                   22135332.4064
 -11636577.85948  -9038045.29345  22098906.6644                   22098905.4454
   8351944.30946   6525365.37143  24774229.3444                   24774228.7814
 11  8 24  2 38  0.0000000  0  9G12G29G26G05G15G25G02G30G21
 -19281611.54747 -14996162.73845  22459532.8674                   22459531.5824
 -12406221.27348  -9632656.43746  21400272.1334                   21400270.2704
  -6796793.06247  -5271571.41045  22258117.9064                   22258116.7464
 -25041407.93748 -19483284.96146  20940442.3364                   20940439.7854
    633953.30147    519366.85544  23054098.0784                   23054097.2894
 -15121351.49248 -11754367.18446  21810960.5394                   21810961.3014
 -29639111.44547 -23065297.80145  22137625.3444                   22137621.6134
 -11618860.71948  -9024239.73445  22102278.0784                   22102276.8244
   8264130.42246   6456939.00843  24757519.2034                   24757517.9844
 11  8 24  2 38 30.0000000  0  9G12G29G26G05G15G25G02G30G21
 -19227216.04347 -14953776.66045  22469884.5394                   22469882.7934
 -12508539.51648  -9712384.89846  21380801.1024                   21380799.5314
  -6907020.10547  -5357462.56245  22237142.6804                   22237141.5204
 -25012875.36748 -19461051.80546  20945872.2274                   20945869.5664
    507118.90647    420534.91044  23029962.4534                   23029961.5434
 -15112240.18748 -11747267.46946  21812694.5474                   21812695.3524
 -29626991.10947 -23055853.38745  22139931.8754                   22139927.8134
 -11600707.96548  -9010094.72745  22105732.3204                   22105731.3484
   8176306.11346   6388504.52343  24740806.7894                   24740805.8834
 11  8 24  2 39  0.0000000  0  9G12G29G26G05G15G25G02G30G21
 -19172610.31247 -14911226.77045  22480275.5004                   22480274.0044
 -12610619.85248  -9791927.98046  21361376.3444                   21361374.2584
  -7016897.84847  -5443081.54745  22216233.2194                   22216232.1374
 -24983993.98848 -19438546.84846  20951367.9144                   20951365.5664
    380378.32047    321776.05944  23005844.4614                   23005843.4804
 -15102661.34048 -11739803.44146  21814517.2894                   21814517.8984
 -29614780.36747 -23046338.51645  22142255.2424                   22142251.9924
 -11582122.64847  -8995612.67645  22109268.7194                   22109267.7504
   8088470.47346   6320061.23443  24724092.1804                   24724091.0944
 11  8 24  2 39 30.0000000  0  9G12G29G26G05G15G25G02G30G21
 -19117797.95347 -14868515.87945  22490705.5314                   22490704.3324
 -12712459.74648  -9871283.71946  21341996.6724                   21341994.6134
  -7126422.62147  -5528425.46545  22195391.4694                   22195390.3594
 -24954766.13748 -19415771.91446  20956929.8914                   20956927.2234
    253734.62947    223092.72745  22981745.2114                   22981744.0664
 -15092617.11348 -11731976.78546  21816428.5394                   21816429.6764
 -29602478.91047 -23036752.97345  22144596.3914                   22144592.8164
 -11563107.21947  -8980795.46945  22112887.7734                   22112886.1564
   8000622.99646   6251608.70343  24707375.3914                   24707374.3714
 11  8 24  2 40  0.0000000  0  9G12G29G26G05G15G25G02G30G21
 -19062773.07047 -14825639.38345  22501176.3524                   22501175.1884
 -12814048.36348  -9950443.65646  21322664.9844                   21322662.9774
  -7235582.21947  -5613484.84445  22174619.0164                   22174617.8594
 -24925185.56248 -19392722.12146  20962558.5004                   20962556.0944
    127199.68047    124494.10245  22957666.2664                   22957665.5004
 -15082101.10548 -11723782.49646  21818429.9304                   21818430.2774
 -29590077.73048 -23027089.71545  22146955.9844                   22146952.4064
 -11543655.74247  -8965638.47745  22116589.1094                   22116587.7234
   7912771.91847   6183153.34843  24690657.0394                   24690656.2154
 11  8 24  2 40 30.0000000  0  9G12G29G26G05G15G25G02G30G21
 -19007549.56647 -14782608.10945  22511685.3834                   22511684.2154
 -12915393.94548 -10029414.20746  21303379.4224                   21303377.6764
  -7344383.86348  -5698265.30145  22153914.7424                   22153913.4104
 -24895265.67648 -19369407.93046  20968252.2974                   20968249.9304
       765.87147     25974.30945  22933606.5314                   22933605.7034
 -15071126.38348 -11715230.76246  21820518.2344                   21820518.3524
 -29577587.07847 -23017356.75845  22149333.1804                   22149329.4024
 -11523781.90647  -8950152.37545  22120371.0944                   22120369.8204
   7824905.80546   6114686.27043  24673937.3524                   24673935.9734
 11  8 24  2 41  0.0000000  0  9G12G29G26G05G15G25G02G30G21
 -18952124.16447 -14739419.51245  22522232.4454                   22522230.7894
 -13016487.87548 -10108188.66446  21284142.0234                   21284140.0044
  -7452817.78148  -5782759.21545  22133280.0944                   22133279.0904
 -24865002.56248 -19345826.29746  20974011.0554                   20974008.7974
   -125557.85947    -72459.72745  22909568.5164                   22909566.8364
 -15059688.94148 -11706318.48446  21822694.5314                   21822695.4384
 -29565000.55947 -23007549.09845  22151728.3054                   22151724.6374
 -11503482.03147  -8934334.29745  22124233.6414                   22124232.6374
   7737030.34046   6046211.94543  24657214.9844                   24657213.6134
 11  8 24  2 41 30.0000000  0  9G12G29G26G05G15G25G02G30G21
 -18896496.50447 -14696073.31245  22532818.0234                   22532816.4344
 -13117324.69148 -10186762.78146  21264953.1414                   21264951.4344
  -7560876.80948  -5866961.01645  22112717.1254                   22112716.0234
 -24834395.17248 -19321976.38746  20979835.4224                   20979833.4184
   -251764.66447   -170802.64844  22885551.5554                   22885550.3444
 -15047787.66448 -11697044.78546  21824959.5234                   21824959.8834
 -29552314.36748 -22997663.76645  22154142.2034                   22154138.2974
 -11482755.41847  -8918183.69945  22128178.1094                   22128177.0904
   7649148.35947   5977732.48843  24640491.8364                   24640490.4494
 11  8 24  2 42  0.0000000  0  9G12G29G26G05G15G25G02G30G21
 -18840676.64847 -14652577.34045  22543440.4384                   22543438.5514
 -13217908.97748 -10265140.11746  21245812.4924                   21245810.9844
  -7668564.12548  -5950873.17645  22092224.8594                   22092223.6604
 -24803452.91048 -19297865.54346  20985723.6334                   20985720.9454
   -377858.20747   -269057.32044  22861556.9844                   22861555.5864
 -15035431.75448 -11687416.80946  21827310.6954                   21827311.2894
 -29539535.08647 -22987705.89845  22156573.7734                   22156569.9344
 -11461611.77347  -8901708.14545  22132201.5634                   22132200.2384
   7561252.75047   5909242.43843  24623765.8674                   24623764.2344
 11  8 24  2 42 30.0000000  0  9G12G29G26G05G15G25G02G30G21
 -17209248.24647 -13381334.45345  22853890.6564                   22853889.1414
 -11742813.33648  -9115714.91446  21526514.1804                   21526512.1524
  -6200451.61148  -4806889.35745  22371597.9924                   22371596.3954
 -23196758.03548 -18045895.51246  21291467.2344                   21291465.0784
   1071589.54347    860382.53544  23137377.4844                   23137375.8404
 -13447202.84448 -10449835.84846  22129540.3834                   22129540.6994
 -27951241.59048 -21750074.62545  22458816.4534                   22458812.5434
  -9864633.35547  -7657309.39145  22436096.2734                   22436094.7154
   9048766.91047   7068344.42243  24906830.5314                   24906828.8014
 11  8 24  2 43  0.0000000  0  9G12G29G26G05G15G25G02G30G21
 -17153038.84447 -13337534.94545  22864587.2424                   22864585.4614
 -11842870.30548  -9193681.35546  21507473.6024                   21507472.0044
  -6307370.69948  -4890202.87945  22351251.1724                   22351250.4774
 -23165138.89848 -18021257.23446  21297484.3984                   21297482.2304
    945745.59047    762322.35544  23113429.9384                   23113428.9064
 -13433930.32448 -10439493.64546  22132066.4614                   22132066.9344
 -27938260.52347 -21739959.51645  22461286.4304                   22461282.3094
  -9842649.46147  -7640179.07445  22440279.8754                   22440278.2894
   8960856.43447   6999842.78143  24890100.9454                   24890099.8834
 11  8 24  2 43 30.0000000  0  9G12G29G26G05G15G25G02G30G21
 -17096649.75047 -13293595.42245  22875317.9304                   22875316.2544
 -11942670.61748  -9271447.80546  21488482.3364                   21488480.3484
  -6413910.83248  -4973221.12545  22330977.4454                   22330975.9144
 -23133195.68448 -17996366.41846  21303563.0704                   21303560.9064
    820020.77047    664355.00445  23089505.5634                   23089504.4964
 -13420213.51248 -10428805.23846  22134676.4534                   22134677.6174
 -27925188.55947 -21729773.57045  22463774.1094                   22463770.3484
  -9820260.14547  -7622732.86745  22444540.4924                   22444539.1214
   8872927.35247   6931326.62943  24873369.0234                   24873367.5204
 11  8 24  2 44  0.0000000  0 10G12G18G29G26G05G15G25G02G30G21
 -17040081.45347 -13249516.26245  22886082.5084                   22886080.9454
  12456846.52356   9731017.39853  24794501.8984                   24794501.7774
 -12042209.48448  -9349010.52746  21469540.9614                   21469538.7974
  -6520066.15648  -5055939.52345  22310776.8054                   22310775.8244
 -23100928.43448 -17971223.10946  21309703.4384                   21309700.9574
    694420.45347    566484.69145  23065604.0704                   23065603.6804
 -13406052.43448 -10417770.63746  22137371.2584                   22137371.9414
 -27912022.91048 -21719514.62945  22466279.1414                   22466275.4924
  -9797465.77747  -7604971.01645  22448878.3914                   22448876.8284
   8784981.29346   6862797.30143  24856633.3524                   24856631.9344
 11  8 24  2 44 30.0000000  0 10G12G18G29G26G05G15G25G02G30G21
 -16983332.63747 -13205296.44945  22896881.1564                   22896879.7344
  12335613.27046   9636550.07043  24771431.8594                   24771431.3134
 -12141480.02348  -9426364.18746  21450650.0784                   21450648.5634
  -6625828.47347  -5138351.68445  22290650.6484                   22290649.9884
 -23068335.16448 -17945825.76246  21315905.6024                   21315903.3094
    568951.87147    468717.01245  23041728.5314                   23041727.6294
 -13391445.05148 -10406388.27746  22140150.7034                   22140151.3324
 -27898758.93447 -21709179.09445  22468803.4924                   22468799.6484
  -9774264.79347  -7586892.34045  22453292.9304                   22453291.8284
   8697022.59446   6794258.07043  24839895.2424                   24839894.0704
 11  8 24  2 45  0.0000000  0 10G12G18G29G26G05G15G25G02G30G21
 -16926408.46147 -13160939.97745  22907713.6724                   22907711.9804
  12214549.22746   9542214.58443  24748393.4144                   24748393.4144
 -12240481.64848  -9503508.28546  21431810.9454                   21431809.0044
  -6731196.24248  -5220456.39545  22270600.3204                   22270598.6844
 -23035419.98048 -17920177.56246  21322169.3594                   21322167.1804
    443616.62147    371053.23445  23017877.9614                   23017877.1644
 -13376395.57848 -10394661.43046  22143014.5864                   22143015.6844
 -27885397.87147 -21698767.87545  22471345.8524                   22471342.0474
  -9750661.83647  -7568500.43745  22457784.4534                   22457783.2464
   8609048.76246   6725707.03542  24823154.2034                   24823152.4694
 11  8 24  2 45 30.0000000  0 10G12G18G29G26G05G15G25G02G30G21
 -16869313.19547 -13116450.19545  22918578.5004                   22918576.6024
  12093653.55946   9448010.26243  24725387.9534                   24725387.9774
 -12339213.65248  -9580442.27346  21413022.5944                   21413021.0234
  -6836167.42648  -5302252.08645  22250624.5784                   22250623.4694
 -23002186.82848 -17894281.60546  21328493.1804                   21328490.9924
    318416.53547    273494.77345  22994053.1334                   22994051.9344
 -13360907.85548 -10382593.09046  22145961.6174                   22145962.1094
 -27871940.66047 -21688281.73845  22473906.6954                   22473903.0314
  -9726661.07847  -7549798.55945  22462351.6254                   22462350.4654
   8521057.88346   6657142.77342  24806410.0704                   24806408.1214
 11  8 24  2 46  0.0000000  0 10G12G18G29G26G05G15G25G02G30G21
 -16812046.23047 -13071826.62545  22929475.9454                   22929474.3914
  11972931.86546   9353941.51943  24702414.8204                   24702414.4614
 -12437669.57048  -9657161.13746  21394287.1804                   21394285.3674
  -6940734.70747  -5383733.03945  22230725.8444                   22230724.9614
 -22968634.46548 -17868136.91846  21334878.0234                   21334875.6254
    193358.42647    176046.94945  22970255.0944                   22970254.4304
 -13344980.54748 -10370182.21946  22148993.0004                   22148993.2464
 -27858383.26647 -21677717.53945  22476486.6174                   22476483.0664
  -9702261.66047  -7530786.03545  22466995.0234                   22466993.4224
   8433053.00446   6588567.55543  24789663.3984                   24789661.6024
 11  8 24  2 46 30.0000000  0 10G12G18G29G26G05G15G25G02G30G21
 -16754603.67647 -13027066.22345  22940407.2344                   22940405.4964
  11852392.25046   9260014.61742  24679477.7814                   24679476.9224
 -12535840.23848  -9733657.72746  21375605.9224                   21375603.7464
  -7044887.61348  -5464891.11345  22210906.5394                   22210905.2154
 -22934758.48048 -17841740.04346  21341324.2894                   21341321.9224
     68451.94947     78717.28545  22946486.0864                   22946485.0554
 -13328609.30948 -10357425.42246  22152108.3524                   22152108.4884
 -27844718.71947 -21667069.85245  22479086.9774                   22479083.1374
  -9677459.61747  -7511459.77745  22471714.6334                   22471713.2974
   8345040.39846   6519986.41142  24772915.3444                   24772913.6884
 11  8 24  2 47  0.0000000  0 10G12G18G29G26G05G15G25G02G30G21
 -16697004.55947 -12982183.83645  22951368.0314                   22951366.3444
  11732019.99646   9166218.17243  24656570.8984                   24656570.3834
 -12633739.13748  -9809942.55146  21356976.5784                   21356973.8134
  -7148638.57847  -5545735.99245  22191163.4534                   22191162.2034
 -22900577.02048 -17815105.13746  21347828.7734                   21347826.4574
    -56315.31647    -18503.89845  22922743.5394                   22922742.7384
 -13311812.52048 -10344337.02346  22155304.6954                   22155305.1094
 -27830962.33247 -21656350.59445  22481704.1334                   22481701.1884
  -9652273.70347  -7491834.39545  22476506.9064                   22476505.4264
   8257004.14846   6451386.80943  24756161.8054                   24756161.3134
 11  8 24  2 47 30.0000000  0 10G12G18G29G26G05G15G25G02G30G21
 -16639240.33647 -12937172.78545  22962360.1954                   22962358.6884
  11611828.43046   9072562.50443  24633699.9224                   24633698.4024
 -12731352.27748  -9886004.71146  21338401.2344                   21338399.0984
  -7251972.24247  -5626255.69145  22171499.3984                   22171498.4844
 -22866081.13348 -17788225.21146  21354393.2344                   21354391.2934
   -180928.66447   -115605.13745  22899030.8054                   22899029.7854
 -13294580.90648 -10330909.80946  22158583.6564                   22158584.3874
 -27817102.01247 -21645550.34445  22484341.7424                   22484338.6334
  -9626695.04747  -7471902.98445  22481374.5634                   22481373.1724
   8168954.88746   6382777.01242  24739406.7584                   24739406.6604
 11  8 24  2 48  0.0000000  0 10G12G18G29G26G05G15G25G02G30G21
 -16581314.37147 -12892035.70745  22973383.1414                   22973381.6724
  11491817.94546   8979047.94543  24610862.1804                   24610861.7544
 -12828677.60248  -9961842.59046  21319880.6954                   21319878.7934
  -7354885.90247  -5706448.10945  22151915.5394                   22151914.7234
 -22831273.93048 -17761102.72346  21361016.8364                   21361014.4844
   -305385.34847   -212584.31645  22875347.2194                   22875346.4574
 -13276917.40248 -10317146.07046  22161944.8594                   22161945.6844
 -27803137.64547 -21634669.03545  22486999.6724                   22486996.2154
  -9600726.99247  -7451668.15645  22486315.9924                   22486314.7544
   8080892.20346   6314156.85943  24722648.9614                   24722648.2114
 11  8 24  2 48 30.0000000  0 10G12G18G29G26G05G15G25G02G30G21
 -16523231.60947 -12846776.44545  22984435.5474                   22984434.4654
  11371988.10246   8885674.16043  24588059.0634                   24588057.9734
 -12925714.62548 -10037455.81646  21301415.5314                   21301413.1844
  -7457377.65647  -5786311.77745  22132412.0314                   22132410.8524
 -22796159.02348 -17733740.46146  21367699.1094                   21367696.2704
   -429684.50447   -309440.74645  22851693.7584                   22851692.8094
 -13258826.48448 -10303049.28146  22165387.5164                   22165388.3134
 -27789070.90247 -21623707.95345  22489676.2734                   22489672.3794
  -9574374.40647  -7431133.68745  22491330.8834                   22491329.8134
   7992813.49646   6245524.17643  24705887.5554                   24705886.7464
 11  8 24  2 49  0.0000000  0 10G12G18G29G26G05G15G25G02G30G21
 -16465000.95747 -12801401.94945  22995516.8524                   22995514.8984
  11252334.42646   8792437.64143  24565289.7664                   24565289.1294
 -13022466.95748 -10112847.21146  21283003.5864                   21283001.6054
  -7559449.84047  -5865848.51645  22112988.2344                   22112987.3914
 -22760745.21148 -17706145.28146  21374438.0234                   21374435.5474
   -553828.31647   -406176.11745  22828070.5634                   22828069.1054
 -13240316.41848 -10288625.87146  22168909.9144                   22168910.4344
 -27774907.14147 -21612671.26645  22492371.7734                   22492368.5204
  -9547645.86747  -7410306.27345  22496417.3754                   22496416.4144
   7904712.43046   6176874.08643  24689123.3914                   24689122.2664
 11  8 24  2 49 30.0000000  0 10G12G18G29G26G05G15G25G02G30G21
 -16406619.68447 -12755910.07445  23006626.3364                   23006624.8754
  11132864.07046   8699343.99243  24542554.6254                   24542554.3674
 -13118926.07848 -10188010.13346  21264648.5474                   21264646.2384
  -7661093.55947  -5945051.37945  22093645.6644                   22093644.6764
 -22725028.94148 -17678314.41446  21381234.6254                   21381232.2814
   -677808.28547   -502783.82845  22804478.0554                   22804476.2274
 -13221383.99248 -10273873.35946  22172512.3754                   22172513.1884
 -27760639.95747 -21601554.00445  22495086.4694                   22495083.1604
  -9520538.58247  -7389183.73045  22501575.5164                   22501574.8204
   7816594.42646   6108210.80943  24672354.9534                   24672353.6174
 11  8 24  2 50  0.0000000  0 10G12G18G29G26G05G15G25G02G30G21
 -16348092.07047 -12710304.18045  23017764.0704                   23017762.2894
  11013576.59046   8606392.87943  24519855.3284                   24519854.2384
 -13215091.05948 -10262943.85246  21246348.4694                   21246346.2854
  -7762306.50448  -6023918.57445  22074385.9924                   22074385.0594
 -22689014.28948 -17650251.05146  21388088.1414                   21388085.7274
   -801622.33647   -599262.25445  22780916.4384                   22780915.2344
 -13202033.16448 -10258794.82046  22176195.0554                   22176195.7894
 -27746270.70347 -21590357.21145  22497820.9304                   22497817.8164
  -9493056.89847  -7367769.45345  22506804.7664                   22506804.0864
   7728457.62146   6039532.87943  24655583.1414                   24655581.2974
 11  8 24  2 50 30.0000000  0 10G12G18G29G26G05G15G25G02G30G21
 -16289426.13747 -12664590.50445  23028927.2734                   23028926.1334
  10894468.96146   8513581.84043  24497189.7504                   24497188.6414
 -13310964.07848 -10337650.06246  21228104.4844                   21228102.2154
  -7863089.85947  -6102451.03145  22055207.5944                   22055206.5004
 -22652708.31248 -17621960.68746  21394996.4774                   21394994.2234
   -925271.85947   -695612.46145  22757386.6954                   22757385.6294
 -13182270.94948 -10243395.72746  22179955.8444                   22179956.4694
 -27731803.29747 -21579083.92645  22500574.2424                   22500570.6484
  -9465208.20747  -7346069.20345  22512104.6884                   22512103.5634
   7640296.97746   5970836.33643  24638805.7274                   24638804.9694
 11  8 24  2 51  0.0000000  0 10G12G18G29G26G05G15G25G02G30G21
 -16230619.44547 -12618767.14845  23040118.2344                   23040116.5394
  10775547.37146   8420915.82042  24474560.1884                   24474558.6024
 -13406537.64148 -10412122.93746  21209917.4454                   21209915.3954
  -7963434.95748  -6180641.98445  22036112.3444                   22036111.2344
 -22616108.22348 -17593441.14546  21401961.2274                   21401959.2194
  -1048748.61347   -791828.03945  22733889.7274                   22733888.8204
 -13162094.87148 -10227674.12946  22183794.8134                   22183795.5904
 -27717232.25847 -21567729.89145  22503346.9924                   22503343.3014
  -9436990.32847  -7324081.26645  22517474.0474                   22517473.2624
   7552117.12946   5902124.87543  24622026.0314                   24622024.7074
 11  8 24  2 51 30.0000000  0 10G12G18G29G26G05G15G25G02G30G21
 -16171674.99247 -12572836.44545  23051334.8594                   23051333.2424
  10656813.36746   8328395.93843  24451965.0554                   24451964.6414
 -13501809.13748 -10486360.43746  21191787.9694                   21191785.7894
  -8063338.23447  -6258488.66845  22017101.5634                   22017100.2464
 -22579216.16848 -17564694.08646  21408982.0004                   21408979.0274
  -1172049.58647   -887906.66045  22710426.7894                   22710424.8364
 -13141507.36748 -10211631.93746  22187712.6414                   22187713.5904
 -27702556.71147 -21556294.41445  22506140.0944                   22506135.8794
  -9408406.12947  -7301807.89145  22522913.5474                   22522912.7664
   7463917.64146   5833398.07043  24605241.9064                   24605240.7894
 11  8 24  2 52  0.0000000  0 10G12G18G29G26G05G15G25G02G30G21
 -16112596.02047 -12526800.91845  23062577.8444                   23062576.6054
  10538267.87146   8236022.94543  24429406.5394                   24429406.1134
 -13596776.35547 -10560360.83246  21173716.0394                   21173714.5314
  -8162796.47747  -6335988.55945  21998174.8754                   21998173.5664
 -22542034.83248 -17535721.62146  21416057.3674                   21416054.9304
  -1295171.83647   -983846.01245  22686996.8984                   22686995.4024
 -13120511.26248 -10195271.35546  22191708.1564                   22191709.0234
 -27687776.63747 -21544777.50045  22508952.2424                   22508948.5514
  -9379458.80947  -7279251.57045  22528421.7424                   22528421.3954
   7375698.04746   5764655.61343  24588454.6954                   24588453.0004
 11  8 24  2 52 30.0000000  0 10G12G18G29G26G05G15G25G02G30G21
 -16053377.25047 -12480656.46545  23073846.4304                   23073844.9884
  10419920.35246   8143804.21943  24406885.6484                   24406884.8594
 -13691428.47748 -10634115.69946  21155704.3984                   21155702.6054
  -8261798.24647  -6413132.77345  21979335.8674                   21979334.3834
 -22504558.35548 -17506519.16846  21423188.7274                   21423186.6764
  -1418103.80947  -1079637.11345  22663604.2894                   22663602.2424
 -13099100.94548 -10178588.01646  22195782.4064                   22195782.9104
 -27672883.36347 -21533172.37145  22511786.1564                   22511782.8054
  -9350143.00447  -7256408.11345  22534000.9304                   22534000.0594
   7287466.16446   5695903.58243  24571664.9224                   24571662.9534
 11  8 24  2 53  0.0000000  0 10G12G18G29G26G05G15G25G02G30G21
 -15994020.02047 -12434404.10945  23085142.1024                   23085140.4264
  10301773.85546   8051742.13743  24384402.9694                   24384402.3014
 -13785761.69548 -10707622.08246  21137753.3284                   21137751.2774
  -8360338.33248  -6489917.23445  21960584.0234                   21960582.4144
 -22466787.89148 -17477087.65246  21430376.2894                   21430374.1134
  -1540840.45747  -1175276.00045  22640247.6024                   22640246.6214
 -13077277.26648 -10161582.59046  22199935.7194                   22199936.3554
 -27657874.80147 -21521477.41845  22514642.3834                   22514638.9144
  -9320460.04347  -7233278.57445  22539648.8364                   22539648.7304
   7199223.13746   5627142.84044  24554872.9534                   24554871.0554
 11  8 24  2 53 30.0000000  0 10G12G18G29G26G05G15G25G02G30G21
 -15934545.00847 -12388059.97345  23096459.5944                   23096458.4304
  10183811.84446   7959823.83643  24361955.4064                   24361954.6724
 -13879791.12948 -10780891.74646  21119860.2664                   21119858.0554
  -8458430.95348  -6566353.02345  21941917.5634                   21941915.9344
 -22428743.14548 -17447442.39146  21437616.2504                   21437613.6054
  -1663396.47347  -1270774.14145  22616926.3054                   22616924.7624
 -13055060.54348 -10144270.88346  22204163.2814                   22204164.2274
 -27642768.04747 -21509705.94545  22517516.8594                   22517513.2114
  -9290430.48447  -7209878.94945  22545363.9064                   22545362.8284
   7110950.84446   5558359.31343  24538074.9844                   24538073.3014
 11  8 24  2 54  0.0000000  0 10G12G18G29G26G05G15G25G02G30G21
 -15874955.71147 -12341626.78545  23107799.2894                   23107797.6764
  10066035.38746   7868050.08643  24339543.5394                   24339542.4384
 -13973514.54748 -10853922.94946  21102025.0314                   21102022.9774
  -8556073.12548  -6642437.80545  21923337.4304                   21923335.7624
 -22390426.92648 -17417585.59446  21444907.0634                   21444904.6604
  -1785769.06247  -1366129.35945  22593639.0784                   22593637.9024
 -13032453.77348 -10126655.23446  22208465.2424                   22208465.7584
 -27627562.96147 -21497857.86345  22520411.0704                   22520406.7814
  -9260057.64147  -7186211.82045  22551143.7274                   22551142.7384
   7022648.59846   5489552.43043  24521271.3054                   24521270.0234
 11  8 24  2 54 30.0000000  0 10G12G18G29G26G05G15G25G02G30G21
 -15815244.47747 -12295098.58645  23119161.9144                   23119160.2114
   9948455.89146   7776429.80143  24317168.7424                   24317167.9344
 -14066919.25047 -10926705.81246  21084250.6414                   21084248.5784
  -8653251.00047  -6718160.79345  21904844.8204                   21904843.3714
 -22351831.41848 -17387511.17246  21452251.7194                   21452249.7344
  -1907944.66047  -1461331.06245  22570390.0164                   22570388.4844
 -13009449.03948 -10108729.47745  22212842.8054                   22212843.3094
 -27612248.42247 -21485924.49645  22523324.9844                   22523321.2424
  -9229334.00047  -7162271.35945  22556989.9774                   22556989.0904
   6934326.85546   5420730.36744  24504464.2974                   24504462.6954
 11  8 24  2 55  0.0000000  0 10G12G18G29G26G05G15G25G02G30G21
 -15755413.87147 -12248477.36344  23130546.9844                   23130545.7934
   9831075.14246   7684964.38143  24294831.8914                   24294831.0274
 -14160002.16448 -10999237.93446  21066537.6564                   21066536.1914
  -8749960.49248  -6793518.81645  21886441.5164                   21886440.0594
 -22312958.31248 -17357220.45346  21459648.8914                   21459646.9654
  -2029919.17647  -1556376.09045  22547178.7424                   22547177.6644
 -12986048.53948 -10090495.32446  22217295.7734                   22217296.5394
 -27596823.67647 -21473905.25445  22526260.0474                   22526256.6054
  -9198262.16047  -7138059.55545  22562902.9694                   22562901.8164
   6845985.41847   5351892.95744  24487653.3444                   24487652.1954
 11  8 24  2 55 30.0000000  0 10G12G18G29G26G05G15G25G02G30G21
 -15695467.37947 -12201765.84044  23141954.1174                   23141953.5354
   9713893.87146   7593654.37943  24272532.7194                   24272532.1524
 -14252761.39548 -11071517.84046  21048886.1644                   21048884.4964
  -8846199.12948  -6868509.94145  21868127.8754                   21868126.5704
 -22273810.51248 -17326715.66846  21467098.5234                   21467096.3754
  -2151690.48047  -1651262.76645  22524006.5944                   22524005.2814
 -12962255.57848 -10071955.37545  22221823.1094                   22221823.9144
 -27581289.02047 -21461800.36345  22529216.3054                   22529212.7154
  -9166845.57847  -7113579.13345  22568881.7034                   22568880.0394
   6757622.88746   5283039.09044  24470838.3984                   24470837.1094
 11  8 24  2 56  0.0000000  0 10G12G18G29G26G05G15G25G02G30G21
 -15635414.14847 -12154971.14844  23153381.9614                   23153381.1094
   9596907.07446   7502495.89143  24250271.5234                   24250269.8484
 -14345200.61348 -11143548.37946  21031295.8134                   21031293.4024
  -8941969.31247  -6943136.03945  21849903.5634                   21849901.5554
 -22234396.57448 -17296003.50046  21474598.9144                   21474596.5124
  -2273261.22347  -1745993.16845  22500872.1564                   22500870.8674
 -12938078.66048 -10053116.23845  22226424.2194                   22226424.6914
 -27565649.75447 -21449613.95745  22532192.4454                   22532188.6254
  -9135093.18047  -7088837.02745  22574923.7894                   22574923.3204
   6669233.30947   5214164.15244  24454018.5234                   24454017.3954
 11  8 24  2 56 30.0000000  0 10G12G18G29G26G05G15G25G02G30G21
 -15575260.19947 -12108097.97744  23164829.3204                   23164828.1214
   9480113.01646   7411487.64543  24228045.4694                   24228045.4104
 -14437320.78148 -11215330.31246  21013765.4144                   21013763.2274
  -9037271.15247  -7017397.18745  21831768.0704                   21831766.4734
 -22194722.10548 -17265088.34046  21482148.8444                   21482146.7464
  -2394631.37947  -1840567.26645  22477776.2664                   22477775.1454
 -12913523.91448 -10033982.67646  22231096.9924                   22231097.6174
 -27549908.44547 -21437348.03145  22535187.9384                   22535184.2114
  -9103011.46947  -7063838.30945  22581028.6254                   22581027.5004
   6580812.84047   5145265.16044  24437192.6254                   24437190.7854
 11  8 24  2 57  0.0000000  0 10G12G18G29G26G05G15G25G02G30G21
 -15515010.44947 -12061150.16044  23176294.6024                   23176292.7274
   9363511.03546   7320629.01243  24205856.6804                   24205856.0864
 -14529120.87148 -11286862.84046  20996296.5314                   20996294.5944
  -9132103.00047  -7091292.11345  21813722.2894                   21813720.4694
 -22154791.05548 -17233973.22746  21489747.0474                   21489745.2664
  -2515799.51247  -1934983.93445  22454718.8364                   22454717.3874
 -12888595.62548 -10014558.03945  22235840.4694                   22235841.4104
 -27534066.60548 -21425003.77745  22538202.6564                   22538198.9184
  -9070604.93747  -7038586.48445  22587195.4144                   22587195.0084
   6492359.52346   5076340.57043  24420360.1024                   24420358.9024
 11  8 24  2 57 30.0000000  0 10G12G18G29G26G05G15G25G02G30G21
 -15454662.23847 -12014125.60944  23187778.3444                   23187776.9144
   9247107.67246   7229925.19543  24183706.1174                   24183705.7194
 -14620593.23448 -11358140.00446  20978890.0314                   20978887.6294
  -9226456.18747  -7164814.05145  21795766.9844                   21795766.1294
 -22114600.62148 -17202656.01246  21497395.0944                   21497392.7704
  -2636756.94547  -2029236.43745  22431701.2734                   22431699.6994
 -12863290.98447  -9994840.13745  22240655.6334                   22240656.3164
 -27518117.98447 -21412576.30945  22541237.3674                   22541234.0354
  -9037871.10247  -7013079.60545  22593424.5554                   22593423.7304
   6403878.84046   5007394.68043  24403523.1174                   24403521.7034
 11  8 24  2 58  0.0000000  0 10G12G18G29G26G05G15G25G02G30G21
 -15394209.80947 -11967019.85544  23199281.8674                   23199280.3954
   9130912.54746   7139383.59443  24161595.1414                   24161593.6214
 -14711726.21148 -11429152.70346  20961548.2114                   20961545.8794
  -9320318.69147  -7237953.63745  21777905.7114                   21777904.6334
 -22074144.47748 -17171131.74246  21505093.8284                   21505091.4344
  -2757491.85947  -2123315.54745  22408726.3204                   22408724.9344
 -12837604.16048  -9974824.43445  22245544.0474                   22245544.3914
 -27502053.44947 -21400058.53545  22544294.2194                   22544290.6094
  -9004804.44947  -6987313.38745  22599716.9304                   22599716.1764
   6315378.67646   4938433.56344  24386682.1884                   24386680.6804
 11  8 24  2 58 30.0000000  0 10G12G18G29G26G05G15G25G02G30G21
 -15333660.43447 -11919838.55544  23210804.0164                   23210802.6724
   9014923.23446   7049002.40643  24139522.6564                   24139521.9384
 -14802522.16847 -11499902.78546  20944270.3054                   20944267.9224
  -9413691.27747  -7310711.47345  21760137.6174                   21760136.5904
 -22033429.09448 -17139405.46946  21512841.5474                   21512839.2464
  -2878005.21947  -2217222.00845  22385793.4384                   22385791.7114
 -12811541.88747  -9954516.17246  22250503.4614                   22250503.8404
 -27485876.57047 -21387453.20745  22547372.9534                   22547369.3874
  -8971412.05547  -6961293.35245  22606071.3834                   22606070.1094
   6226854.52046   4869453.79743  24369836.6334                   24369834.7424
 11  8 24  2 59  0.0000000  0 10G12G18G29G26G05G15G25G02G30G21
 -15273021.44147 -11872587.43444  23222343.7344                   23222342.2734
   8899135.81346   6958778.50443  24117489.4224                   24117488.0554
 -14892983.35547 -11570392.00446  20927055.8134                   20927053.7974
  -9506575.62547  -7383088.85945  21742462.1564                   21742460.5474
 -21992461.71548 -17107482.83646  21520637.7734                   21520635.3054
  -2998298.64147  -2310957.08645  22362902.2424                   22362901.0744
 -12785111.81647  -9933921.31645  22255532.7114                   22255533.3834
 -27469591.81247 -21374763.81645  22550471.5554                   22550467.9414
  -8937701.82447  -6935025.64845  22612485.8284                   22612485.5594
   6138301.43846   4800451.47343  24352985.6484                   24352983.4964
 11  8 24  2 59 30.0000000  0 10G12G18G29G26G05G15G25G02G30G21
 -15212291.11347 -11825265.14544  23233900.1884                   23233898.3404
   8783556.85946   6868717.04343  24095495.1174                   24095494.1024
 -14983101.62148 -11640614.00846  20909907.0004                   20909904.8164
  -9598962.77347  -7455078.81245  21724881.0474                   21724880.1644
 -21951239.25048 -17075361.43446  21528482.2584                   21528480.0044
  -3118363.36747  -2404513.97345  22340054.6724                   22340053.4264
 -12758311.15247  -9913037.68746  22260632.9774                   22260633.5394
 -27453193.13347 -21361985.64145  22553592.0784                   22553588.7854
  -8903671.25047  -6908508.32845  22618962.3284                   22618960.6724
   6049724.39846   4731430.47743  24336128.9694                   24336127.5634
 11  8 24  3  0  0.0000000  0 10G12G18G29G26G05G15G25G02G30G21
 -15151481.51247 -11777881.08644  23245471.9844                   23245469.9534
   8668178.17246   6778811.68443  24073538.8204                   24073538.2194
 -15072884.24248 -11710574.48046  20892822.2034                   20892819.9264
  -9690859.21947  -7526686.41445  21707394.4144                   21707393.0434
 -21909773.41448 -17043050.39146  21536372.7034                   21536370.3754
  -3238205.85947  -2497897.68445  22317249.3204                   22317247.8094
 -12731152.11747  -9891874.81645  22265800.9384                   22265801.8244
 -27436689.57047 -21349125.76245  22556732.8984                   22556729.1804
  -8869332.93047  -6881751.21145  22625496.4224                   22625495.7274
   5961113.27046   4662382.90243  24319266.9064                   24319265.0634
 11  8 24  3  0 30.0000000  0 10G12G18G29G26G05G15G25G02G30G21
 -15090588.21947 -11730431.82045  23257059.2584                   23257057.8914
   8553007.89846   6689068.69143  24051622.7584                   24051621.9184
 -15162321.59448 -11780265.91446  20875802.6174                   20875800.4064
  -9782254.54747  -7597903.52745  21690002.1884                   21690000.7344
 -21868059.23048 -17010545.82046  21544310.3204                   21544308.3674
  -3357815.53147  -2591099.98045  22294488.3284                   22294486.5164
 -12703630.25047  -9870429.21945  22271038.1174                   22271038.8014
 -27420073.23447 -21336178.00045  22559894.8204                   22559891.2464
  -8834682.59447  -6854750.95745  22632089.9924                   22632089.3134
   5872475.43046   4593314.49643  24302399.8524                   24302397.9384
 11  8 24  3  1  0.0000000  0 10G12G18G29G26G05G15G25G02G30G21
 -15029610.86747 -11682917.06644  23268662.8054                   23268662.2074
   8438050.68846   6599491.74243  24029747.2504                   24029746.1644
 -15251407.59448 -11849683.55546  20858849.8444                   20858847.8634
  -9873141.94147  -7668724.84045  21672706.8134                   21672705.5394
 -21826095.97348 -16977847.18046  21552296.0234                   21552293.8554
  -3477185.98847  -2684115.86745  22271772.5704                   22271771.6884
 -12675744.94147  -9848700.41845  22276344.4924                   22276345.6294
 -27403340.19547 -21323139.30545  22563078.8674                   22563075.7424
  -8799719.94547  -6827507.35245  22638743.3054                   22638742.5984
   5783813.77346   4524227.55943  24285528.0234                   24285526.2664
 11  8 24  3  1 30.0000000  0 10G12G18G29G26G05G15G25G02G30G21
 -14968561.68047 -11635346.32444  23280280.7194                   23280279.0434
   8323298.56346   6510074.59843  24007910.8054                   24007910.0274
 -15340149.28948 -11918832.91046  20841963.0394                   20841960.9844
  -9963527.61347  -7739155.20745  21655507.2114                   21655505.6414
 -21783895.23048 -16944963.48446  21560326.5474                   21560324.2934
  -3596323.19947  -2776950.01245  22249101.3914                   22249100.5474
 -12647508.23047  -9826697.80945  22281717.8054                   22281718.4494
 -27386499.03947 -21310016.37545  22566284.0004                   22566280.5394
  -8764457.36347  -6800030.00845  22645453.7974                   22645452.6214
   5695118.83646   4455114.69143  24268650.1254                   24268648.6684
 11  8 24  3  2  0.0000000  0 10G12G18G29G26G05G15G25G02G30G21
 -14907441.74247 -11587720.46144  23291911.7194                   23291910.2624
   8208754.07846   6420819.24243  23986113.1954                   23986112.4384
 -15428542.37548 -11987710.61346  20825142.2274                   20825140.5274
 -10053406.66047  -7809190.79745  21638403.5474                   21638402.4224
 -21741457.67248 -16911895.26646  21568401.8054                   21568399.2274
  -3715222.34847  -2869598.64545  22226475.6254                   22226474.7384
 -12618921.27347  -9804422.27346  22287157.7034                   22287158.7584
 -27369548.00047 -21296807.80145  22569509.7584                   22569505.9694
  -8728896.12947  -6772319.96545  22652220.6024                   22652219.7424
   5606391.68046   4385976.69543  24251766.1724                   24251764.3204
 11  8 24  3  2 30.0000000  0 10G12G18G29G26G05G15G25G02G30G21
 -14846247.29747 -11540036.52744  23303555.7894                   23303555.2584
   8094425.28546   6331731.99243  23964357.2734                   23964356.3204
 -15516577.84448 -12056309.65646  20808389.9534                   20808387.7154
 -10142769.48047  -7878824.12945  21621398.3134                   21621396.9384
 -21698779.00048 -16878639.15646  21576523.3834                   21576521.0314
  -3833873.44547  -2962053.99245  22203897.1804                   22203895.8134
 -12589980.08647  -9781870.71545  22292665.1174                   22292666.3094
 -27352479.65247 -21283507.81645  22572758.0164                   22572754.0164
  -8693032.65647  -6744374.41845  22659045.4224                   22659044.2774
   5517638.87946   4316818.72343  24234876.8134                   24234874.5864
 11  8 24  3  3  0.0000000  0 10G12G18G29G26G05G15G25G02G30G21
 -14784986.41047 -11492300.82444  23315213.6334                   23315212.6254
   7980308.39146   6242809.83643  23942642.0784                   23942640.6914
 -15604258.34848 -12124632.10246  20791704.6724                   20791702.3594
 -10231617.44547  -7948056.28145  21604490.8444                   21604489.8594
 -21655866.12948 -16845200.56246  21584689.6484                   21584687.2234
  -3952278.60247  -3054317.69945  22181365.2894                   22181364.1994
 -12560692.23047  -9759049.02745  22298238.4224                   22298239.5314
 -27335298.18047 -21270119.67645  22576027.5314                   22576023.7274
  -8656874.76247  -6716199.44145  22665925.7034                   22665924.7114
   5428855.56646   4247636.95743  24217981.8054                   24217979.6524
 11  8 24  3  3 30.0000000  0 10G12G18G29G26G05G15G25G02G30G21
 -14723657.68047 -11444512.26244  23326884.8914                   23326883.2544
   7866408.03946   6154056.41043  23920967.3054                   23920966.0354
 -15691577.21548 -12192672.75846  20775088.6334                   20775086.0944
 -10319943.54347  -8016881.78545  21587683.3284                   21587681.9024
 -21612717.52348 -16811578.27746  21592900.7734                   21592898.2384
  -4070429.68447  -3146383.41845  22158882.0394                   22158880.7274
 -12531056.52747  -9735956.30145  22303878.1094                   22303878.9184
 -27317998.91447 -21256639.78145  22579319.4614                   22579315.9964
  -8620421.42647  -6687794.26245  22672862.5474                   22672861.5634
   5340045.37746   4178434.27043  24201081.7894                   24201080.2464
 11  8 24  3  4  0.0000000  0 10G12G18G29G26G05G15G25G02G30G21
 -14662270.77046 -11396678.37144  23338565.6564                   23338564.6454
   7752718.77047   6065467.45743  23899332.9144                   23899331.5004
 -15778538.84448 -12260435.04746  20758540.3284                   20758538.0084
 -10407751.35948  -8085303.42645  21570974.0864                   21570972.2464
 -21569342.32048 -16777779.42646  21601154.7344                   21601152.7584
  -4188330.85247  -3238254.40645  22136446.1724                   22136444.7074
 -12501082.64547  -9712600.05146  22309581.9064                   22309582.6054
 -27300587.98847 -21243072.86745  22582632.2504                   22582629.2584
  -8583682.71147  -6659166.71945  22679853.7974                   22679852.8794
   5251200.80146   4109204.77343  24184174.9534                   24184172.7194
 11  8 24  3  4 30.0000000  0 10G12G18G29G26G05G15G25G02G30G21
 -14600826.72347 -11348799.93444  23350258.3524                   23350256.6414
   7639243.62946   5977045.35943  23877739.1334                   23877737.8444
 -15865139.17648 -12327915.79746  20742060.7894                   20742058.9024
 -10495036.32047  -8153317.66045  21554364.1484                   21554362.7894
 -21525741.10548 -16743804.46146  21609451.5784                   21609449.1524
  -4305977.30947  -3329926.92645  22114058.5704                   22114057.3324
 -12470771.62147  -9688981.10545  22315349.8524                   22315350.9734
 -27283063.42647 -21229417.40645  22585966.9454                   22585963.6294
  -8546659.78147  -6630317.70344  22686899.5394                   22686897.9344
   5162323.32046   4039949.64843  24167262.5234                   24167259.5434
 11  8 24  3  5  0.0000000  0 10G12G18G29G26G05G15G25G02G30G21
 -14539323.18047 -11300875.13744  23361962.1094                   23361960.6804
   7525989.32046   5888795.34443  23856187.4064                   23856185.9844
 -15951370.27048 -12395108.84046  20725651.4924                   20725649.8014
 -10581789.64847  -8220917.62945  21537855.5784                   21537854.1024
 -21481910.80548 -16709650.98846  21617791.6644                   21617789.8404
  -4423360.29347  -3421394.13745  22091721.3284                   22091719.7584
 -12440120.87547  -9665097.44145  22321182.0474                   22321183.2934
 -27265419.23447 -21215668.72745  22589324.7194                   22589321.3164
  -8509350.43747  -6601245.51645  22693998.6414                   22693997.6024
   5073418.46546   3970673.17643  24150344.1564                   24150341.6884
 11  8 24  3  5 30.0000000  0 10G12G18G29G26G05G15G25G02G30G21
 -14477770.39547 -11252911.97744  23373675.4844                   23373673.6764
   7412949.57847   5800712.50843  23834677.0784                   23834675.3284
 -16037236.54348 -12462017.59446  20709311.4304                   20709309.5824
 -10668015.39147  -8288106.48045  21521447.3204                   21521445.8524
 -21437860.69948 -16675326.23846  21626174.6414                   21626172.3404
  -4540483.73047  -3512659.10945  22069433.5314                   22069431.7544
 -12409140.23847  -9640956.71145  22327077.9694                   22327078.5594
 -27247661.74247 -21201831.73845  22592703.8204                   22592700.3554
  -8471764.59047  -6571957.86744  22701151.2504                   22701150.1564
   4984478.92246   3901369.69543  24133419.2894                   24133417.1884
 11  8 24  3  6  0.0000000  0 10G12G18G29G26G05G15G25G02G30G21
 -14416170.94147 -11204912.44144  23385396.9924                   23385396.1054
   7300125.09446   5712797.39843  23813206.6564                   23813205.7424
 -16122735.91448 -12528640.45746  20693041.6174                   20693039.5314
 -10753710.44547  -8354881.81245  21505140.1024                   21505137.9924
 -21393593.13748 -16640832.05146  21634598.4304                   21634596.7114
  -4657344.02747  -3603719.03545  22047195.4224                   22047194.1374
 -12377832.50447  -9616561.10245  22333035.8364                   22333036.3554
 -27229790.42647 -21187906.07845  22596104.2974                   22596101.0984
  -8433905.39547  -6542457.22744  22708355.4384                   22708354.3324
   4895504.27347   3832038.85543  24116488.2034                   24116486.0744
 11  8 24  3  6 30.0000000  0 10G12G18G29G26G05G15G25G02G30G21
 -14354519.59447 -11156872.47744  23397129.2584                   23397127.7034
   7187525.25046   5625057.34443  23791779.5084                   23791777.9774
 -16207858.09848 -12594969.40646  20676843.2584                   20676841.5904
 -10838863.93448  -8421235.15645  21488935.7974                   21488934.6094
 -21349102.39148 -16606163.94946  21643064.7504                   21643062.7114
  -4773930.30547  -3694565.44545  22025009.8134                   22025008.5164
 -12346192.62547  -9591906.68045  22339056.3984                   22339057.4144
 -27211796.71147 -21173885.03545  22599528.6254                   22599525.6684
  -8395768.07047  -6512739.85944  22715612.7734                   22715612.0704
   4806502.30546   3762686.72743  24099551.8984                   24099549.3134
 11  8 24  3  7  0.0000000  0 10G12G18G29G26G05G15G25G02G30G21
 -12717412.07447  -9881204.33644  23708660.5164                   23708658.9064
   8650564.09846   6765087.69143  24070186.5004                   24070185.3204
 -14717188.28948 -11433408.49246  20960508.2584                   20960505.9964
  -9348060.81247  -7259570.34845  21772626.2814                   21772624.6094
 -19728982.77748 -15343733.08646  21951362.9844                   21951361.0354
  -3314826.39547  -2557601.31645  22302668.1644                   22302666.6724
 -10738815.14547  -8339404.77045  22644930.1334                   22644931.5084
 -25618271.31647 -19932176.97745  22902766.4924                   22902763.3164
  -6781947.50047  -5255217.35945  23022712.8674                   23022711.8834
   6292885.09447   4920907.16043  24382401.0004                   24382398.8834
 11  8 24  3  7 30.0000000  0 10G12G18G29G26G05G15G25G02G30G21
 -12655676.83647  -9833099.00044  23720408.0784                   23720407.1134
   8538405.41846   6677691.39143  24048842.7584                   24048842.1994
 -14801559.68048 -11499152.41046  20944453.0554                   20944450.9024
  -9432133.09047  -7325081.18745  21756628.0084                   21756626.4024
 -19684063.71148 -15308731.21146  21959910.8674                   21959908.5634
  -3430866.35947  -2648022.02345  22280586.5864                   22280585.0274
 -10706530.58647  -8314247.99245  22651073.7734                   22651074.7854
 -25600042.09447 -19917972.41844  22906235.6254                   22906232.3914
  -6743274.05147  -5225082.23445  23030071.8834                   23030071.1254
   6203816.78947   4851503.34443  24365451.6254                   24365449.4774
 11  8 24  3  8  0.0000000  0 10G12G18G29G26G05G15G25G02G30G21
 -12593904.20747  -9784964.53144  23732163.5084                   23732162.1994
   8426468.11746   6590467.60243  24027541.8204                   24027540.7114
 -14885552.90648 -11564601.64846  20928469.7194                   20928467.4454
  -9515661.25048  -7390168.02745  21740733.2504                   21740731.5984
 -19638934.70348 -15273565.74246  21968499.0474                   21968496.7854
  -3546629.19147  -2738226.78545  22258557.8054                   22258555.9574
 -10673928.65247  -8288843.91045  22657277.8364                   22657278.9414
 -25581694.98447 -19903675.97745  22909727.0554                   22909723.6254
  -6704337.85947  -5194742.38344  23037481.3364                   23037480.3134
   6114714.06347   4782072.70744  24348495.8134                   24348494.0514
 11  8 24  3  8 30.0000000  0 10G12G18G29G26G05G15G25G02G30G21
 -12532104.37547  -9736808.88744  23743923.4844                   23743922.0004
   8314746.65246   6503411.99643  24006282.4224                   24006281.2384
 -14969172.02048 -11629759.37546  20912557.4304                   20912555.4144
  -9598648.57048  -7454833.43745  21724941.3054                   21724939.2814
 -19593604.45348 -15238243.46946  21977125.0084                   21977122.4224
  -3662118.28147  -2828218.23445  22236580.9694                   22236579.1134
 -10641018.89547  -8263199.97345  22663540.3134                   22663541.0394
 -25563236.08247 -19889292.43045  22913239.5394                   22913236.1334
  -6665148.71547  -5164205.41844  23044939.0634                   23044938.0164
   6025570.06347   4712609.89844  24331532.0634                   24331530.6724
 11  8 24  3  9  0.0000000  0 10G12G18G29G26G05G15G25G02G30G21
 -12470279.62947  -9688633.80544  23755688.0394                   23755687.0554
   8203242.46946   6416525.70343  23985063.0234                   23985062.4654
 -15052414.06648 -11694623.27346  20896717.1174                   20896715.4104
  -9681092.00048  -7519075.03145  21709252.2814                   21709250.5634
 -19548074.87148 -15202765.86746  21985788.8444                   21985786.7854
  -3777330.06647  -2917993.59845  22214656.2814                   22214655.0084
 -10607803.69947  -8237318.01645  22669861.4694                   22669861.6054
 -25544664.21947 -19874820.87545  22916773.9224                   22916770.6134
  -6625709.13347  -5133473.30144  23052444.2424                   23052443.3874
   5936385.10247   4643115.19944  24314561.1094                   24314558.9224
 11  8 24  3  9 30.0000000  0 10G12G18G29G26G05G15G25G02G30G21
 -12408425.56647  -9640435.89144  23767458.8674                   23767457.4964
   8091963.24246   6329814.70743  23963887.9224                   23963886.4064
 -15135270.20348 -11759186.47346  20880949.6564                   20880947.5274
  -9762981.48848  -7582884.98845  21693669.2814                   21693667.5434
 -19502341.48048 -15167129.46146  21994491.6334                   21994489.3444
  -3892254.22747  -3007544.84045  22192787.0394                   22192785.4064
 -10574279.03947  -8211194.92245  22676240.5554                   22676241.1804
 -25525972.25047 -19860255.72745  22920330.2194                   22920327.0744
  -6586015.43047  -5102543.16844  23059997.3834                   23059996.6214
   5847166.06346   4573593.93844  24297582.9144                   24297581.4024
 11  8 24  3 10  0.0000000  0 10G12G18G29G26G05G15G25G02G30G21
 -12346552.14547  -9592222.87944  23779233.1804                   23779231.9264
   7980903.15246   6243274.43443  23942753.6804                   23942752.3524
 -15217745.15248 -11823452.64546  20865255.1484                   20865252.9454
  -9844321.55548  -7646266.81245  21678190.5784                   21678189.4694
 -19456413.69548 -15131341.56246  22003231.5234                   22003228.6994
  -4006895.14147  -3096875.36345  22170971.8444                   22170970.2854
 -10540455.09047  -8184838.60945  22682677.2664                   22682677.8914
 -25507166.61747 -19845602.00045  22923909.2194                   22923906.2734
  -6546077.91047  -5071423.06244  23067597.7274                   23067596.1094
   5757905.41847   4504040.26644  24280597.0554                   24280595.1094
 11  8 24  3 10 30.0000000  0 10G12G18G29G26G05G15G25G02G30G21
 -12284659.23847  -9543994.68744  23791010.6644                   23791009.5124
   7870066.31346   6156908.14543  23921662.0004                   23921660.7624
 -15299833.30947 -11887417.41446  20849634.2034                   20849632.2734
  -9925105.98847  -7709215.68445  21662817.9454                   21662816.4414
 -19410290.32448 -15095401.27346  22012008.2974                   22012006.0824
  -4121245.91447  -3185979.81645  22149211.7504                   22149210.0634
 -10506331.41847  -8158248.73845  22689170.3914                   22689171.3874
 -25488243.52047 -19830856.73445  22927510.2344                   22927506.7584
  -6505896.29347  -5040112.73444  23075243.7894                   23075242.4964
   5668606.00047   4434456.36744  24263604.1804                   24263602.0704
 11  8 24  3 11  0.0000000  0 10G12G18G29G26G05G15G25G02G30G21
 -12222753.32847  -9495756.35944  23802791.1024                   23802789.9844
   7759450.01246   6070713.67243  23900612.5004                   23900611.4414
 -15381535.75048 -11951081.62946  20834086.8134                   20834085.0314
 -10005335.78948  -7771732.36745  21647550.8834                   21647548.9574
 -19363977.35248 -15059313.23846  22020821.5784                   22020819.6884
  -4235307.42247  -3274858.85946  22127506.1024                   22127504.5824
 -10471914.59447  -8131430.45745  22695719.5784                   22695720.5234
 -25469205.93447 -19816022.24645  22931133.2424                   22931129.7854
  -6465477.50047  -5008617.60544  23082935.0004                   23082934.1564
   5579263.95747   4364839.25844  24246602.6484                   24246600.7934
 11  8 24  3 11 30.0000000  0 10G12G18G29G26G05G15G25G02G30G21
 -12160826.83647  -9447502.00444  23814575.3054                   23814573.9384
   7649065.38747   5984699.72343  23879607.1094                   23879605.5354
 -15462840.10248 -12014435.64546  20818615.3594                   20818613.4064
 -10084997.56248  -7833806.41845  21632391.5084                   21632390.2424
 -19317466.83248 -15023071.27346  22029671.9144                   22029669.9964
  -4349066.30547  -3363502.09445  22105858.3984                   22105857.2774
 -10437197.26647  -8104378.00845  22702326.4534                   22702327.3794
 -25450042.86347 -19801090.00045  22934779.5704                   22934776.3054
  -6424814.25447  -4976931.97345  23090672.9144                   23090671.6994
   5489889.71547   4295197.05144  24229595.5944                   24229593.6884
 11  8 24  3 12  0.0000000  0 10G12G18G29G26G05G15G25G02G30G21
 -12098892.81647  -9399241.77344  23826361.2894                   23826359.7194
   7538903.09047   5898859.03143  23858644.3754                   23858642.7384
 -15543754.39847 -12077485.72346  20803217.8674                   20803215.8594
 -10164098.93447  -7895443.80945  21617338.9774                   21617337.4064
 -19270771.41048 -14986685.22746  22038558.0554                   22038555.5474
  -4462529.50847  -3451914.93445  22084267.1174                   22084265.6954
 -10402192.56648  -8077101.64145  22708987.4224                   22708988.2704
 -25430764.19147 -19786067.68044  22938447.8674                   22938444.6214
  -6383919.93447  -4945066.27744  23098455.0394                   23098453.6054
   5400472.87547   4225521.65644  24212579.9454                   24212578.5274
 11  8 24  3 12 30.0000000  0 10G12G18G29G26G05G15G25G02G30G21
 -12036945.58247  -9350971.26244  23838149.5784                   23838148.0004
   7428972.54747   5813198.93443  23837724.6804                   23837723.3444
 -15624267.49248 -12140223.18046  20787896.6564                   20787894.5664
 -10242628.47748  -7956635.61345  21602395.4384                   21602393.9024
 -19223884.65648 -14950150.07446  22047480.5314                   22047478.0594
  -4575685.61747  -3540088.46945  22062734.0634                   22062732.7854
 -10366894.94948  -8049597.03145  22715704.2664                   22715705.1564
 -25411360.94147 -19770948.26645  22942140.7344                   22942136.7934
  -6342789.11347  -4913016.31244  23106281.7274                   23106280.4104
   5311021.40647   4155819.27044  24195558.6174                   24195556.3954
 11  8 24  3 13  0.0000000  0 10G12G18G29G26G05G15G25G02G30G21
 -11974985.24247  -9302690.52744  23849940.1884                   23849939.0124
   7319277.21947   5727722.11344  23816850.4534                   23816848.9184
 -15704374.68748 -12202644.34846  20772652.7664                   20772650.5124
 -10320580.93048  -8017377.73445  21587561.2814                   21587559.7234
 -19176806.00848 -14913465.40246  22056438.8134                   22056436.5354
  -4688528.71947  -3628018.10945  22041261.0704                   22041259.3094
 -10331304.74648  -8021864.43445  22722477.0864                   22722477.7344
 -25391829.73847 -19755729.15245  22945857.2344                   22945853.7734
  -6301422.39547  -4880782.51644  23114153.8524                   23114152.5944
   5221537.76246   4086091.82044  24178529.8054                   24178528.3364
 11  8 24  3 13 30.0000000  0 10G12G18G29G26G05G15G25G02G30G21
 -11913022.84847  -9254408.21144  23861731.2344                   23861729.5634
   7209809.69147   5642422.78944  23796019.4774                   23796017.8714
 -15784082.03948 -12264753.95346  20757484.9534                   20757482.4104
 -10397962.33647  -8077674.88345  21572836.2734                   21572834.4804
 -19129546.29348 -14876639.65646  22065432.0314                   22065430.0944
  -4801064.10547  -3715707.97746  22019845.9694                   22019844.6884
 -10295433.41448  -7993912.77045  22729303.1484                   22729303.9804
 -25372178.51247 -19740416.53944  22949596.8444                   22949593.5864
  -6259831.35547  -4848373.94144  23122068.1644                   23122067.4844
   5132013.18447   4016332.45744  24161493.8364                   24161491.7074
 11  8 24  3 14  0.0000000  0 10G12G18G29G26G05G15G25G02G30G21
 -11851055.52047  -9206122.06244  23873523.0394                   23873522.1334
   7100577.09047   5557306.56344  23775233.2194                   23775231.7814
 -15863381.05548 -12326545.38346  20742394.9384                   20742392.9024
 -10474763.39847  -8137519.82045  21558221.2734                   21558219.8674
 -19082101.73048 -14839669.86746  22074460.5164                   22074458.2304
  -4913282.53547  -3803150.85945  21998491.5554                   21998489.6094
 -10259277.64147  -7965739.47345  22736183.1254                   22736184.5354
 -25352400.33247 -19725005.00045  22953360.1954                   22953357.0234
  -6218012.89847  -4815788.15644  23130025.8524                   23130025.3674
   5042453.83646   3946545.99644  24144451.3754                   24144449.0004
